Index of /library/deepconv/sample/2011-07-26_yamasita/figdir

[ICO]NameLast modifiedSizeDescription

[PARENTDIR]Parent Directory  -  
[IMG]Dry_coolheatbalance_50kmx20km-Tsfc245_MassTotal.png2011-07-25 19:31 6.9K 
[IMG]Dry_coolheatbalance_50kmx20km-Tsfc245_VelZ_00000000.png2011-07-25 15:13 8.1K 
[IMG]Dry_coolheatbalance_50kmx20km-Tsfc245_VelX_00000000.png2011-07-25 15:13 8.3K 
[IMG]Dry_coolheatbalance_50kmx20km-Tsfc245_PotTempDev_00000000.png2011-07-25 15:13 9.3K 
[IMG]Dry_coolheatbalance_50kmx20km-Tsfc245_Exner_00000000.png2011-07-25 15:13 9.5K 
[IMG]Dry_coolheatbalance_50kmx20km-Tsfc245_ExnerDev_00000000.png2011-07-25 15:13 9.6K 
[IMG]Dry_coolheatbalance_ExnerDev_00000000.png2011-07-25 15:13 9.6K 
[IMG]Dry_coolheatbalance_50kmx20km-Tsfc245_KineticEnergyTotal.png2011-07-25 19:31 10K 
[IMG]Dry_coolheatbalance_50kmx20km-Tsfc245_Km_00000000.png2011-07-25 15:13 11K 
[IMG]Dry_coolheatbalance_50kmx20km-Tsfc245_Exner_00050400.png2011-07-25 15:14 15K 
[IMG]Dry_coolheatbalance_50kmx20km-Tsfc245_Exner_00054000.png2011-07-25 15:14 15K 
[IMG]Dry_coolheatbalance_50kmx20km-Tsfc245_Exner_00057600.png2011-07-25 15:14 15K 
[IMG]Dry_coolheatbalance_50kmx20km-Tsfc245_Exner_00003600.png2011-07-25 15:13 15K 
[IMG]Dry_coolheatbalance_50kmx20km-Tsfc245_Exner_00082800.png2011-07-25 15:15 15K 
[IMG]Dry_coolheatbalance_50kmx20km-Tsfc245_Exner_00046800.png2011-07-25 15:14 16K 
[IMG]Dry_coolheatbalance_50kmx20km-Tsfc245_Exner_00039600.png2011-07-25 15:14 16K 
[IMG]Dry_coolheatbalance_50kmx20km-Tsfc245_VelZ_00003600.png2011-07-25 15:13 16K 
[IMG]Dry_coolheatbalance_50kmx20km-Tsfc245_Exner_00061200.png2011-07-25 15:14 16K 
[IMG]Dry_coolheatbalance_50kmx20km-Tsfc245_Exner_00086400.png2011-07-25 15:15 16K 
[IMG]Dry_coolheatbalance_50kmx20km-Tsfc245_Exner_00064800.png2011-07-25 15:14 16K 
[IMG]Dry_coolheatbalance_50kmx20km-Tsfc245_Exner_00068400.png2011-07-25 15:15 16K 
[IMG]Dry_coolheatbalance_50kmx20km-Tsfc245_Exner_00043200.png2011-07-25 15:14 16K 
[IMG]Dry_coolheatbalance_50kmx20km-Tsfc245_Exner_00036000.png2011-07-25 15:14 16K 
[IMG]Dry_coolheatbalance_50kmx20km-Tsfc245_Exner_00032400.png2011-07-25 15:14 16K 
[IMG]Dry_coolheatbalance_50kmx20km-Tsfc245_VelX_00003600.png2011-07-25 15:13 17K 
[IMG]Dry_coolheatbalance_50kmx20km-Tsfc245_Exner_00079200.png2011-07-25 15:15 17K 
[IMG]Dry_coolheatbalance_50kmx20km-Tsfc245_Exner_00072000.png2011-07-25 15:15 17K 
[IMG]Dry_coolheatbalance_50kmx20km-Tsfc245_Exner_00028800.png2011-07-25 15:13 17K 
[IMG]Dry_coolheatbalance_50kmx20km-Tsfc245_Exner_00075600.png2011-07-25 15:15 17K 
[IMG]Dry_coolheatbalance_50kmx20km-Tsfc245_Exner_00090000.png2011-07-25 15:15 17K 
[IMG]Dry_coolheatbalance_50kmx20km-Tsfc245_Exner_00100800.png2011-07-25 15:15 17K 
[IMG]Dry_coolheatbalance_50kmx20km-Tsfc245_Exner_00097200.png2011-07-25 15:15 17K 
[IMG]Dry_coolheatbalance_50kmx20km-Tsfc245_Exner_00093600.png2011-07-25 15:15 17K 
[IMG]Dry_coolheatbalance_50kmx20km-Tsfc245_Exner_00115200.png2011-07-25 15:16 18K 
[IMG]Dry_coolheatbalance_50kmx20km-Tsfc245_Exner_00118800.png2011-07-25 15:16 18K 
[IMG]Dry_coolheatbalance_50kmx20km-Tsfc245_Exner_00122400.png2011-07-25 15:16 18K 
[IMG]Dry_coolheatbalance_50kmx20km-Tsfc245_Exner_00158400.png2011-07-25 15:17 18K 
[IMG]Dry_coolheatbalance_50kmx20km-Tsfc245_Exner_00104400.png2011-07-25 15:16 18K 
[IMG]Dry_coolheatbalance_50kmx20km-Tsfc245_Exner_00147600.png2011-07-25 15:17 18K 
[IMG]Dry_coolheatbalance_50kmx20km-Tsfc245_Exner_00111600.png2011-07-25 15:16 18K 
[IMG]Dry_coolheatbalance_50kmx20km-Tsfc245_Exner_00151200.png2011-07-25 15:17 19K 
[IMG]Dry_coolheatbalance_50kmx20km-Tsfc245_VelZ_00439200.png2011-07-25 19:19 19K 
[IMG]Dry_coolheatbalance_50kmx20km-Tsfc245_Exner_00129600.png2011-07-25 15:16 19K 
[IMG]Dry_coolheatbalance_50kmx20km-Tsfc245_Exner_00255600.png2011-07-25 15:20 19K 
[IMG]Dry_coolheatbalance_50kmx20km-Tsfc245_VelX_00100800.png2011-07-25 15:15 19K 
[IMG]Dry_coolheatbalance_50kmx20km-Tsfc245_Exner_00169200.png2011-07-25 15:17 19K 
[IMG]Dry_coolheatbalance_50kmx20km-Tsfc245_Exner_00136800.png2011-07-25 15:16 19K 
[IMG]Dry_coolheatbalance_50kmx20km-Tsfc245_Exner_00201600.png2011-07-25 15:18 19K 
[IMG]Dry_coolheatbalance_50kmx20km-Tsfc245_Exner_00108000.png2011-07-25 15:16 19K 
[IMG]Dry_coolheatbalance_50kmx20km-Tsfc245_Exner_00162000.png2011-07-25 15:17 19K 
[IMG]Dry_coolheatbalance_50kmx20km-Tsfc245_VelX_00273600.png2011-07-25 15:20 19K 
[IMG]Dry_coolheatbalance_50kmx20km-Tsfc245_Exner_00208800.png2011-07-25 15:18 19K 
[IMG]Dry_coolheatbalance_50kmx20km-Tsfc245_Exner_00126000.png2011-07-25 15:16 19K 
[IMG]Dry_coolheatbalance_50kmx20km-Tsfc245_Exner_00154800.png2011-07-25 15:17 19K 
[IMG]Dry_coolheatbalance_50kmx20km-Tsfc245_VelX_00111600.png2011-07-25 15:16 19K 
[IMG]Dry_coolheatbalance_50kmx20km-Tsfc245_VelX_00860400.png2011-07-25 19:30 19K 
[IMG]Dry_coolheatbalance_50kmx20km-Tsfc245_VelZ_00709200.png2011-07-25 19:26 19K 
[IMG]Dry_coolheatbalance_50kmx20km-Tsfc245_VelX_00334800.png2011-07-25 15:22 19K 
[IMG]Dry_coolheatbalance_50kmx20km-Tsfc245_Exner_00140400.png2011-07-25 15:17 19K 
[IMG]Dry_coolheatbalance_50kmx20km-Tsfc245_Exner_00144000.png2011-07-25 15:17 19K 
[IMG]Dry_coolheatbalance_50kmx20km-Tsfc245_Exner_00205200.png2011-07-25 15:18 19K 
[IMG]Dry_coolheatbalance_50kmx20km-Tsfc245_VelZ_00705600.png2011-07-25 19:26 19K 
[IMG]Dry_coolheatbalance_50kmx20km-Tsfc245_Exner_00025200.png2011-07-25 15:13 19K 
[IMG]Dry_coolheatbalance_50kmx20km-Tsfc245_VelX_00122400.png2011-07-25 15:16 19K 
[IMG]Dry_coolheatbalance_50kmx20km-Tsfc245_VelZ_00007200.png2011-07-25 15:13 19K 
[IMG]Dry_coolheatbalance_50kmx20km-Tsfc245_Exner_00194400.png2011-07-25 15:18 19K 
[IMG]Dry_coolheatbalance_50kmx20km-Tsfc245_VelX_00439200.png2011-07-25 19:19 19K 
[IMG]Dry_coolheatbalance_50kmx20km-Tsfc245_VelX_00655200.png2011-07-25 19:25 19K 
[IMG]Dry_coolheatbalance_50kmx20km-Tsfc245_VelX_00496800.png2011-07-25 19:20 19K 
[IMG]Dry_coolheatbalance_50kmx20km-Tsfc245_VelX_00205200.png2011-07-25 15:18 19K 
[IMG]Dry_coolheatbalance_50kmx20km-Tsfc245_VelX_00280800.png2011-07-25 15:20 19K 
[IMG]Dry_coolheatbalance_50kmx20km-Tsfc245_Exner_00187200.png2011-07-25 15:18 19K 
[IMG]Dry_coolheatbalance_50kmx20km-Tsfc245_VelX_00277200.png2011-07-25 15:20 19K 
[IMG]Dry_coolheatbalance_50kmx20km-Tsfc245_Exner_00133200.png2011-07-25 15:16 19K 
[IMG]Dry_coolheatbalance_50kmx20km-Tsfc245_VelX_00316800.png2011-07-25 15:21 19K 
[IMG]Dry_coolheatbalance_50kmx20km-Tsfc245_VelZ_00244800.png2011-07-25 15:19 19K 
[IMG]Dry_coolheatbalance_50kmx20km-Tsfc245_Exner_00223200.png2011-07-25 15:19 19K 
[IMG]Dry_coolheatbalance_50kmx20km-Tsfc245_VelX_00007200.png2011-07-25 15:13 19K 
[IMG]Dry_coolheatbalance_50kmx20km-Tsfc245_VelX_00435600.png2011-07-25 19:19 19K 
[IMG]Dry_coolheatbalance_50kmx20km-Tsfc245_Exner_00176400.png2011-07-25 15:18 19K 
[IMG]Dry_coolheatbalance_50kmx20km-Tsfc245_VelX_00864000.png2011-07-25 19:30 19K 
[IMG]Dry_coolheatbalance_50kmx20km-Tsfc245_Exner_00198000.png2011-07-25 15:18 19K 
[IMG]Dry_coolheatbalance_50kmx20km-Tsfc245_Exner_00266400.png2011-07-25 15:20 19K 
[IMG]Dry_coolheatbalance_50kmx20km-Tsfc245_VelX_00403200.png2011-07-25 15:24 19K 
[IMG]Dry_coolheatbalance_50kmx20km-Tsfc245_VelX_00673200.png2011-07-25 19:25 19K 
[IMG]Dry_coolheatbalance_50kmx20km-Tsfc245_Exner_00244800.png2011-07-25 15:19 19K 
[IMG]Dry_coolheatbalance_50kmx20km-Tsfc245_Exner_00234000.png2011-07-25 15:19 19K 
[IMG]Dry_coolheatbalance_50kmx20km-Tsfc245_VelX_00194400.png2011-07-25 15:18 19K 
[IMG]Dry_coolheatbalance_50kmx20km-Tsfc245_VelX_00324000.png2011-07-25 15:22 19K 
[IMG]Dry_coolheatbalance_50kmx20km-Tsfc245_VelX_00356400.png2011-07-25 15:23 19K 
[IMG]Dry_coolheatbalance_50kmx20km-Tsfc245_Exner_00190800.png2011-07-25 15:18 19K 
[IMG]Dry_coolheatbalance_50kmx20km-Tsfc245_VelX_00414000.png2011-07-25 15:24 19K 
[IMG]Dry_coolheatbalance_50kmx20km-Tsfc245_Exner_00172800.png2011-07-25 15:17 19K 
[IMG]Dry_coolheatbalance_50kmx20km-Tsfc245_Exner_00226800.png2011-07-25 15:19 19K 
[IMG]Dry_coolheatbalance_50kmx20km-Tsfc245_Exner_00212400.png2011-07-25 15:19 19K 
[IMG]Dry_coolheatbalance_50kmx20km-Tsfc245_VelX_00126000.png2011-07-25 15:16 19K 
[IMG]Dry_coolheatbalance_50kmx20km-Tsfc245_VelX_00349200.png2011-07-25 15:22 19K 
[IMG]Dry_coolheatbalance_50kmx20km-Tsfc245_VelZ_00702000.png2011-07-25 19:26 19K 
[IMG]Dry_coolheatbalance_50kmx20km-Tsfc245_VelX_00684000.png2011-07-25 19:25 19K 
[IMG]Dry_coolheatbalance_50kmx20km-Tsfc245_VelX_00169200.png2011-07-25 15:17 19K 
[IMG]Dry_coolheatbalance_50kmx20km-Tsfc245_Exner_00183600.png2011-07-25 15:18 19K 
[IMG]Dry_coolheatbalance_50kmx20km-Tsfc245_VelX_00320400.png2011-07-25 15:22 19K 
[IMG]Dry_coolheatbalance_50kmx20km-Tsfc245_VelX_00291600.png2011-07-25 15:21 19K 
[IMG]Dry_coolheatbalance_50kmx20km-Tsfc245_VelX_00010800.png2011-07-25 15:13 19K 
[IMG]Dry_coolheatbalance_50kmx20km-Tsfc245_VelX_00226800.png2011-07-25 15:19 19K 
[IMG]Dry_coolheatbalance_50kmx20km-Tsfc245_VelX_00309600.png2011-07-25 15:21 19K 
[IMG]Dry_coolheatbalance_50kmx20km-Tsfc245_VelX_00136800.png2011-07-25 15:16 19K 
[IMG]Dry_coolheatbalance_50kmx20km-Tsfc245_Exner_00252000.png2011-07-25 15:20 19K 
[IMG]Dry_coolheatbalance_50kmx20km-Tsfc245_VelX_00406800.png2011-07-25 15:24 19K 
[IMG]Dry_coolheatbalance_50kmx20km-Tsfc245_VelX_00432000.png2011-07-25 19:18 19K 
[IMG]Dry_coolheatbalance_50kmx20km-Tsfc245_VelX_00666000.png2011-07-25 19:25 19K 
[IMG]Dry_coolheatbalance_50kmx20km-Tsfc245_VelX_00788400.png2011-07-25 19:28 19K 
[IMG]Dry_coolheatbalance_50kmx20km-Tsfc245_VelX_00208800.png2011-07-25 15:18 19K 
[IMG]Dry_coolheatbalance_50kmx20km-Tsfc245_VelX_00295200.png2011-07-25 15:21 19K 
[IMG]Dry_coolheatbalance_50kmx20km-Tsfc245_VelX_00313200.png2011-07-25 15:21 19K 
[IMG]Dry_coolheatbalance_50kmx20km-Tsfc245_VelX_00554400.png2011-07-25 19:22 19K 
[IMG]Dry_coolheatbalance_50kmx20km-Tsfc245_VelX_00669600.png2011-07-25 19:25 19K 
[IMG]Dry_coolheatbalance_50kmx20km-Tsfc245_VelZ_00172800.png2011-07-25 15:17 19K 
[IMG]Dry_coolheatbalance_50kmx20km-Tsfc245_VelX_00298800.png2011-07-25 15:21 20K 
[IMG]Dry_coolheatbalance_50kmx20km-Tsfc245_VelX_00846000.png2011-07-25 19:30 20K 
[IMG]Dry_coolheatbalance_50kmx20km-Tsfc245_Exner_00165600.png2011-07-25 15:17 20K 
[IMG]Dry_coolheatbalance_50kmx20km-Tsfc245_VelX_00586800.png2011-07-25 19:23 20K 
[IMG]Dry_coolheatbalance_50kmx20km-Tsfc245_VelX_00849600.png2011-07-25 19:30 20K 
[IMG]Dry_coolheatbalance_50kmx20km-Tsfc245_VelX_00234000.png2011-07-25 15:19 20K 
[IMG]Dry_coolheatbalance_50kmx20km-Tsfc245_VelX_00338400.png2011-07-25 15:22 20K 
[IMG]Dry_coolheatbalance_50kmx20km-Tsfc245_Exner_00237600.png2011-07-25 15:19 20K 
[IMG]Dry_coolheatbalance_50kmx20km-Tsfc245_VelX_00428400.png2011-07-25 15:25 20K 
[IMG]Dry_coolheatbalance_50kmx20km-Tsfc245_VelX_00216000.png2011-07-25 15:19 20K 
[IMG]Dry_coolheatbalance_50kmx20km-Tsfc245_VelX_00831600.png2011-07-25 19:29 20K 
[IMG]Dry_coolheatbalance_50kmx20km-Tsfc245_Exner_00021600.png2011-07-25 15:13 20K 
[IMG]Dry_coolheatbalance_50kmx20km-Tsfc245_VelX_00381600.png2011-07-25 15:23 20K 
[IMG]Dry_coolheatbalance_50kmx20km-Tsfc245_VelZ_00205200.png2011-07-25 15:18 20K 
[IMG]Dry_coolheatbalance_50kmx20km-Tsfc245_VelX_00838800.png2011-07-25 19:30 20K 
[IMG]Dry_coolheatbalance_50kmx20km-Tsfc245_VelZ_00558000.png2011-07-25 19:22 20K 
[IMG]Dry_coolheatbalance_50kmx20km-Tsfc245_Exner_00216000.png2011-07-25 15:19 20K 
[IMG]Dry_coolheatbalance_50kmx20km-Tsfc245_VelZ_00356400.png2011-07-25 15:23 20K 
[IMG]Dry_coolheatbalance_50kmx20km-Tsfc245_VelX_00507600.png2011-07-25 19:21 20K 
[IMG]Dry_coolheatbalance_50kmx20km-Tsfc245_VelX_00190800.png2011-07-25 15:18 20K 
[IMG]Dry_coolheatbalance_50kmx20km-Tsfc245_VelX_00658800.png2011-07-25 19:25 20K 
[IMG]Dry_coolheatbalance_50kmx20km-Tsfc245_VelX_00097200.png2011-07-25 15:15 20K 
[IMG]Dry_coolheatbalance_50kmx20km-Tsfc245_VelX_00676800.png2011-07-25 19:25 20K 
[IMG]Dry_coolheatbalance_50kmx20km-Tsfc245_Exner_00248400.png2011-07-25 15:20 20K 
[IMG]Dry_coolheatbalance_50kmx20km-Tsfc245_VelX_00442800.png2011-07-25 19:19 20K 
[IMG]Dry_coolheatbalance_50kmx20km-Tsfc245_VelX_00302400.png2011-07-25 15:21 20K 
[IMG]Dry_coolheatbalance_50kmx20km-Tsfc245_VelX_00118800.png2011-07-25 15:16 20K 
[IMG]Dry_coolheatbalance_50kmx20km-Tsfc245_VelX_00230400.png2011-07-25 15:19 20K 
[IMG]Dry_coolheatbalance_50kmx20km-Tsfc245_VelX_00835200.png2011-07-25 19:30 20K 
[IMG]Dry_coolheatbalance_50kmx20km-Tsfc245_VelX_00014400.png2011-07-25 15:13 20K 
[IMG]Dry_coolheatbalance_50kmx20km-Tsfc245_VelZ_00428400.png2011-07-25 15:25 20K 
[IMG]Dry_coolheatbalance_50kmx20km-Tsfc245_VelX_00237600.png2011-07-25 15:19 20K 
[IMG]Dry_coolheatbalance_50kmx20km-Tsfc245_VelX_00410400.png2011-07-25 15:24 20K 
[IMG]Dry_coolheatbalance_50kmx20km-Tsfc245_VelX_00730800.png2011-07-25 19:27 20K 
[IMG]Dry_coolheatbalance_50kmx20km-Tsfc245_VelX_00018000.png2011-07-25 15:13 20K 
[IMG]Dry_coolheatbalance_50kmx20km-Tsfc245_VelX_00421200.png2011-07-25 15:24 20K 
[IMG]Dry_coolheatbalance_50kmx20km-Tsfc245_VelX_00072000.png2011-07-25 15:15 20K 
[IMG]Dry_coolheatbalance_50kmx20km-Tsfc245_VelX_00478800.png2011-07-25 19:20 20K 
[IMG]Dry_coolheatbalance_50kmx20km-Tsfc245_VelX_00270000.png2011-07-25 15:20 20K 
[IMG]Dry_coolheatbalance_50kmx20km-Tsfc245_VelZ_00403200.png2011-07-25 15:24 20K 
[IMG]Dry_coolheatbalance_50kmx20km-Tsfc245_VelX_00856800.png2011-07-25 19:30 20K 
[IMG]Dry_coolheatbalance_50kmx20km-Tsfc245_VelZ_00442800.png2011-07-25 19:19 20K 
[IMG]Dry_coolheatbalance_50kmx20km-Tsfc245_VelX_00820800.png2011-07-25 19:29 20K 
[IMG]Dry_coolheatbalance_50kmx20km-Tsfc245_VelZ_00298800.png2011-07-25 15:21 20K 
[IMG]Dry_coolheatbalance_50kmx20km-Tsfc245_Exner_00180000.png2011-07-25 15:18 20K 
[IMG]Dry_coolheatbalance_50kmx20km-Tsfc245_VelX_00244800.png2011-07-25 15:19 20K 
[IMG]Dry_coolheatbalance_50kmx20km-Tsfc245_VelX_00144000.png2011-07-25 15:17 20K 
[IMG]Dry_coolheatbalance_50kmx20km-Tsfc245_VelX_00817200.png2011-07-25 19:29 20K 
[IMG]Dry_coolheatbalance_50kmx20km-Tsfc245_VelX_00212400.png2011-07-25 15:19 20K 
[IMG]Dry_coolheatbalance_50kmx20km-Tsfc245_VelX_00417600.png2011-07-25 15:24 20K 
[IMG]Dry_coolheatbalance_50kmx20km-Tsfc245_VelX_00709200.png2011-07-25 19:26 20K 
[IMG]Dry_coolheatbalance_50kmx20km-Tsfc245_VelZ_00212400.png2011-07-25 15:19 20K 
[IMG]Dry_coolheatbalance_50kmx20km-Tsfc245_VelZ_00320400.png2011-07-25 15:22 20K 
[IMG]Dry_coolheatbalance_50kmx20km-Tsfc245_VelX_00853200.png2011-07-25 19:30 20K 
[IMG]Dry_coolheatbalance_50kmx20km-Tsfc245_VelX_00284400.png2011-07-25 15:21 20K 
[IMG]Dry_coolheatbalance_50kmx20km-Tsfc245_VelX_00248400.png2011-07-25 15:20 20K 
[IMG]Dry_coolheatbalance_50kmx20km-Tsfc245_VelX_00345600.png2011-07-25 15:22 20K 
[IMG]Dry_coolheatbalance_50kmx20km-Tsfc245_VelX_00115200.png2011-07-25 15:16 20K 
[IMG]Dry_coolheatbalance_50kmx20km-Tsfc245_VelX_00147600.png2011-07-25 15:17 20K 
[IMG]Dry_coolheatbalance_50kmx20km-Tsfc245_VelZ_00370800.png2011-07-25 15:23 20K 
[IMG]Dry_coolheatbalance_50kmx20km-Tsfc245_VelZ_00208800.png2011-07-25 15:18 20K 
[IMG]Dry_coolheatbalance_50kmx20km-Tsfc245_VelX_00475200.png2011-07-25 19:20 20K 
[IMG]Dry_coolheatbalance_50kmx20km-Tsfc245_VelX_00262800.png2011-07-25 15:20 20K 
[IMG]Dry_coolheatbalance_50kmx20km-Tsfc245_Exner_00270000.png2011-07-25 15:20 20K 
[IMG]Dry_coolheatbalance_50kmx20km-Tsfc245_VelX_00082800.png2011-07-25 15:15 20K 
[IMG]Dry_coolheatbalance_50kmx20km-Tsfc245_VelX_00810000.png2011-07-25 19:29 20K 
[IMG]Dry_coolheatbalance_50kmx20km-Tsfc245_Exner_00284400.png2011-07-25 15:21 20K 
[IMG]Dry_coolheatbalance_50kmx20km-Tsfc245_VelX_00745200.png2011-07-25 19:27 20K 
[IMG]Dry_coolheatbalance_50kmx20km-Tsfc245_VelZ_00324000.png2011-07-25 15:22 20K 
[IMG]Dry_coolheatbalance_50kmx20km-Tsfc245_VelX_00370800.png2011-07-25 15:23 20K 
[IMG]Dry_coolheatbalance_50kmx20km-Tsfc245_VelZ_00554400.png2011-07-25 19:22 20K 
[IMG]Dry_coolheatbalance_50kmx20km-Tsfc245_VelX_00165600.png2011-07-25 15:17 20K 
[IMG]Dry_coolheatbalance_50kmx20km-Tsfc245_VelX_00327600.png2011-07-25 15:22 20K 
[IMG]Dry_coolheatbalance_50kmx20km-Tsfc245_VelX_00259200.png2011-07-25 15:20 20K 
[IMG]Dry_coolheatbalance_50kmx20km-Tsfc245_VelX_00612000.png2011-07-25 19:23 20K 
[IMG]Dry_coolheatbalance_50kmx20km-Tsfc245_VelX_00198000.png2011-07-25 15:18 20K 
[IMG]Dry_coolheatbalance_50kmx20km-Tsfc245_VelZ_00316800.png2011-07-25 15:21 20K 
[IMG]Dry_coolheatbalance_50kmx20km-Tsfc245_VelX_00352800.png2011-07-25 15:22 20K 
[IMG]Dry_coolheatbalance_50kmx20km-Tsfc245_VelX_00770400.png2011-07-25 19:28 20K 
[IMG]Dry_coolheatbalance_50kmx20km-Tsfc245_VelX_00471600.png2011-07-25 19:20 20K 
[IMG]Dry_coolheatbalance_50kmx20km-Tsfc245_VelZ_00349200.png2011-07-25 15:22 20K 
[IMG]Dry_coolheatbalance_50kmx20km-Tsfc245_VelX_00705600.png2011-07-25 19:26 20K 
[IMG]Dry_coolheatbalance_50kmx20km-Tsfc245_VelX_00748800.png2011-07-25 19:27 20K 
[IMG]Dry_coolheatbalance_50kmx20km-Tsfc245_VelX_00154800.png2011-07-25 15:17 20K 
[IMG]Dry_coolheatbalance_50kmx20km-Tsfc245_VelX_00396000.png2011-07-25 15:24 20K 
[IMG]Dry_coolheatbalance_50kmx20km-Tsfc245_VelX_00025200.png2011-07-25 15:13 20K 
[IMG]Dry_coolheatbalance_50kmx20km-Tsfc245_VelX_00201600.png2011-07-25 15:18 20K 
[IMG]Dry_coolheatbalance_50kmx20km-Tsfc245_VelZ_00288000.png2011-07-25 15:21 20K 
[IMG]Dry_coolheatbalance_50kmx20km-Tsfc245_VelX_00288000.png2011-07-25 15:21 20K 
[IMG]Dry_coolheatbalance_50kmx20km-Tsfc245_VelX_00093600.png2011-07-25 15:15 20K 
[IMG]Dry_coolheatbalance_50kmx20km-Tsfc245_VelX_00129600.png2011-07-25 15:16 20K 
[IMG]Dry_coolheatbalance_50kmx20km-Tsfc245_VelX_00360000.png2011-07-25 15:23 20K 
[IMG]Dry_coolheatbalance_50kmx20km-Tsfc245_VelZ_00122400.png2011-07-25 15:16 20K 
[IMG]Dry_coolheatbalance_50kmx20km-Tsfc245_VelX_00367200.png2011-07-25 15:23 20K 
[IMG]Dry_coolheatbalance_50kmx20km-Tsfc245_VelZ_00129600.png2011-07-25 15:16 20K 
[IMG]Dry_coolheatbalance_50kmx20km-Tsfc245_VelZ_00410400.png2011-07-25 15:24 20K 
[IMG]Dry_coolheatbalance_50kmx20km-Tsfc245_VelZ_00712800.png2011-07-25 19:26 20K 
[IMG]Dry_coolheatbalance_50kmx20km-Tsfc245_VelZ_00334800.png2011-07-25 15:22 20K 
[IMG]Dry_coolheatbalance_50kmx20km-Tsfc245_VelX_00180000.png2011-07-25 15:18 20K 
[IMG]Dry_coolheatbalance_50kmx20km-Tsfc245_Exner_00007200.png2011-07-25 15:13 20K 
[IMG]Dry_coolheatbalance_50kmx20km-Tsfc245_VelX_00050400.png2011-07-25 15:14 20K 
[IMG]Dry_coolheatbalance_50kmx20km-Tsfc245_VelX_00532800.png2011-07-25 19:21 20K 
[IMG]Dry_coolheatbalance_50kmx20km-Tsfc245_VelX_00698400.png2011-07-25 19:26 20K 
[IMG]Dry_coolheatbalance_50kmx20km-Tsfc245_VelX_00392400.png2011-07-25 15:24 20K 
[IMG]Dry_coolheatbalance_50kmx20km-Tsfc245_VelX_00162000.png2011-07-25 15:17 20K 
[IMG]Dry_coolheatbalance_50kmx20km-Tsfc245_VelX_00619200.png2011-07-25 19:24 20K 
[IMG]Dry_coolheatbalance_50kmx20km-Tsfc245_VelX_00651600.png2011-07-25 19:24 20K 
[IMG]Dry_coolheatbalance_50kmx20km-Tsfc245_VelZ_00414000.png2011-07-25 15:24 20K 
[IMG]Dry_coolheatbalance_50kmx20km-Tsfc245_VelX_00446400.png2011-07-25 19:19 20K 
[IMG]Dry_coolheatbalance_50kmx20km-Tsfc245_VelX_00680400.png2011-07-25 19:25 20K 
[IMG]Dry_coolheatbalance_50kmx20km-Tsfc245_VelX_00781200.png2011-07-25 19:28 20K 
[IMG]Dry_coolheatbalance_50kmx20km-Tsfc245_VelX_00561600.png2011-07-25 19:22 20K 
[IMG]Dry_coolheatbalance_50kmx20km-Tsfc245_VelX_00158400.png2011-07-25 15:17 20K 
[IMG]Dry_coolheatbalance_50kmx20km-Tsfc245_VelZ_00518400.png2011-07-25 19:21 20K 
[IMG]Dry_coolheatbalance_50kmx20km-Tsfc245_VelX_00223200.png2011-07-25 15:19 20K 
[IMG]Dry_coolheatbalance_50kmx20km-Tsfc245_VelX_00486000.png2011-07-25 19:20 20K 
[IMG]Dry_coolheatbalance_50kmx20km-Tsfc245_VelZ_00280800.png2011-07-25 15:20 20K 
[IMG]Dry_coolheatbalance_50kmx20km-Tsfc245_VelX_00608400.png2011-07-25 19:23 20K 
[IMG]Dry_coolheatbalance_50kmx20km-Tsfc245_VelZ_00565200.png2011-07-25 19:22 20K 
[IMG]Dry_coolheatbalance_50kmx20km-Tsfc245_VelX_00565200.png2011-07-25 19:22 20K 
[IMG]Dry_coolheatbalance_50kmx20km-Tsfc245_VelZ_00630000.png2011-07-25 19:24 20K 
[IMG]Dry_coolheatbalance_50kmx20km-Tsfc245_VelX_00529200.png2011-07-25 19:21 20K 
[IMG]Dry_coolheatbalance_50kmx20km-Tsfc245_VelX_00090000.png2011-07-25 15:15 20K 
[IMG]Dry_coolheatbalance_50kmx20km-Tsfc245_VelZ_00457200.png2011-07-25 19:19 20K 
[IMG]Dry_coolheatbalance_50kmx20km-Tsfc245_VelZ_00194400.png2011-07-25 15:18 20K 
[IMG]Dry_coolheatbalance_50kmx20km-Tsfc245_VelZ_00367200.png2011-07-25 15:23 20K 
[IMG]Dry_coolheatbalance_50kmx20km-Tsfc245_VelX_00255600.png2011-07-25 15:20 20K 
[IMG]Dry_coolheatbalance_50kmx20km-Tsfc245_VelX_00036000.png2011-07-25 15:14 20K 
[IMG]Dry_coolheatbalance_50kmx20km-Tsfc245_VelZ_00716400.png2011-07-25 19:26 20K 
[IMG]Dry_coolheatbalance_50kmx20km-Tsfc245_VelX_00583200.png2011-07-25 19:23 20K 
[IMG]Dry_coolheatbalance_50kmx20km-Tsfc245_VelZ_00216000.png2011-07-25 15:19 20K 
[IMG]Dry_coolheatbalance_50kmx20km-Tsfc245_VelX_00813600.png2011-07-25 19:29 20K 
[IMG]Dry_coolheatbalance_50kmx20km-Tsfc245_VelZ_00111600.png2011-07-25 15:16 20K 
[IMG]Dry_coolheatbalance_50kmx20km-Tsfc245_VelX_00219600.png2011-07-25 15:19 20K 
[IMG]Dry_coolheatbalance_50kmx20km-Tsfc245_Exner_00273600.png2011-07-25 15:20 20K 
[IMG]Dry_coolheatbalance_50kmx20km-Tsfc245_VelZ_00284400.png2011-07-25 15:21 20K 
[IMG]Dry_coolheatbalance_50kmx20km-Tsfc245_VelX_00331200.png2011-07-25 15:22 20K 
[IMG]Dry_coolheatbalance_50kmx20km-Tsfc245_VelX_00558000.png2011-07-25 19:22 20K 
[IMG]Dry_coolheatbalance_50kmx20km-Tsfc245_VelX_00021600.png2011-07-25 15:13 20K 
[IMG]Dry_coolheatbalance_50kmx20km-Tsfc245_VelX_00399600.png2011-07-25 15:24 20K 
[IMG]Dry_coolheatbalance_50kmx20km-Tsfc245_VelX_00514800.png2011-07-25 19:21 20K 
[IMG]Dry_coolheatbalance_50kmx20km-Tsfc245_VelX_00792000.png2011-07-25 19:28 20K 
[IMG]Dry_coolheatbalance_50kmx20km-Tsfc245_Exner_00219600.png2011-07-25 15:19 20K 
[IMG]Dry_coolheatbalance_50kmx20km-Tsfc245_VelZ_00309600.png2011-07-25 15:21 20K 
[IMG]Dry_coolheatbalance_50kmx20km-Tsfc245_VelZ_00248400.png2011-07-25 15:20 20K 
[IMG]Dry_coolheatbalance_50kmx20km-Tsfc245_VelX_00453600.png2011-07-25 19:19 20K 
[IMG]Dry_coolheatbalance_50kmx20km-Tsfc245_VelX_00662400.png2011-07-25 19:25 20K 
[IMG]Dry_coolheatbalance_50kmx20km-Tsfc245_VelX_00525600.png2011-07-25 19:21 20K 
[IMG]Dry_coolheatbalance_50kmx20km-Tsfc245_VelZ_00432000.png2011-07-25 19:18 20K 
[IMG]Dry_coolheatbalance_50kmx20km-Tsfc245_VelZ_00392400.png2011-07-25 15:24 20K 
[IMG]Dry_coolheatbalance_50kmx20km-Tsfc245_VelX_00054000.png2011-07-25 15:14 20K 
[IMG]Dry_coolheatbalance_50kmx20km-Tsfc245_VelZ_00561600.png2011-07-25 19:22 20K 
[IMG]Dry_coolheatbalance_50kmx20km-Tsfc245_VelZ_00835200.png2011-07-25 19:30 20K 
[IMG]Dry_coolheatbalance_50kmx20km-Tsfc245_VelX_00252000.png2011-07-25 15:20 20K 
[IMG]Dry_coolheatbalance_50kmx20km-Tsfc245_VelX_00140400.png2011-07-25 15:17 20K 
[IMG]Dry_coolheatbalance_50kmx20km-Tsfc245_VelZ_00176400.png2011-07-25 15:18 20K 
[IMG]Dry_coolheatbalance_50kmx20km-Tsfc245_VelX_00824400.png2011-07-25 19:29 20K 
[IMG]Dry_coolheatbalance_50kmx20km-Tsfc245_VelX_00104400.png2011-07-25 15:16 20K 
[IMG]Dry_coolheatbalance_50kmx20km-Tsfc245_VelX_00518400.png2011-07-25 19:21 20K 
[IMG]Dry_coolheatbalance_50kmx20km-Tsfc245_VelX_00543600.png2011-07-25 19:22 20K 
[IMG]Dry_coolheatbalance_50kmx20km-Tsfc245_VelZ_00514800.png2011-07-25 19:21 20K 
[IMG]Dry_coolheatbalance_50kmx20km-Tsfc245_VelZ_00522000.png2011-07-25 19:21 20K 
[IMG]Dry_coolheatbalance_50kmx20km-Tsfc245_VelZ_00594000.png2011-07-25 19:23 20K 
[IMG]Dry_coolheatbalance_50kmx20km-Tsfc245_VelX_00694800.png2011-07-25 19:26 20K 
[IMG]Dry_coolheatbalance_50kmx20km-Tsfc245_VelX_00151200.png2011-07-25 15:17 20K 
[IMG]Dry_coolheatbalance_50kmx20km-Tsfc245_VelX_00493200.png2011-07-25 19:20 20K 
[IMG]Dry_coolheatbalance_50kmx20km-Tsfc245_VelZ_00313200.png2011-07-25 15:21 20K 
[IMG]Dry_coolheatbalance_50kmx20km-Tsfc245_VelX_00183600.png2011-07-25 15:18 20K 
[IMG]Dry_coolheatbalance_50kmx20km-Tsfc245_VelX_00075600.png2011-07-25 15:15 20K 
[IMG]Dry_coolheatbalance_50kmx20km-Tsfc245_VelX_00457200.png2011-07-25 19:19 20K 
[IMG]Dry_coolheatbalance_50kmx20km-Tsfc245_VelX_00687600.png2011-07-25 19:25 20K 
[IMG]Dry_coolheatbalance_50kmx20km-Tsfc245_Exner_00230400.png2011-07-25 15:19 20K 
[IMG]Dry_coolheatbalance_50kmx20km-Tsfc245_VelZ_00226800.png2011-07-25 15:19 20K 
[IMG]Dry_coolheatbalance_50kmx20km-Tsfc245_VelX_00784800.png2011-07-25 19:28 20K 
[IMG]Dry_coolheatbalance_50kmx20km-Tsfc245_VelZ_00435600.png2011-07-25 19:19 20K 
[IMG]Dry_coolheatbalance_50kmx20km-Tsfc245_VelZ_00424800.png2011-07-25 15:24 20K 
[IMG]Dry_coolheatbalance_50kmx20km-Tsfc245_VelZ_00673200.png2011-07-25 19:25 20K 
[IMG]Dry_coolheatbalance_50kmx20km-Tsfc245_Exner_00280800.png2011-07-25 15:20 20K 
[IMG]Dry_coolheatbalance_50kmx20km-Tsfc245_VelX_00464400.png2011-07-25 19:19 20K 
[IMG]Dry_coolheatbalance_50kmx20km-Tsfc245_VelZ_00691200.png2011-07-25 19:26 20K 
[IMG]Dry_coolheatbalance_50kmx20km-Tsfc245_VelZ_00676800.png2011-07-25 19:25 20K 
[IMG]Dry_coolheatbalance_50kmx20km-Tsfc245_VelZ_00730800.png2011-07-25 19:27 20K 
[IMG]Dry_coolheatbalance_50kmx20km-Tsfc245_VelZ_00831600.png2011-07-25 19:29 20K 
[IMG]Dry_coolheatbalance_50kmx20km-Tsfc245_VelX_00068400.png2011-07-25 15:15 20K 
[IMG]Dry_coolheatbalance_50kmx20km-Tsfc245_VelZ_00590400.png2011-07-25 19:23 20K 
[IMG]Dry_coolheatbalance_50kmx20km-Tsfc245_VelX_00079200.png2011-07-25 15:15 20K 
[IMG]Dry_coolheatbalance_50kmx20km-Tsfc245_VelX_00702000.png2011-07-25 19:26 20K 
[IMG]Dry_coolheatbalance_50kmx20km-Tsfc245_VelZ_00684000.png2011-07-25 19:25 20K 
[IMG]Dry_coolheatbalance_50kmx20km-Tsfc245_VelZ_00136800.png2011-07-25 15:16 20K 
[IMG]Dry_coolheatbalance_50kmx20km-Tsfc245_VelX_00032400.png2011-07-25 15:14 20K 
[IMG]Dry_coolheatbalance_50kmx20km-Tsfc245_Exner_00262800.png2011-07-25 15:20 20K 
[IMG]Dry_coolheatbalance_50kmx20km-Tsfc245_VelX_00039600.png2011-07-25 15:14 20K 
[IMG]Dry_coolheatbalance_50kmx20km-Tsfc245_VelX_00637200.png2011-07-25 19:24 20K 
[IMG]Dry_coolheatbalance_50kmx20km-Tsfc245_VelZ_00824400.png2011-07-25 19:29 20K 
[IMG]Dry_coolheatbalance_50kmx20km-Tsfc245_VelX_00597600.png2011-07-25 19:23 20K 
[IMG]Dry_coolheatbalance_50kmx20km-Tsfc245_VelX_00842400.png2011-07-25 19:30 20K 
[IMG]Dry_coolheatbalance_50kmx20km-Tsfc245_VelZ_00475200.png2011-07-25 19:20 20K 
[IMG]Dry_coolheatbalance_50kmx20km-Tsfc245_VelX_00799200.png2011-07-25 19:29 20K 
[IMG]Dry_coolheatbalance_50kmx20km-Tsfc245_VelZ_00694800.png2011-07-25 19:26 20K 
[IMG]Dry_coolheatbalance_50kmx20km-Tsfc245_VelZ_00856800.png2011-07-25 19:30 20K 
[IMG]Dry_coolheatbalance_50kmx20km-Tsfc245_VelX_00133200.png2011-07-25 15:16 20K 
[IMG]Dry_coolheatbalance_50kmx20km-Tsfc245_VelZ_00406800.png2011-07-25 15:24 20K 
[IMG]Dry_coolheatbalance_50kmx20km-Tsfc245_Exner_00259200.png2011-07-25 15:20 20K 
[IMG]Dry_coolheatbalance_50kmx20km-Tsfc245_VelX_00738000.png2011-07-25 19:27 20K 
[IMG]Dry_coolheatbalance_50kmx20km-Tsfc245_VelZ_00363600.png2011-07-25 15:23 20K 
[IMG]Dry_coolheatbalance_50kmx20km-Tsfc245_VelX_00388800.png2011-07-25 15:23 20K 
[IMG]Dry_coolheatbalance_50kmx20km-Tsfc245_VelZ_00126000.png2011-07-25 15:16 20K 
[IMG]Dry_coolheatbalance_50kmx20km-Tsfc245_VelZ_00154800.png2011-07-25 15:17 20K 
[IMG]Dry_coolheatbalance_50kmx20km-Tsfc245_VelZ_00540000.png2011-07-25 19:21 20K 
[IMG]Dry_coolheatbalance_50kmx20km-Tsfc245_VelX_00306000.png2011-07-25 15:21 20K 
[IMG]Dry_coolheatbalance_50kmx20km-Tsfc245_VelX_00266400.png2011-07-25 15:20 20K 
[IMG]Dry_coolheatbalance_50kmx20km-Tsfc245_VelZ_00687600.png2011-07-25 19:25 20K 
[IMG]Dry_coolheatbalance_50kmx20km-Tsfc245_VelX_00374400.png2011-07-25 15:23 20K 
[IMG]Dry_coolheatbalance_50kmx20km-Tsfc245_VelX_00385200.png2011-07-25 15:23 20K 
[IMG]Dry_coolheatbalance_50kmx20km-Tsfc245_VelZ_00525600.png2011-07-25 19:21 20K 
[IMG]Dry_coolheatbalance_50kmx20km-Tsfc245_VelZ_00727200.png2011-07-25 19:27 20K 
[IMG]Dry_coolheatbalance_50kmx20km-Tsfc245_VelX_00172800.png2011-07-25 15:17 20K 
[IMG]Dry_coolheatbalance_50kmx20km-Tsfc245_VelX_00828000.png2011-07-25 19:29 20K 
[IMG]Dry_coolheatbalance_50kmx20km-Tsfc245_Exner_00241200.png2011-07-25 15:19 20K 
[IMG]Dry_coolheatbalance_50kmx20km-Tsfc245_VelX_00633600.png2011-07-25 19:24 20K 
[IMG]Dry_coolheatbalance_50kmx20km-Tsfc245_VelZ_00385200.png2011-07-25 15:23 20K 
[IMG]Dry_coolheatbalance_50kmx20km-Tsfc245_VelZ_00014400.png2011-07-25 15:13 20K 
[IMG]Dry_coolheatbalance_50kmx20km-Tsfc245_VelX_00648000.png2011-07-25 19:24 20K 
[IMG]Dry_coolheatbalance_50kmx20km-Tsfc245_VelZ_00864000.png2011-07-25 19:30 20K 
[IMG]Dry_coolheatbalance_50kmx20km-Tsfc245_VelZ_00622800.png2011-07-25 19:24 20K 
[IMG]Dry_coolheatbalance_50kmx20km-Tsfc245_VelZ_00662400.png2011-07-25 19:25 20K 
[IMG]Dry_coolheatbalance_50kmx20km-Tsfc245_VelZ_00612000.png2011-07-25 19:23 20K 
[IMG]Dry_coolheatbalance_50kmx20km-Tsfc245_VelZ_00784800.png2011-07-25 19:28 20K 
[IMG]Dry_coolheatbalance_50kmx20km-Tsfc245_VelZ_00169200.png2011-07-25 15:17 20K 
[IMG]Dry_coolheatbalance_50kmx20km-Tsfc245_VelZ_00190800.png2011-07-25 15:18 20K 
[IMG]Dry_coolheatbalance_50kmx20km-Tsfc245_VelX_00590400.png2011-07-25 19:23 20K 
[IMG]Dry_coolheatbalance_50kmx20km-Tsfc245_VelX_00176400.png2011-07-25 15:18 20K 
[IMG]Dry_coolheatbalance_50kmx20km-Tsfc245_VelZ_00338400.png2011-07-25 15:22 20K 
[IMG]Dry_coolheatbalance_50kmx20km-Tsfc245_VelX_00378000.png2011-07-25 15:23 20K 
[IMG]Dry_coolheatbalance_50kmx20km-Tsfc245_VelX_00712800.png2011-07-25 19:26 20K 
[IMG]Dry_coolheatbalance_50kmx20km-Tsfc245_VelX_00691200.png2011-07-25 19:26 20K 
[IMG]Dry_coolheatbalance_50kmx20km-Tsfc245_VelX_00777600.png2011-07-25 19:28 20K 
[IMG]Dry_coolheatbalance_50kmx20km-Tsfc245_VelZ_00626400.png2011-07-25 19:24 20K 
[IMG]Dry_coolheatbalance_50kmx20km-Tsfc245_VelZ_00230400.png2011-07-25 15:19 20K 
[IMG]Dry_coolheatbalance_50kmx20km-Tsfc245_VelZ_00417600.png2011-07-25 15:24 20K 
[IMG]Dry_coolheatbalance_50kmx20km-Tsfc245_VelX_00741600.png2011-07-25 19:27 20K 
[IMG]Dry_coolheatbalance_50kmx20km-Tsfc245_VelX_00766800.png2011-07-25 19:28 20K 
[IMG]Dry_coolheatbalance_50kmx20km-Tsfc245_VelZ_00666000.png2011-07-25 19:25 20K 
[IMG]Dry_coolheatbalance_50kmx20km-Tsfc245_VelZ_00360000.png2011-07-25 15:23 20K 
[IMG]Dry_coolheatbalance_50kmx20km-Tsfc245_VelZ_00543600.png2011-07-25 19:22 20K 
[IMG]Dry_coolheatbalance_50kmx20km-Tsfc245_VelX_00064800.png2011-07-25 15:14 20K 
[IMG]Dry_coolheatbalance_50kmx20km-Tsfc245_VelZ_00720000.png2011-07-25 19:26 20K 
[IMG]Dry_coolheatbalance_50kmx20km-Tsfc245_VelX_00734400.png2011-07-25 19:27 20K 
[IMG]Dry_coolheatbalance_50kmx20km-Tsfc245_VelX_00424800.png2011-07-25 15:24 20K 
[IMG]Dry_coolheatbalance_50kmx20km-Tsfc245_Exner_00334800.png2011-07-25 15:22 20K 
[IMG]Dry_coolheatbalance_50kmx20km-Tsfc245_VelZ_00658800.png2011-07-25 19:25 20K 
[IMG]Dry_coolheatbalance_50kmx20km-Tsfc245_VelX_00540000.png2011-07-25 19:21 20K 
[IMG]Dry_coolheatbalance_50kmx20km-Tsfc245_VelX_00086400.png2011-07-25 15:15 20K 
[IMG]Dry_coolheatbalance_50kmx20km-Tsfc245_VelZ_00460800.png2011-07-25 19:19 20K 
[IMG]Dry_coolheatbalance_50kmx20km-Tsfc245_VelZ_00219600.png2011-07-25 15:19 20K 
[IMG]Dry_coolheatbalance_50kmx20km-Tsfc245_VelX_00759600.png2011-07-25 19:27 20K 
[IMG]Dry_coolheatbalance_50kmx20km-Tsfc245_VelX_00550800.png2011-07-25 19:22 20K 
[IMG]Dry_coolheatbalance_50kmx20km-Tsfc245_VelZ_00183600.png2011-07-25 15:18 20K 
[IMG]Dry_coolheatbalance_50kmx20km-Tsfc245_VelZ_00619200.png2011-07-25 19:24 20K 
[IMG]Dry_coolheatbalance_50kmx20km-Tsfc245_VelZ_00201600.png2011-07-25 15:18 20K 
[IMG]Dry_coolheatbalance_50kmx20km-Tsfc245_VelX_00468000.png2011-07-25 19:19 20K 
[IMG]Dry_coolheatbalance_50kmx20km-Tsfc245_VelZ_00669600.png2011-07-25 19:25 20K 
[IMG]Dry_coolheatbalance_50kmx20km-Tsfc245_VelX_00802800.png2011-07-25 19:29 20K 
[IMG]Dry_coolheatbalance_50kmx20km-Tsfc245_VelZ_00237600.png2011-07-25 15:19 20K 
[IMG]Dry_coolheatbalance_50kmx20km-Tsfc245_VelX_00572400.png2011-07-25 19:22 20K 
[IMG]Dry_coolheatbalance_50kmx20km-Tsfc245_VelZ_00507600.png2011-07-25 19:21 20K 
[IMG]Dry_coolheatbalance_50kmx20km-Tsfc245_VelZ_00291600.png2011-07-25 15:21 20K 
[IMG]Dry_coolheatbalance_50kmx20km-Tsfc245_VelZ_00374400.png2011-07-25 15:23 20K 
[IMG]Dry_coolheatbalance_50kmx20km-Tsfc245_VelZ_00817200.png2011-07-25 19:29 20K 
[IMG]Dry_coolheatbalance_50kmx20km-Tsfc245_VelZ_00352800.png2011-07-25 15:22 20K 
[IMG]Dry_coolheatbalance_50kmx20km-Tsfc245_VelZ_00446400.png2011-07-25 19:19 20K 
[IMG]Dry_coolheatbalance_50kmx20km-Tsfc245_VelX_00723600.png2011-07-25 19:26 20K 
[IMG]Dry_coolheatbalance_50kmx20km-Tsfc245_VelX_00187200.png2011-07-25 15:18 20K 
[IMG]Dry_coolheatbalance_50kmx20km-Tsfc245_VelX_00594000.png2011-07-25 19:23 20K 
[IMG]Dry_coolheatbalance_50kmx20km-Tsfc245_VelX_00568800.png2011-07-25 19:22 20K 
[IMG]Dry_coolheatbalance_50kmx20km-Tsfc245_VelX_00522000.png2011-07-25 19:21 20K 
[IMG]Dry_coolheatbalance_50kmx20km-Tsfc245_VelX_00363600.png2011-07-25 15:23 20K 
[IMG]Dry_coolheatbalance_50kmx20km-Tsfc245_VelX_00640800.png2011-07-25 19:24 20K 
[IMG]Dry_coolheatbalance_50kmx20km-Tsfc245_VelZ_00604800.png2011-07-25 19:23 20K 
[IMG]Dry_coolheatbalance_50kmx20km-Tsfc245_VelX_00504000.png2011-07-25 19:20 20K 
[IMG]Dry_coolheatbalance_50kmx20km-Tsfc245_VelZ_00846000.png2011-07-25 19:30 20K 
[IMG]Dry_coolheatbalance_50kmx20km-Tsfc245_VelX_00511200.png2011-07-25 19:21 20K 
[IMG]Dry_coolheatbalance_50kmx20km-Tsfc245_VelZ_00302400.png2011-07-25 15:21 20K 
[IMG]Dry_coolheatbalance_50kmx20km-Tsfc245_VelZ_00162000.png2011-07-25 15:17 20K 
[IMG]Dry_coolheatbalance_50kmx20km-Tsfc245_VelX_00630000.png2011-07-25 19:24 20K 
[IMG]Dry_coolheatbalance_50kmx20km-Tsfc245_VelX_00342000.png2011-07-25 15:22 20K 
[IMG]Dry_coolheatbalance_50kmx20km-Tsfc245_VelZ_00597600.png2011-07-25 19:23 20K 
[IMG]Dry_coolheatbalance_50kmx20km-Tsfc245_VelX_00460800.png2011-07-25 19:19 20K 
[IMG]Dry_coolheatbalance_50kmx20km-Tsfc245_VelZ_00680400.png2011-07-25 19:25 20K 
[IMG]Dry_coolheatbalance_50kmx20km-Tsfc245_VelZ_00500400.png2011-07-25 19:20 20K 
[IMG]Dry_coolheatbalance_50kmx20km-Tsfc245_VelX_00108000.png2011-07-25 15:16 20K 
[IMG]Dry_coolheatbalance_50kmx20km-Tsfc245_VelZ_00738000.png2011-07-25 19:27 20K 
[IMG]Dry_coolheatbalance_50kmx20km-Tsfc245_VelZ_00396000.png2011-07-25 15:24 20K 
[IMG]Dry_coolheatbalance_50kmx20km-Tsfc245_VelZ_00165600.png2011-07-25 15:17 20K 
[IMG]Dry_coolheatbalance_50kmx20km-Tsfc245_VelX_00536400.png2011-07-25 19:21 20K 
[IMG]Dry_coolheatbalance_50kmx20km-Tsfc245_VelX_00057600.png2011-07-25 15:14 20K 
[IMG]Dry_coolheatbalance_50kmx20km-Tsfc245_VelZ_00788400.png2011-07-25 19:28 20K 
[IMG]Dry_coolheatbalance_50kmx20km-Tsfc245_VelZ_00655200.png2011-07-25 19:25 20K 
[IMG]Dry_coolheatbalance_50kmx20km-Tsfc245_VelZ_00734400.png2011-07-25 19:27 20K 
[IMG]Dry_coolheatbalance_50kmx20km-Tsfc245_VelZ_00050400.png2011-07-25 15:14 20K 
[IMG]Dry_coolheatbalance_50kmx20km-Tsfc245_VelZ_00748800.png2011-07-25 19:27 20K 
[IMG]Dry_coolheatbalance_50kmx20km-Tsfc245_VelX_00061200.png2011-07-25 15:14 20K 
[IMG]Dry_coolheatbalance_50kmx20km-Tsfc245_VelZ_00421200.png2011-07-25 15:24 20K 
[IMG]Dry_coolheatbalance_50kmx20km-Tsfc245_VelZ_00478800.png2011-07-25 19:20 20K 
[IMG]Dry_coolheatbalance_50kmx20km-Tsfc245_VelX_00756000.png2011-07-25 19:27 20K 
[IMG]Dry_coolheatbalance_50kmx20km-Tsfc245_VelZ_00180000.png2011-07-25 15:18 20K 
[IMG]Dry_coolheatbalance_50kmx20km-Tsfc245_VelZ_00273600.png2011-07-25 15:20 20K 
[IMG]Dry_coolheatbalance_50kmx20km-Tsfc245_VelZ_00633600.png2011-07-25 19:24 20K 
[IMG]Dry_coolheatbalance_50kmx20km-Tsfc245_VelZ_00774000.png2011-07-25 19:28 20K 
[IMG]Dry_coolheatbalance_50kmx20km-Tsfc245_VelZ_00295200.png2011-07-25 15:21 20K 
[IMG]Dry_coolheatbalance_50kmx20km-Tsfc245_VelX_00604800.png2011-07-25 19:23 20K 
[IMG]Dry_coolheatbalance_50kmx20km-Tsfc245_VelZ_00277200.png2011-07-25 15:20 20K 
[IMG]Dry_coolheatbalance_50kmx20km-Tsfc245_VelZ_00223200.png2011-07-25 15:19 20K 
[IMG]Dry_coolheatbalance_50kmx20km-Tsfc245_VelZ_00586800.png2011-07-25 19:23 20K 
[IMG]Dry_coolheatbalance_50kmx20km-Tsfc245_VelZ_00241200.png2011-07-25 15:19 20K 
[IMG]Dry_coolheatbalance_50kmx20km-Tsfc245_VelX_00752400.png2011-07-25 19:27 20K 
[IMG]Dry_coolheatbalance_50kmx20km-Tsfc245_VelZ_00723600.png2011-07-25 19:26 20K 
[IMG]Dry_coolheatbalance_50kmx20km-Tsfc245_VelZ_00381600.png2011-07-25 15:23 20K 
[IMG]Dry_coolheatbalance_50kmx20km-Tsfc245_VelX_00615600.png2011-07-25 19:23 20K 
[IMG]Dry_coolheatbalance_50kmx20km-Tsfc245_VelZ_00813600.png2011-07-25 19:29 20K 
[IMG]Dry_coolheatbalance_50kmx20km-Tsfc245_VelZ_00082800.png2011-07-25 15:15 20K 
[IMG]Dry_coolheatbalance_50kmx20km-Tsfc245_VelZ_00568800.png2011-07-25 19:22 20K 
[IMG]Dry_coolheatbalance_50kmx20km-Tsfc245_VelX_00626400.png2011-07-25 19:24 20K 
[IMG]Dry_coolheatbalance_50kmx20km-Tsfc245_VelZ_00234000.png2011-07-25 15:19 20K 
[IMG]Dry_coolheatbalance_50kmx20km-Tsfc245_VelX_00806400.png2011-07-25 19:29 20K 
[IMG]Dry_coolheatbalance_50kmx20km-Tsfc245_VelX_00482400.png2011-07-25 19:20 20K 
[IMG]Dry_coolheatbalance_50kmx20km-Tsfc245_VelZ_00327600.png2011-07-25 15:22 20K 
[IMG]Dry_coolheatbalance_50kmx20km-Tsfc245_VelX_00241200.png2011-07-25 15:19 20K 
[IMG]Dry_coolheatbalance_50kmx20km-Tsfc245_VelZ_00388800.png2011-07-25 15:23 20K 
[IMG]Dry_coolheatbalance_50kmx20km-Tsfc245_VelZ_00828000.png2011-07-25 19:29 20K 
[IMG]Dry_coolheatbalance_50kmx20km-Tsfc245_VelZ_00464400.png2011-07-25 19:19 20K 
[IMG]Dry_coolheatbalance_50kmx20km-Tsfc245_VelZ_00100800.png2011-07-25 15:15 20K 
[IMG]Dry_coolheatbalance_50kmx20km-Tsfc245_VelZ_00640800.png2011-07-25 19:24 20K 
[IMG]Dry_coolheatbalance_50kmx20km-Tsfc245_VelZ_00550800.png2011-07-25 19:22 21K 
[IMG]Dry_coolheatbalance_50kmx20km-Tsfc245_VelX_00579600.png2011-07-25 19:23 21K 
[IMG]Dry_coolheatbalance_50kmx20km-Tsfc245_VelX_00716400.png2011-07-25 19:26 21K 
[IMG]Dry_coolheatbalance_50kmx20km-Tsfc245_VelZ_00486000.png2011-07-25 19:20 21K 
[IMG]Dry_coolheatbalance_50kmx20km-Tsfc245_VelZ_00378000.png2011-07-25 15:23 21K 
[IMG]Dry_coolheatbalance_50kmx20km-Tsfc245_VelZ_00792000.png2011-07-25 19:28 21K 
[IMG]Dry_coolheatbalance_50kmx20km-Tsfc245_VelZ_00536400.png2011-07-25 19:21 21K 
[IMG]Dry_coolheatbalance_50kmx20km-Tsfc245_VelX_00450000.png2011-07-25 19:19 21K 
[IMG]Dry_coolheatbalance_50kmx20km-Tsfc245_VelX_00547200.png2011-07-25 19:22 21K 
[IMG]Dry_coolheatbalance_50kmx20km-Tsfc245_VelZ_00860400.png2011-07-25 19:30 21K 
[IMG]Dry_coolheatbalance_50kmx20km-Tsfc245_VelX_00576000.png2011-07-25 19:22 21K 
[IMG]Dry_coolheatbalance_50kmx20km-Tsfc245_VelZ_00741600.png2011-07-25 19:27 21K 
[IMG]Dry_coolheatbalance_50kmx20km-Tsfc245_VelZ_00849600.png2011-07-25 19:30 21K 
[IMG]Dry_coolheatbalance_50kmx20km-Tsfc245_Exner_00309600.png2011-07-25 15:21 21K 
[IMG]Dry_coolheatbalance_50kmx20km-Tsfc245_VelZ_00057600.png2011-07-25 15:14 21K 
[IMG]Dry_coolheatbalance_50kmx20km-Tsfc245_VelX_00046800.png2011-07-25 15:14 21K 
[IMG]Dry_coolheatbalance_50kmx20km-Tsfc245_VelX_00601200.png2011-07-25 19:23 21K 
[IMG]Dry_coolheatbalance_50kmx20km-Tsfc245_VelZ_00615600.png2011-07-25 19:24 21K 
[IMG]Dry_coolheatbalance_50kmx20km-Tsfc245_VelZ_00270000.png2011-07-25 15:20 21K 
[IMG]Dry_coolheatbalance_50kmx20km-Tsfc245_VelZ_00115200.png2011-07-25 15:16 21K 
[IMG]Dry_coolheatbalance_50kmx20km-Tsfc245_VelZ_00529200.png2011-07-25 19:21 21K 
[IMG]Dry_coolheatbalance_50kmx20km-Tsfc245_VelX_00774000.png2011-07-25 19:28 21K 
[IMG]Dry_coolheatbalance_50kmx20km-Tsfc245_VelZ_00651600.png2011-07-25 19:24 21K 
[IMG]Dry_coolheatbalance_50kmx20km-Tsfc245_Exner_00014400.png2011-07-25 15:13 21K 
[IMG]Dry_coolheatbalance_50kmx20km-Tsfc245_VelZ_00601200.png2011-07-25 19:23 21K 
[IMG]Dry_coolheatbalance_50kmx20km-Tsfc245_VelX_00489600.png2011-07-25 19:20 21K 
[IMG]Dry_coolheatbalance_50kmx20km-Tsfc245_VelZ_00511200.png2011-07-25 19:21 21K 
[IMG]Dry_coolheatbalance_50kmx20km-Tsfc245_VelZ_00608400.png2011-07-25 19:23 21K 
[IMG]Dry_coolheatbalance_50kmx20km-Tsfc245_VelZ_00399600.png2011-07-25 15:24 21K 
[IMG]Dry_coolheatbalance_50kmx20km-Tsfc245_VelZ_00198000.png2011-07-25 15:18 21K 
[IMG]Dry_coolheatbalance_50kmx20km-Tsfc245_VelZ_00151200.png2011-07-25 15:17 21K 
[IMG]Dry_coolheatbalance_50kmx20km-Tsfc245_VelZ_00799200.png2011-07-25 19:29 21K 
[IMG]Dry_coolheatbalance_50kmx20km-Tsfc245_VelZ_00637200.png2011-07-25 19:24 21K 
[IMG]Dry_coolheatbalance_50kmx20km-Tsfc245_VelZ_00547200.png2011-07-25 19:22 21K 
[IMG]Dry_coolheatbalance_50kmx20km-Tsfc245_VelZ_00262800.png2011-07-25 15:20 21K 
[IMG]Dry_coolheatbalance_50kmx20km-Tsfc245_Exner_00288000.png2011-07-25 15:21 21K 
[IMG]Dry_coolheatbalance_50kmx20km-Tsfc245_Exner_00435600.png2011-07-25 19:19 21K 
[IMG]Dry_coolheatbalance_50kmx20km-Tsfc245_VelZ_00745200.png2011-07-25 19:27 21K 
[IMG]Dry_coolheatbalance_50kmx20km-Tsfc245_VelZ_00648000.png2011-07-25 19:24 21K 
[IMG]Dry_coolheatbalance_50kmx20km-Tsfc245_VelZ_00345600.png2011-07-25 15:22 21K 
[IMG]Dry_coolheatbalance_50kmx20km-Tsfc245_VelZ_00853200.png2011-07-25 19:30 21K 
[IMG]Dry_coolheatbalance_50kmx20km-Tsfc245_VelZ_00777600.png2011-07-25 19:28 21K 
[IMG]Dry_coolheatbalance_50kmx20km-Tsfc245_Exner_00277200.png2011-07-25 15:20 21K 
[IMG]Dry_coolheatbalance_50kmx20km-Tsfc245_VelZ_00255600.png2011-07-25 15:20 21K 
[IMG]Dry_coolheatbalance_50kmx20km-Tsfc245_VelX_00720000.png2011-07-25 19:26 21K 
[IMG]Dry_coolheatbalance_50kmx20km-Tsfc245_VelZ_00147600.png2011-07-25 15:17 21K 
[IMG]Dry_coolheatbalance_50kmx20km-Tsfc245_VelZ_00079200.png2011-07-25 15:15 21K 
[IMG]Dry_coolheatbalance_50kmx20km-Tsfc245_VelZ_00086400.png2011-07-25 15:15 21K 
[IMG]Dry_coolheatbalance_50kmx20km-Tsfc245_VelZ_00342000.png2011-07-25 15:22 21K 
[IMG]Dry_coolheatbalance_50kmx20km-Tsfc245_VelX_00727200.png2011-07-25 19:27 21K 
[IMG]Dry_coolheatbalance_50kmx20km-Tsfc245_VelZ_00453600.png2011-07-25 19:19 21K 
[IMG]Dry_coolheatbalance_50kmx20km-Tsfc245_VelZ_00187200.png2011-07-25 15:18 21K 
[IMG]Dry_coolheatbalance_50kmx20km-Tsfc245_VelZ_00259200.png2011-07-25 15:20 21K 
[IMG]Dry_coolheatbalance_50kmx20km-Tsfc245_VelZ_00644400.png2011-07-25 19:24 21K 
[IMG]Dry_coolheatbalance_50kmx20km-Tsfc245_VelZ_00140400.png2011-07-25 15:17 21K 
[IMG]Dry_coolheatbalance_50kmx20km-Tsfc245_VelX_00043200.png2011-07-25 15:14 21K 
[IMG]Dry_coolheatbalance_50kmx20km-Tsfc245_Exner_00313200.png2011-07-25 15:21 21K 
[IMG]Dry_coolheatbalance_50kmx20km-Tsfc245_VelZ_00025200.png2011-07-25 15:13 21K 
[IMG]Dry_coolheatbalance_50kmx20km-Tsfc245_VelZ_00306000.png2011-07-25 15:21 21K 
[IMG]Dry_coolheatbalance_50kmx20km-Tsfc245_VelZ_00144000.png2011-07-25 15:17 21K 
[IMG]Dry_coolheatbalance_50kmx20km-Tsfc245_VelX_00500400.png2011-07-25 19:20 21K 
[IMG]Dry_coolheatbalance_50kmx20km-Tsfc245_VelZ_00579600.png2011-07-25 19:23 21K 
[IMG]Dry_coolheatbalance_50kmx20km-Tsfc245_VelX_00644400.png2011-07-25 19:24 21K 
[IMG]Dry_coolheatbalance_50kmx20km-Tsfc245_VelZ_00698400.png2011-07-25 19:26 21K 
[IMG]Dry_coolheatbalance_50kmx20km-Tsfc245_VelZ_00842400.png2011-07-25 19:30 21K 
[IMG]Dry_coolheatbalance_50kmx20km-Tsfc245_VelZ_00450000.png2011-07-25 19:19 21K 
[IMG]Dry_coolheatbalance_50kmx20km-Tsfc245_VelZ_00820800.png2011-07-25 19:29 21K 
[IMG]Dry_coolheatbalance_50kmx20km-Tsfc245_VelZ_00583200.png2011-07-25 19:23 21K 
[IMG]Dry_coolheatbalance_50kmx20km-Tsfc245_VelZ_00752400.png2011-07-25 19:27 21K 
[IMG]Dry_coolheatbalance_50kmx20km-Tsfc245_VelZ_00075600.png2011-07-25 15:15 21K 
[IMG]Dry_coolheatbalance_50kmx20km-Tsfc245_VelZ_00054000.png2011-07-25 15:14 21K 
[IMG]Dry_coolheatbalance_50kmx20km-Tsfc245_VelZ_00759600.png2011-07-25 19:27 21K 
[IMG]Dry_coolheatbalance_50kmx20km-Tsfc245_VelZ_00158400.png2011-07-25 15:17 21K 
[IMG]Dry_coolheatbalance_50kmx20km-Tsfc245_VelZ_00756000.png2011-07-25 19:27 21K 
[IMG]Dry_coolheatbalance_50kmx20km-Tsfc245_VelZ_00061200.png2011-07-25 15:14 21K 
[IMG]Dry_coolheatbalance_50kmx20km-Tsfc245_VelZ_00331200.png2011-07-25 15:22 21K 
[IMG]Dry_coolheatbalance_50kmx20km-Tsfc245_VelZ_00036000.png2011-07-25 15:14 21K 
[IMG]Dry_coolheatbalance_50kmx20km-Tsfc245_VelZ_00496800.png2011-07-25 19:20 21K 
[IMG]Dry_coolheatbalance_50kmx20km-Tsfc245_VelZ_00576000.png2011-07-25 19:22 21K 
[IMG]Dry_coolheatbalance_50kmx20km-Tsfc245_VelZ_00471600.png2011-07-25 19:20 21K 
[IMG]Dry_coolheatbalance_50kmx20km-Tsfc245_VelZ_00118800.png2011-07-25 15:16 21K 
[IMG]Dry_coolheatbalance_50kmx20km-Tsfc245_VelZ_00838800.png2011-07-25 19:30 21K 
[IMG]Dry_coolheatbalance_50kmx20km-Tsfc245_VelZ_00482400.png2011-07-25 19:20 21K 
[IMG]Dry_coolheatbalance_50kmx20km-Tsfc245_Exner_00349200.png2011-07-25 15:22 21K 
[IMG]Dry_coolheatbalance_50kmx20km-Tsfc245_VelZ_00039600.png2011-07-25 15:14 21K 
[IMG]Dry_coolheatbalance_50kmx20km-Tsfc245_VelZ_00093600.png2011-07-25 15:15 21K 
[IMG]Dry_coolheatbalance_50kmx20km-Tsfc245_VelZ_00064800.png2011-07-25 15:14 21K 
[IMG]Dry_coolheatbalance_50kmx20km-Tsfc245_VelX_00028800.png2011-07-25 15:13 21K 
[IMG]Dry_coolheatbalance_50kmx20km-Tsfc245_VelZ_00468000.png2011-07-25 19:19 21K 
[IMG]Dry_coolheatbalance_50kmx20km-Tsfc245_VelZ_00766800.png2011-07-25 19:28 21K 
[IMG]Dry_coolheatbalance_50kmx20km-Tsfc245_VelZ_00532800.png2011-07-25 19:21 21K 
[IMG]Dry_coolheatbalance_50kmx20km-Tsfc245_Exner_00396000.png2011-07-25 15:24 21K 
[IMG]Dry_coolheatbalance_50kmx20km-Tsfc245_VelZ_00572400.png2011-07-25 19:22 21K 
[IMG]Dry_coolheatbalance_50kmx20km-Tsfc245_VelZ_00770400.png2011-07-25 19:28 21K 
[IMG]Dry_coolheatbalance_50kmx20km-Tsfc245_Exner_00331200.png2011-07-25 15:22 21K 
[IMG]Dry_coolheatbalance_50kmx20km-Tsfc245_VelZ_00018000.png2011-07-25 15:13 21K 
[IMG]Dry_coolheatbalance_50kmx20km-Tsfc245_Exner_00010800.png2011-07-25 15:13 21K 
[IMG]Dry_coolheatbalance_50kmx20km-Tsfc245_VelZ_00108000.png2011-07-25 15:16 21K 
[IMG]Dry_coolheatbalance_50kmx20km-Tsfc245_VelZ_00046800.png2011-07-25 15:14 21K 
[IMG]Dry_coolheatbalance_50kmx20km-Tsfc245_VelX_00763200.png2011-07-25 19:28 21K 
[IMG]Dry_coolheatbalance_50kmx20km-Tsfc245_VelZ_00781200.png2011-07-25 19:28 21K 
[IMG]Dry_coolheatbalance_50kmx20km-Tsfc245_VelZ_00252000.png2011-07-25 15:20 21K 
[IMG]Dry_coolheatbalance_50kmx20km-Tsfc245_VelZ_00489600.png2011-07-25 19:20 21K 
[IMG]Dry_coolheatbalance_50kmx20km-Tsfc245_VelZ_00802800.png2011-07-25 19:29 21K 
[IMG]Dry_coolheatbalance_50kmx20km-Tsfc245_VelX_00622800.png2011-07-25 19:24 21K 
[IMG]Dry_coolheatbalance_50kmx20km-Tsfc245_VelZ_00028800.png2011-07-25 15:13 21K 
[IMG]Dry_coolheatbalance_50kmx20km-Tsfc245_VelZ_00097200.png2011-07-25 15:15 21K 
[IMG]Dry_coolheatbalance_50kmx20km-Tsfc245_VelZ_00021600.png2011-07-25 15:13 21K 
[IMG]Dry_coolheatbalance_50kmx20km-Tsfc245_Exner_00291600.png2011-07-25 15:21 21K 
[IMG]Dry_coolheatbalance_50kmx20km-Tsfc245_VelZ_00810000.png2011-07-25 19:29 21K 
[IMG]Dry_coolheatbalance_50kmx20km-Tsfc245_VelZ_00032400.png2011-07-25 15:14 21K 
[IMG]Dry_coolheatbalance_50kmx20km-Tsfc245_VelX_00795600.png2011-07-25 19:28 21K 
[IMG]Dry_coolheatbalance_50kmx20km-Tsfc245_VelZ_00795600.png2011-07-25 19:28 21K 
[IMG]Dry_coolheatbalance_50kmx20km-Tsfc245_Exner_00295200.png2011-07-25 15:21 21K 
[IMG]Dry_coolheatbalance_50kmx20km-Tsfc245_ExnerDev_00003600.png2011-07-25 15:13 21K 
[IMG]Dry_coolheatbalance_ExnerDev_00003600.png2011-07-25 15:13 21K 
[IMG]Dry_coolheatbalance_50kmx20km-Tsfc245_Exner_00342000.png2011-07-25 15:22 21K 
[IMG]Dry_coolheatbalance_50kmx20km-Tsfc245_VelZ_00806400.png2011-07-25 19:29 21K 
[IMG]Dry_coolheatbalance_50kmx20km-Tsfc245_VelZ_00504000.png2011-07-25 19:20 21K 
[IMG]Dry_coolheatbalance_50kmx20km-Tsfc245_Exner_00324000.png2011-07-25 15:22 21K 
[IMG]Dry_coolheatbalance_50kmx20km-Tsfc245_VelZ_00266400.png2011-07-25 15:20 21K 
[IMG]Dry_coolheatbalance_50kmx20km-Tsfc245_Exner_00475200.png2011-07-25 19:20 21K 
[IMG]Dry_coolheatbalance_50kmx20km-Tsfc245_VelZ_00763200.png2011-07-25 19:28 21K 
[IMG]Dry_coolheatbalance_50kmx20km-Tsfc245_Exner_00327600.png2011-07-25 15:22 21K 
[IMG]Dry_coolheatbalance_50kmx20km-Tsfc245_VelZ_00493200.png2011-07-25 19:20 21K 
[IMG]Dry_coolheatbalance_50kmx20km-Tsfc245_Exner_00392400.png2011-07-25 15:24 21K 
[IMG]Dry_coolheatbalance_50kmx20km-Tsfc245_VelZ_00104400.png2011-07-25 15:16 21K 
[IMG]Dry_coolheatbalance_50kmx20km-Tsfc245_VelZ_00010800.png2011-07-25 15:13 21K 
[IMG]Dry_coolheatbalance_50kmx20km-Tsfc245_VelZ_00043200.png2011-07-25 15:14 21K 
[IMG]Dry_coolheatbalance_50kmx20km-Tsfc245_Exner_00381600.png2011-07-25 15:23 21K 
[IMG]Dry_coolheatbalance_50kmx20km-Tsfc245_Exner_00338400.png2011-07-25 15:22 21K 
[IMG]Dry_coolheatbalance_50kmx20km-Tsfc245_Exner_00550800.png2011-07-25 19:22 21K 
[IMG]Dry_coolheatbalance_50kmx20km-Tsfc245_VelZ_00090000.png2011-07-25 15:15 21K 
[IMG]Dry_coolheatbalance_50kmx20km-Tsfc245_Exner_00367200.png2011-07-25 15:23 21K 
[IMG]Dry_coolheatbalance_50kmx20km-Tsfc245_Exner_00320400.png2011-07-25 15:22 21K 
[IMG]Dry_coolheatbalance_50kmx20km-Tsfc245_Exner_00306000.png2011-07-25 15:21 21K 
[IMG]Dry_coolheatbalance_50kmx20km-Tsfc245_Exner_00345600.png2011-07-25 15:22 21K 
[IMG]Dry_coolheatbalance_50kmx20km-Tsfc245_Exner_00439200.png2011-07-25 19:19 21K 
[IMG]Dry_coolheatbalance_50kmx20km-Tsfc245_Exner_00442800.png2011-07-25 19:19 21K 
[IMG]Dry_coolheatbalance_50kmx20km-Tsfc245_Exner_00432000.png2011-07-25 19:18 21K 
[IMG]Dry_coolheatbalance_50kmx20km-Tsfc245_Exner_00403200.png2011-07-25 15:24 21K 
[IMG]Dry_coolheatbalance_50kmx20km-Tsfc245_VelZ_00072000.png2011-07-25 15:15 22K 
[IMG]Dry_coolheatbalance_50kmx20km-Tsfc245_Exner_00540000.png2011-07-25 19:21 22K 
[IMG]Dry_coolheatbalance_50kmx20km-Tsfc245_VelZ_00068400.png2011-07-25 15:15 22K 
[IMG]Dry_coolheatbalance_50kmx20km-Tsfc245_Exner_00302400.png2011-07-25 15:21 22K 
[IMG]Dry_coolheatbalance_50kmx20km-Tsfc245_Exner_00356400.png2011-07-25 15:23 22K 
[IMG]Dry_coolheatbalance_50kmx20km-Tsfc245_Exner_00554400.png2011-07-25 19:22 22K 
[IMG]Dry_coolheatbalance_50kmx20km-Tsfc245_Exner_00558000.png2011-07-25 19:22 22K 
[IMG]Dry_coolheatbalance_50kmx20km-Tsfc245_Exner_00543600.png2011-07-25 19:21 22K 
[IMG]Dry_coolheatbalance_50kmx20km-Tsfc245_VelZ_00133200.png2011-07-25 15:16 22K 
[IMG]Dry_coolheatbalance_50kmx20km-Tsfc245_Exner_00622800.png2011-07-25 19:24 22K 
[IMG]Dry_coolheatbalance_50kmx20km-Tsfc245_Exner_00352800.png2011-07-25 15:22 22K 
[IMG]Dry_coolheatbalance_50kmx20km-Tsfc245_Exner_00565200.png2011-07-25 19:22 22K 
[IMG]Dry_coolheatbalance_50kmx20km-Tsfc245_Exner_00298800.png2011-07-25 15:21 22K 
[IMG]Dry_coolheatbalance_50kmx20km-Tsfc245_Exner_00518400.png2011-07-25 19:21 22K 
[IMG]Dry_coolheatbalance_50kmx20km-Tsfc245_Exner_00316800.png2011-07-25 15:21 22K 
[IMG]Dry_coolheatbalance_50kmx20km-Tsfc245_Exner_00705600.png2011-07-25 19:26 22K 
[IMG]Dry_coolheatbalance_50kmx20km-Tsfc245_Exner_00385200.png2011-07-25 15:23 22K 
[IMG]Dry_coolheatbalance_50kmx20km-Tsfc245_Exner_00370800.png2011-07-25 15:23 22K 
[IMG]Dry_coolheatbalance_50kmx20km-Tsfc245_Exner_00399600.png2011-07-25 15:24 22K 
[IMG]Dry_coolheatbalance_50kmx20km-Tsfc245_Exner_00417600.png2011-07-25 15:24 22K 
[IMG]Dry_coolheatbalance_50kmx20km-Tsfc245_Exner_00860400.png2011-07-25 19:30 22K 
[IMG]Dry_coolheatbalance_50kmx20km-Tsfc245_Exner_00453600.png2011-07-25 19:19 22K 
[IMG]Dry_coolheatbalance_50kmx20km-Tsfc245_Exner_00496800.png2011-07-25 19:20 22K 
[IMG]Dry_coolheatbalance_50kmx20km-Tsfc245_Exner_00018000.png2011-07-25 15:13 22K 
[IMG]Dry_coolheatbalance_50kmx20km-Tsfc245_Exner_00568800.png2011-07-25 19:22 22K 
[IMG]Dry_coolheatbalance_50kmx20km-Tsfc245_ExnerDev_00334800.png2011-07-25 15:22 22K 
[IMG]Dry_coolheatbalance_ExnerDev_00334800.png2011-07-25 15:22 22K 
[IMG]Dry_coolheatbalance_50kmx20km-Tsfc245_Exner_00514800.png2011-07-25 19:21 22K 
[IMG]Dry_coolheatbalance_50kmx20km-Tsfc245_Exner_00410400.png2011-07-25 15:24 22K 
[IMG]Dry_coolheatbalance_50kmx20km-Tsfc245_Exner_00666000.png2011-07-25 19:25 22K 
[IMG]Dry_coolheatbalance_50kmx20km-Tsfc245_Exner_00360000.png2011-07-25 15:23 22K 
[IMG]Dry_coolheatbalance_50kmx20km-Tsfc245_Exner_00651600.png2011-07-25 19:24 22K 
[IMG]Dry_coolheatbalance_50kmx20km-Tsfc245_ExnerDev_00086400.png2011-07-25 15:15 22K 
[IMG]Dry_coolheatbalance_ExnerDev_00086400.png2011-07-25 15:15 22K 
[IMG]Dry_coolheatbalance_50kmx20km-Tsfc245_Exner_00684000.png2011-07-25 19:25 22K 
[IMG]Dry_coolheatbalance_50kmx20km-Tsfc245_Exner_00424800.png2011-07-25 15:24 22K 
[IMG]Dry_coolheatbalance_50kmx20km-Tsfc245_Exner_00446400.png2011-07-25 19:19 22K 
[IMG]Dry_coolheatbalance_50kmx20km-Tsfc245_Exner_00536400.png2011-07-25 19:21 22K 
[IMG]Dry_coolheatbalance_50kmx20km-Tsfc245_Exner_00784800.png2011-07-25 19:28 22K 
[IMG]Dry_coolheatbalance_50kmx20km-Tsfc245_Exner_00788400.png2011-07-25 19:28 22K 
[IMG]Dry_coolheatbalance_50kmx20km-Tsfc245_Exner_00522000.png2011-07-25 19:21 22K 
[IMG]Dry_coolheatbalance_50kmx20km-Tsfc245_Exner_00655200.png2011-07-25 19:25 22K 
[IMG]Dry_coolheatbalance_50kmx20km-Tsfc245_ExnerDev_00435600.png2011-07-25 19:19 22K 
[IMG]Dry_coolheatbalance_ExnerDev_00435600.png2011-07-25 19:19 22K 
[IMG]Dry_coolheatbalance_50kmx20km-Tsfc245_Exner_00421200.png2011-07-25 15:24 22K 
[IMG]Dry_coolheatbalance_50kmx20km-Tsfc245_Exner_00576000.png2011-07-25 19:22 22K 
[IMG]Dry_coolheatbalance_50kmx20km-Tsfc245_Exner_00529200.png2011-07-25 19:21 22K 
[IMG]Dry_coolheatbalance_50kmx20km-Tsfc245_Exner_00374400.png2011-07-25 15:23 22K 
[IMG]Dry_coolheatbalance_50kmx20km-Tsfc245_Exner_00532800.png2011-07-25 19:21 22K 
[IMG]Dry_coolheatbalance_50kmx20km-Tsfc245_Exner_00504000.png2011-07-25 19:20 22K 
[IMG]Dry_coolheatbalance_50kmx20km-Tsfc245_Exner_00450000.png2011-07-25 19:19 22K 
[IMG]Dry_coolheatbalance_50kmx20km-Tsfc245_Exner_00777600.png2011-07-25 19:28 22K 
[IMG]Dry_coolheatbalance_50kmx20km-Tsfc245_Exner_00378000.png2011-07-25 15:23 22K 
[IMG]Dry_coolheatbalance_50kmx20km-Tsfc245_Exner_00471600.png2011-07-25 19:20 22K 
[IMG]Dry_coolheatbalance_50kmx20km-Tsfc245_ExnerDev_00244800.png2011-07-25 15:19 22K 
[IMG]Dry_coolheatbalance_ExnerDev_00244800.png2011-07-25 15:19 22K 
[IMG]Dry_coolheatbalance_50kmx20km-Tsfc245_ExnerDev_00097200.png2011-07-25 15:15 22K 
[IMG]Dry_coolheatbalance_ExnerDev_00097200.png2011-07-25 15:15 22K 
[IMG]Dry_coolheatbalance_50kmx20km-Tsfc245_Exner_00511200.png2011-07-25 19:21 22K 
[IMG]Dry_coolheatbalance_50kmx20km-Tsfc245_Exner_00709200.png2011-07-25 19:26 22K 
[IMG]Dry_coolheatbalance_50kmx20km-Tsfc245_Exner_00676800.png2011-07-25 19:25 22K 
[IMG]Dry_coolheatbalance_50kmx20km-Tsfc245_ExnerDev_00007200.png2011-07-25 15:13 22K 
[IMG]Dry_coolheatbalance_ExnerDev_00007200.png2011-07-25 15:13 22K 
[IMG]Dry_coolheatbalance_50kmx20km-Tsfc245_Exner_00507600.png2011-07-25 19:21 22K 
[IMG]Dry_coolheatbalance_50kmx20km-Tsfc245_Exner_00806400.png2011-07-25 19:29 22K 
[IMG]Dry_coolheatbalance_50kmx20km-Tsfc245_Exner_00561600.png2011-07-25 19:22 22K 
[IMG]Dry_coolheatbalance_50kmx20km-Tsfc245_Exner_00601200.png2011-07-25 19:23 22K 
[IMG]Dry_coolheatbalance_50kmx20km-Tsfc245_Exner_00547200.png2011-07-25 19:22 22K 
[IMG]Dry_coolheatbalance_50kmx20km-Tsfc245_Exner_00428400.png2011-07-25 15:25 22K 
[IMG]Dry_coolheatbalance_50kmx20km-Tsfc245_Exner_00406800.png2011-07-25 15:24 22K 
[IMG]Dry_coolheatbalance_50kmx20km-Tsfc245_Exner_00831600.png2011-07-25 19:29 22K 
[IMG]Dry_coolheatbalance_50kmx20km-Tsfc245_Exner_00856800.png2011-07-25 19:30 22K 
[IMG]Dry_coolheatbalance_50kmx20km-Tsfc245_Exner_00781200.png2011-07-25 19:28 22K 
[IMG]Dry_coolheatbalance_50kmx20km-Tsfc245_ExnerDev_00439200.png2011-07-25 19:19 22K 
[IMG]Dry_coolheatbalance_ExnerDev_00439200.png2011-07-25 19:19 22K 
[IMG]Dry_coolheatbalance_50kmx20km-Tsfc245_Exner_00486000.png2011-07-25 19:20 22K 
[IMG]Dry_coolheatbalance_50kmx20km-Tsfc245_Exner_00482400.png2011-07-25 19:20 22K 
[IMG]Dry_coolheatbalance_50kmx20km-Tsfc245_Exner_00864000.png2011-07-25 19:30 22K 
[IMG]Dry_coolheatbalance_50kmx20km-Tsfc245_Exner_00817200.png2011-07-25 19:29 22K 
[IMG]Dry_coolheatbalance_50kmx20km-Tsfc245_Exner_00363600.png2011-07-25 15:23 22K 
[IMG]Dry_coolheatbalance_50kmx20km-Tsfc245_Exner_00388800.png2011-07-25 15:23 22K 
[IMG]Dry_coolheatbalance_50kmx20km-Tsfc245_ExnerDev_00028800.png2011-07-25 15:13 22K 
[IMG]Dry_coolheatbalance_ExnerDev_00028800.png2011-07-25 15:13 22K 
[IMG]Dry_coolheatbalance_50kmx20km-Tsfc245_Exner_00662400.png2011-07-25 19:25 23K 
[IMG]Dry_coolheatbalance_50kmx20km-Tsfc245_ExnerDev_00446400.png2011-07-25 19:19 23K 
[IMG]Dry_coolheatbalance_ExnerDev_00446400.png2011-07-25 19:19 23K 
[IMG]Dry_coolheatbalance_50kmx20km-Tsfc245_Exner_00727200.png2011-07-25 19:27 23K 
[IMG]Dry_coolheatbalance_50kmx20km-Tsfc245_Exner_00478800.png2011-07-25 19:20 23K 
[IMG]Dry_coolheatbalance_50kmx20km-Tsfc245_Exner_00673200.png2011-07-25 19:25 23K 
[IMG]Dry_coolheatbalance_50kmx20km-Tsfc245_Exner_00640800.png2011-07-25 19:24 23K 
[IMG]Dry_coolheatbalance_50kmx20km-Tsfc245_Exner_00849600.png2011-07-25 19:30 23K 
[IMG]Dry_coolheatbalance_50kmx20km-Tsfc245_Exner_00525600.png2011-07-25 19:21 23K 
[IMG]Dry_coolheatbalance_50kmx20km-Tsfc245_Exner_00493200.png2011-07-25 19:20 23K 
[IMG]Dry_coolheatbalance_50kmx20km-Tsfc245_ExnerDev_00705600.png2011-07-25 19:26 23K 
[IMG]Dry_coolheatbalance_ExnerDev_00705600.png2011-07-25 19:26 23K 
[IMG]Dry_coolheatbalance_50kmx20km-Tsfc245_Exner_00702000.png2011-07-25 19:26 23K 
[IMG]Dry_coolheatbalance_50kmx20km-Tsfc245_Exner_00795600.png2011-07-25 19:28 23K 
[IMG]Dry_coolheatbalance_50kmx20km-Tsfc245_Exner_00468000.png2011-07-25 19:19 23K 
[IMG]Dry_coolheatbalance_50kmx20km-Tsfc245_Exner_00846000.png2011-07-25 19:30 23K 
[IMG]Dry_coolheatbalance_50kmx20km-Tsfc245_Exner_00763200.png2011-07-25 19:28 23K 
[IMG]Dry_coolheatbalance_50kmx20km-Tsfc245_Exner_00612000.png2011-07-25 19:23 23K 
[IMG]Dry_coolheatbalance_50kmx20km-Tsfc245_ExnerDev_00014400.png2011-07-25 15:13 23K 
[IMG]Dry_coolheatbalance_ExnerDev_00014400.png2011-07-25 15:13 23K 
[IMG]Dry_coolheatbalance_50kmx20km-Tsfc245_Exner_00414000.png2011-07-25 15:24 23K 
[IMG]Dry_coolheatbalance_50kmx20km-Tsfc245_Exner_00489600.png2011-07-25 19:20 23K 
[IMG]Dry_coolheatbalance_50kmx20km-Tsfc245_Exner_00579600.png2011-07-25 19:22 23K 
[IMG]Dry_coolheatbalance_50kmx20km-Tsfc245_Exner_00608400.png2011-07-25 19:23 23K 
[IMG]Dry_coolheatbalance_50kmx20km-Tsfc245_ExnerDev_00118800.png2011-07-25 15:16 23K 
[IMG]Dry_coolheatbalance_ExnerDev_00118800.png2011-07-25 15:16 23K 
[IMG]Dry_coolheatbalance_50kmx20km-Tsfc245_Exner_00464400.png2011-07-25 19:19 23K 
[IMG]Dry_coolheatbalance_50kmx20km-Tsfc245_Exner_00813600.png2011-07-25 19:29 23K 
[IMG]Dry_coolheatbalance_50kmx20km-Tsfc245_Exner_00572400.png2011-07-25 19:22 23K 
[IMG]Dry_coolheatbalance_50kmx20km-Tsfc245_Exner_00615600.png2011-07-25 19:23 23K 
[IMG]Dry_coolheatbalance_50kmx20km-Tsfc245_ExnerDev_00230400.png2011-07-25 15:19 23K 
[IMG]Dry_coolheatbalance_ExnerDev_00230400.png2011-07-25 15:19 23K 
[IMG]Dry_coolheatbalance_50kmx20km-Tsfc245_Exner_00810000.png2011-07-25 19:29 23K 
[IMG]Dry_coolheatbalance_50kmx20km-Tsfc245_Exner_00648000.png2011-07-25 19:24 23K 
[IMG]Dry_coolheatbalance_50kmx20km-Tsfc245_ExnerDev_00018000.png2011-07-25 15:13 23K 
[IMG]Dry_coolheatbalance_ExnerDev_00018000.png2011-07-25 15:13 23K 
[IMG]Dry_coolheatbalance_50kmx20km-Tsfc245_Exner_00853200.png2011-07-25 19:30 23K 
[IMG]Dry_coolheatbalance_50kmx20km-Tsfc245_ExnerDev_00122400.png2011-07-25 15:16 23K 
[IMG]Dry_coolheatbalance_ExnerDev_00122400.png2011-07-25 15:16 23K 
[IMG]Dry_coolheatbalance_50kmx20km-Tsfc245_ExnerDev_00666000.png2011-07-25 19:25 23K 
[IMG]Dry_coolheatbalance_ExnerDev_00666000.png2011-07-25 19:25 23K 
[IMG]Dry_coolheatbalance_50kmx20km-Tsfc245_Exner_00734400.png2011-07-25 19:27 23K 
[IMG]Dry_coolheatbalance_50kmx20km-Tsfc245_Exner_00838800.png2011-07-25 19:30 23K 
[IMG]Dry_coolheatbalance_50kmx20km-Tsfc245_ExnerDev_00255600.png2011-07-25 15:20 23K 
[IMG]Dry_coolheatbalance_ExnerDev_00255600.png2011-07-25 15:20 23K 
[IMG]Dry_coolheatbalance_50kmx20km-Tsfc245_Exner_00835200.png2011-07-25 19:29 23K 
[IMG]Dry_coolheatbalance_50kmx20km-Tsfc245_Exner_00669600.png2011-07-25 19:25 23K 
[IMG]Dry_coolheatbalance_50kmx20km-Tsfc245_Exner_00820800.png2011-07-25 19:29 23K 
[IMG]Dry_coolheatbalance_50kmx20km-Tsfc245_Exner_00586800.png2011-07-25 19:23 23K 
[IMG]Dry_coolheatbalance_50kmx20km-Tsfc245_ExnerDev_00709200.png2011-07-25 19:26 23K 
[IMG]Dry_coolheatbalance_ExnerDev_00709200.png2011-07-25 19:26 23K 
[IMG]Dry_coolheatbalance_50kmx20km-Tsfc245_Exner_00712800.png2011-07-25 19:26 23K 
[IMG]Dry_coolheatbalance_50kmx20km-Tsfc245_ExnerDev_00054000.png2011-07-25 15:14 23K 
[IMG]Dry_coolheatbalance_ExnerDev_00054000.png2011-07-25 15:14 23K 
[IMG]Dry_coolheatbalance_50kmx20km-Tsfc245_ExnerDev_00381600.png2011-07-25 15:23 23K 
[IMG]Dry_coolheatbalance_ExnerDev_00381600.png2011-07-25 15:23 23K 
[IMG]Dry_coolheatbalance_50kmx20km-Tsfc245_ExnerDev_00090000.png2011-07-25 15:15 23K 
[IMG]Dry_coolheatbalance_50kmx20km-Tsfc245_Exner_00828000.png2011-07-25 19:29 23K 
[IMG]Dry_coolheatbalance_ExnerDev_00090000.png2011-07-25 15:15 23K 
[IMG]Dry_coolheatbalance_50kmx20km-Tsfc245_ExnerDev_00280800.png2011-07-25 15:20 23K 
[IMG]Dry_coolheatbalance_ExnerDev_00280800.png2011-07-25 15:20 23K 
[IMG]Dry_coolheatbalance_50kmx20km-Tsfc245_Exner_00644400.png2011-07-25 19:24 23K 
[IMG]Dry_coolheatbalance_50kmx20km-Tsfc245_Exner_00842400.png2011-07-25 19:30 23K 
[IMG]Dry_coolheatbalance_50kmx20km-Tsfc245_Exner_00694800.png2011-07-25 19:26 23K 
[IMG]Dry_coolheatbalance_50kmx20km-Tsfc245_ExnerDev_00378000.png2011-07-25 15:23 23K 
[IMG]Dry_coolheatbalance_ExnerDev_00378000.png2011-07-25 15:23 23K 
[IMG]Dry_coolheatbalance_50kmx20km-Tsfc245_Exner_00633600.png2011-07-25 19:24 23K 
[IMG]Dry_coolheatbalance_50kmx20km-Tsfc245_Exner_00630000.png2011-07-25 19:24 23K 
[IMG]Dry_coolheatbalance_50kmx20km-Tsfc245_Exner_00604800.png2011-07-25 19:23 23K 
[IMG]Dry_coolheatbalance_50kmx20km-Tsfc245_Exner_00774000.png2011-07-25 19:28 23K 
[IMG]Dry_coolheatbalance_50kmx20km-Tsfc245_ExnerDev_00190800.png2011-07-25 15:18 23K 
[IMG]Dry_coolheatbalance_ExnerDev_00190800.png2011-07-25 15:18 23K 
[IMG]Dry_coolheatbalance_50kmx20km-Tsfc245_ExnerDev_00039600.png2011-07-25 15:14 23K 
[IMG]Dry_coolheatbalance_ExnerDev_00039600.png2011-07-25 15:14 23K 
[IMG]Dry_coolheatbalance_50kmx20km-Tsfc245_Exner_00500400.png2011-07-25 19:20 23K 
[IMG]Dry_coolheatbalance_50kmx20km-Tsfc245_Exner_00626400.png2011-07-25 19:24 23K 
[IMG]Dry_coolheatbalance_50kmx20km-Tsfc245_Exner_00723600.png2011-07-25 19:26 23K 
[IMG]Dry_coolheatbalance_50kmx20km-Tsfc245_ExnerDev_00165600.png2011-07-25 15:17 23K 
[IMG]Dry_coolheatbalance_ExnerDev_00165600.png2011-07-25 15:17 23K 
[IMG]Dry_coolheatbalance_50kmx20km-Tsfc245_Exner_00594000.png2011-07-25 19:23 23K 
[IMG]Dry_coolheatbalance_50kmx20km-Tsfc245_Exner_00752400.png2011-07-25 19:27 23K 
[IMG]Dry_coolheatbalance_50kmx20km-Tsfc245_Exner_00457200.png2011-07-25 19:19 23K 
[IMG]Dry_coolheatbalance_50kmx20km-Tsfc245_ExnerDev_00194400.png2011-07-25 15:18 23K 
[IMG]Dry_coolheatbalance_ExnerDev_00194400.png2011-07-25 15:18 23K 
[IMG]Dry_coolheatbalance_50kmx20km-Tsfc245_ExnerDev_00288000.png2011-07-25 15:21 23K 
[IMG]Dry_coolheatbalance_50kmx20km-Tsfc245_ExnerDev_00295200.png2011-07-25 15:21 23K 
[IMG]Dry_coolheatbalance_ExnerDev_00288000.png2011-07-25 15:21 23K 
[IMG]Dry_coolheatbalance_ExnerDev_00295200.png2011-07-25 15:21 23K 
[IMG]Dry_coolheatbalance_50kmx20km-Tsfc245_ExnerDev_00154800.png2011-07-25 15:17 23K 
[IMG]Dry_coolheatbalance_ExnerDev_00154800.png2011-07-25 15:17 23K 
[IMG]Dry_coolheatbalance_50kmx20km-Tsfc245_ExnerDev_00396000.png2011-07-25 15:24 23K 
[IMG]Dry_coolheatbalance_ExnerDev_00396000.png2011-07-25 15:24 23K 
[IMG]Dry_coolheatbalance_50kmx20km-Tsfc245_Exner_00619200.png2011-07-25 19:24 23K 
[IMG]Dry_coolheatbalance_50kmx20km-Tsfc245_ExnerDev_00410400.png2011-07-25 15:24 23K 
[IMG]Dry_coolheatbalance_ExnerDev_00410400.png2011-07-25 15:24 23K 
[IMG]Dry_coolheatbalance_50kmx20km-Tsfc245_Exner_00590400.png2011-07-25 19:23 23K 
[IMG]Dry_coolheatbalance_50kmx20km-Tsfc245_Exner_00460800.png2011-07-25 19:19 23K 
[IMG]Dry_coolheatbalance_50kmx20km-Tsfc245_Exner_00766800.png2011-07-25 19:28 23K 
[IMG]Dry_coolheatbalance_50kmx20km-Tsfc245_Exner_00799200.png2011-07-25 19:28 23K 
[IMG]Dry_coolheatbalance_50kmx20km-Tsfc245_Exner_00745200.png2011-07-25 19:27 23K 
[IMG]Dry_coolheatbalance_50kmx20km-Tsfc245_Exner_00730800.png2011-07-25 19:27 23K 
[IMG]Dry_coolheatbalance_50kmx20km-Tsfc245_Exner_00583200.png2011-07-25 19:23 23K 
[IMG]Dry_coolheatbalance_50kmx20km-Tsfc245_ExnerDev_00558000.png2011-07-25 19:22 23K 
[IMG]Dry_coolheatbalance_ExnerDev_00558000.png2011-07-25 19:22 23K 
[IMG]Dry_coolheatbalance_50kmx20km-Tsfc245_ExnerDev_00684000.png2011-07-25 19:25 23K 
[IMG]Dry_coolheatbalance_ExnerDev_00684000.png2011-07-25 19:25 23K 
[IMG]Dry_coolheatbalance_50kmx20km-Tsfc245_ExnerDev_00226800.png2011-07-25 15:19 23K 
[IMG]Dry_coolheatbalance_ExnerDev_00226800.png2011-07-25 15:19 23K 
[IMG]Dry_coolheatbalance_50kmx20km-Tsfc245_Exner_00824400.png2011-07-25 19:29 23K 
[IMG]Dry_coolheatbalance_50kmx20km-Tsfc245_ExnerDev_00313200.png2011-07-25 15:21 23K 
[IMG]Dry_coolheatbalance_ExnerDev_00313200.png2011-07-25 15:21 23K 
[IMG]Dry_coolheatbalance_50kmx20km-Tsfc245_ExnerDev_00514800.png2011-07-25 19:21 23K 
[IMG]Dry_coolheatbalance_ExnerDev_00514800.png2011-07-25 19:21 23K 
[IMG]Dry_coolheatbalance_50kmx20km-Tsfc245_ExnerDev_00442800.png2011-07-25 19:19 23K 
[IMG]Dry_coolheatbalance_ExnerDev_00442800.png2011-07-25 19:19 23K 
[IMG]Dry_coolheatbalance_50kmx20km-Tsfc245_Exner_00658800.png2011-07-25 19:25 23K 
[IMG]Dry_coolheatbalance_50kmx20km-Tsfc245_ExnerDev_00147600.png2011-07-25 15:17 23K 
[IMG]Dry_coolheatbalance_ExnerDev_00147600.png2011-07-25 15:17 23K 
[IMG]Dry_coolheatbalance_50kmx20km-Tsfc245_ExnerDev_00864000.png2011-07-25 19:30 23K 
[IMG]Dry_coolheatbalance_ExnerDev_00864000.png2011-07-25 19:30 23K 
[IMG]Dry_coolheatbalance_50kmx20km-Tsfc245_ExnerDev_00100800.png2011-07-25 15:15 23K 
[IMG]Dry_coolheatbalance_ExnerDev_00100800.png2011-07-25 15:15 23K 
[IMG]Dry_coolheatbalance_50kmx20km-Tsfc245_Exner_00680400.png2011-07-25 19:25 23K 
[IMG]Dry_coolheatbalance_50kmx20km-Tsfc245_Exner_00597600.png2011-07-25 19:23 23K 
[IMG]Dry_coolheatbalance_50kmx20km-Tsfc245_ExnerDev_00273600.png2011-07-25 15:20 23K 
[IMG]Dry_coolheatbalance_ExnerDev_00273600.png2011-07-25 15:20 23K 
[IMG]Dry_coolheatbalance_50kmx20km-Tsfc245_ExnerDev_00727200.png2011-07-25 19:27 23K 
[IMG]Dry_coolheatbalance_ExnerDev_00727200.png2011-07-25 19:27 23K 
[IMG]Dry_coolheatbalance_50kmx20km-Tsfc245_ExnerDev_00201600.png2011-07-25 15:18 23K 
[IMG]Dry_coolheatbalance_ExnerDev_00201600.png2011-07-25 15:18 23K 
[IMG]Dry_coolheatbalance_50kmx20km-Tsfc245_ExnerDev_00349200.png2011-07-25 15:22 23K 
[IMG]Dry_coolheatbalance_ExnerDev_00349200.png2011-07-25 15:22 23K 
[IMG]Dry_coolheatbalance_50kmx20km-Tsfc245_ExnerDev_00061200.png2011-07-25 15:14 23K 
[IMG]Dry_coolheatbalance_50kmx20km-Tsfc245_ExnerDev_00111600.png2011-07-25 15:16 23K 
[IMG]Dry_coolheatbalance_ExnerDev_00061200.png2011-07-25 15:14 23K 
[IMG]Dry_coolheatbalance_ExnerDev_00111600.png2011-07-25 15:16 23K 
[IMG]Dry_coolheatbalance_50kmx20km-Tsfc245_ExnerDev_00216000.png2011-07-25 15:19 23K 
[IMG]Dry_coolheatbalance_ExnerDev_00216000.png2011-07-25 15:19 23K 
[IMG]Dry_coolheatbalance_50kmx20km-Tsfc245_ExnerDev_00010800.png2011-07-25 15:13 23K 
[IMG]Dry_coolheatbalance_ExnerDev_00010800.png2011-07-25 15:13 23K 
[IMG]Dry_coolheatbalance_50kmx20km-Tsfc245_ExnerDev_00036000.png2011-07-25 15:14 23K 
[IMG]Dry_coolheatbalance_ExnerDev_00036000.png2011-07-25 15:14 23K 
[IMG]Dry_coolheatbalance_50kmx20km-Tsfc245_ExnerDev_00662400.png2011-07-25 19:25 23K 
[IMG]Dry_coolheatbalance_50kmx20km-Tsfc245_Exner_00720000.png2011-07-25 19:26 23K 
[IMG]Dry_coolheatbalance_ExnerDev_00662400.png2011-07-25 19:25 23K 
[IMG]Dry_coolheatbalance_50kmx20km-Tsfc245_Exner_00756000.png2011-07-25 19:27 23K 
[IMG]Dry_coolheatbalance_50kmx20km-Tsfc245_ExnerDev_00356400.png2011-07-25 15:23 23K 
[IMG]Dry_coolheatbalance_ExnerDev_00356400.png2011-07-25 15:23 23K 
[IMG]Dry_coolheatbalance_50kmx20km-Tsfc245_ExnerDev_00277200.png2011-07-25 15:20 23K 
[IMG]Dry_coolheatbalance_ExnerDev_00277200.png2011-07-25 15:20 23K 
[IMG]Dry_coolheatbalance_50kmx20km-Tsfc245_ExnerDev_00432000.png2011-07-25 19:18 23K 
[IMG]Dry_coolheatbalance_ExnerDev_00432000.png2011-07-25 15:25 23K 
[IMG]Dry_coolheatbalance_50kmx20km-Tsfc245_ExnerDev_00104400.png2011-07-25 15:16 23K 
[IMG]Dry_coolheatbalance_ExnerDev_00104400.png2011-07-25 15:16 23K 
[IMG]Dry_coolheatbalance_50kmx20km-Tsfc245_ExnerDev_00331200.png2011-07-25 15:22 23K 
[IMG]Dry_coolheatbalance_ExnerDev_00331200.png2011-07-25 15:22 23K 
[IMG]Dry_coolheatbalance_50kmx20km-Tsfc245_Exner_00637200.png2011-07-25 19:24 23K 
[IMG]Dry_coolheatbalance_50kmx20km-Tsfc245_ExnerDev_00205200.png2011-07-25 15:18 23K 
[IMG]Dry_coolheatbalance_ExnerDev_00205200.png2011-07-25 15:18 23K 
[IMG]Dry_coolheatbalance_50kmx20km-Tsfc245_Exner_00691200.png2011-07-25 19:26 23K 
[IMG]Dry_coolheatbalance_50kmx20km-Tsfc245_Exner_00770400.png2011-07-25 19:28 23K 
[IMG]Dry_coolheatbalance_50kmx20km-Tsfc245_ExnerDev_00622800.png2011-07-25 19:24 23K 
[IMG]Dry_coolheatbalance_ExnerDev_00622800.png2011-07-25 19:24 23K 
[IMG]Dry_coolheatbalance_50kmx20km-Tsfc245_Exner_00748800.png2011-07-25 19:27 23K 
[IMG]Dry_coolheatbalance_50kmx20km-Tsfc245_ExnerDev_00651600.png2011-07-25 19:24 23K 
[IMG]Dry_coolheatbalance_ExnerDev_00651600.png2011-07-25 19:24 23K 
[IMG]Dry_coolheatbalance_50kmx20km-Tsfc245_ExnerDev_00050400.png2011-07-25 15:14 23K 
[IMG]Dry_coolheatbalance_ExnerDev_00050400.png2011-07-25 15:14 23K 
[IMG]Dry_coolheatbalance_50kmx20km-Tsfc245_ExnerDev_00129600.png2011-07-25 15:16 23K 
[IMG]Dry_coolheatbalance_ExnerDev_00129600.png2011-07-25 15:16 23K 
[IMG]Dry_coolheatbalance_50kmx20km-Tsfc245_Exner_00716400.png2011-07-25 19:26 24K 
[IMG]Dry_coolheatbalance_50kmx20km-Tsfc245_ExnerDev_00658800.png2011-07-25 19:25 24K 
[IMG]Dry_coolheatbalance_ExnerDev_00658800.png2011-07-25 19:25 24K 
[IMG]Dry_coolheatbalance_50kmx20km-Tsfc245_ExnerDev_00082800.png2011-07-25 15:15 24K 
[IMG]Dry_coolheatbalance_ExnerDev_00082800.png2011-07-25 15:15 24K 
[IMG]Dry_coolheatbalance_50kmx20km-Tsfc245_ExnerDev_00237600.png2011-07-25 15:19 24K 
[IMG]Dry_coolheatbalance_ExnerDev_00237600.png2011-07-25 15:19 24K 
[IMG]Dry_coolheatbalance_50kmx20km-Tsfc245_Exner_00802800.png2011-07-25 19:29 24K 
[IMG]Dry_coolheatbalance_50kmx20km-Tsfc245_ExnerDev_00234000.png2011-07-25 15:19 24K 
[IMG]Dry_coolheatbalance_ExnerDev_00234000.png2011-07-25 15:19 24K 
[IMG]Dry_coolheatbalance_50kmx20km-Tsfc245_ExnerDev_00115200.png2011-07-25 15:16 24K 
[IMG]Dry_coolheatbalance_ExnerDev_00115200.png2011-07-25 15:16 24K 
[IMG]Dry_coolheatbalance_50kmx20km-Tsfc245_Exner_00687600.png2011-07-25 19:25 24K 
[IMG]Dry_coolheatbalance_50kmx20km-Tsfc245_ExnerDev_00360000.png2011-07-25 15:23 24K 
[IMG]Dry_coolheatbalance_ExnerDev_00360000.png2011-07-25 15:23 24K 
[IMG]Dry_coolheatbalance_50kmx20km-Tsfc245_ExnerDev_00392400.png2011-07-25 15:24 24K 
[IMG]Dry_coolheatbalance_50kmx20km-Tsfc245_ExnerDev_00673200.png2011-07-25 19:25 24K 
[IMG]Dry_coolheatbalance_ExnerDev_00392400.png2011-07-25 15:24 24K 
[IMG]Dry_coolheatbalance_ExnerDev_00673200.png2011-07-25 19:25 24K 
[IMG]Dry_coolheatbalance_50kmx20km-Tsfc245_ExnerDev_00176400.png2011-07-25 15:18 24K 
[IMG]Dry_coolheatbalance_ExnerDev_00176400.png2011-07-25 15:18 24K 
[IMG]Dry_coolheatbalance_50kmx20km-Tsfc245_ExnerDev_00655200.png2011-07-25 19:25 24K 
[IMG]Dry_coolheatbalance_50kmx20km-Tsfc245_Exner_00698400.png2011-07-25 19:26 24K 
[IMG]Dry_coolheatbalance_ExnerDev_00655200.png2011-07-25 19:25 24K 
[IMG]Dry_coolheatbalance_50kmx20km-Tsfc245_ExnerDev_00126000.png2011-07-25 15:16 24K 
[IMG]Dry_coolheatbalance_ExnerDev_00126000.png2011-07-25 15:16 24K 
[IMG]Dry_coolheatbalance_50kmx20km-Tsfc245_Exner_00792000.png2011-07-25 19:28 24K 
[IMG]Dry_coolheatbalance_50kmx20km-Tsfc245_Exner_00741600.png2011-07-25 19:27 24K 
[IMG]Dry_coolheatbalance_50kmx20km-Tsfc245_Exner_00738000.png2011-07-25 19:27 24K 
[IMG]Dry_coolheatbalance_50kmx20km-Tsfc245_Exner_00759600.png2011-07-25 19:27 24K 
[IMG]Dry_coolheatbalance_50kmx20km-Tsfc245_ExnerDev_00252000.png2011-07-25 15:20 24K 
[IMG]Dry_coolheatbalance_ExnerDev_00252000.png2011-07-25 15:20 24K 
[IMG]Dry_coolheatbalance_50kmx20km-Tsfc245_ExnerDev_00554400.png2011-07-25 19:22 24K 
[IMG]Dry_coolheatbalance_ExnerDev_00554400.png2011-07-25 19:22 24K 
[IMG]Dry_coolheatbalance_50kmx20km-Tsfc245_ExnerDev_00327600.png2011-07-25 15:22 24K 
[IMG]Dry_coolheatbalance_ExnerDev_00327600.png2011-07-25 15:22 24K 
[IMG]Dry_coolheatbalance_50kmx20km-Tsfc245_ExnerDev_00284400.png2011-07-25 15:21 24K 
[IMG]Dry_coolheatbalance_ExnerDev_00284400.png2011-07-25 15:21 24K 
[IMG]Dry_coolheatbalance_50kmx20km-Tsfc245_ExnerDev_00428400.png2011-07-25 15:25 24K 
[IMG]Dry_coolheatbalance_ExnerDev_00428400.png2011-07-25 15:25 24K 
[IMG]Dry_coolheatbalance_50kmx20km-Tsfc245_ExnerDev_00057600.png2011-07-25 15:14 24K 
[IMG]Dry_coolheatbalance_ExnerDev_00057600.png2011-07-25 15:14 24K 
[IMG]Dry_coolheatbalance_50kmx20km-Tsfc245_ExnerDev_00316800.png2011-07-25 15:21 24K 
[IMG]Dry_coolheatbalance_ExnerDev_00316800.png2011-07-25 15:21 24K 
[IMG]Dry_coolheatbalance_50kmx20km-Tsfc245_ExnerDev_00734400.png2011-07-25 19:27 24K 
[IMG]Dry_coolheatbalance_ExnerDev_00734400.png2011-07-25 19:27 24K 
[IMG]Dry_coolheatbalance_50kmx20km-Tsfc245_ExnerDev_00320400.png2011-07-25 15:22 24K 
[IMG]Dry_coolheatbalance_ExnerDev_00320400.png2011-07-25 15:22 24K 
[IMG]Dry_coolheatbalance_50kmx20km-Tsfc245_ExnerDev_00806400.png2011-07-25 19:29 24K 
[IMG]Dry_coolheatbalance_ExnerDev_00806400.png2011-07-25 19:29 24K 
[IMG]Dry_coolheatbalance_50kmx20km-Tsfc245_ExnerDev_00352800.png2011-07-25 15:22 24K 
[IMG]Dry_coolheatbalance_ExnerDev_00352800.png2011-07-25 15:22 24K 
[IMG]Dry_coolheatbalance_50kmx20km-Tsfc245_ExnerDev_00169200.png2011-07-25 15:17 24K 
[IMG]Dry_coolheatbalance_ExnerDev_00169200.png2011-07-25 15:17 24K 
[IMG]Dry_coolheatbalance_50kmx20km-Tsfc245_ExnerDev_00223200.png2011-07-25 15:19 24K 
[IMG]Dry_coolheatbalance_ExnerDev_00223200.png2011-07-25 15:19 24K 
[IMG]Dry_coolheatbalance_50kmx20km-Tsfc245_ExnerDev_00403200.png2011-07-25 15:24 24K 
[IMG]Dry_coolheatbalance_ExnerDev_00403200.png2011-07-25 15:24 24K 
[IMG]Dry_coolheatbalance_50kmx20km-Tsfc245_ExnerDev_00550800.png2011-07-25 19:22 24K 
[IMG]Dry_coolheatbalance_ExnerDev_00550800.png2011-07-25 19:22 24K 
[IMG]Dry_coolheatbalance_50kmx20km-Tsfc245_ExnerDev_00813600.png2011-07-25 19:29 24K 
[IMG]Dry_coolheatbalance_ExnerDev_00813600.png2011-07-25 19:29 24K 
[IMG]Dry_coolheatbalance_50kmx20km-Tsfc245_ExnerDev_00529200.png2011-07-25 19:21 24K 
[IMG]Dry_coolheatbalance_ExnerDev_00529200.png2011-07-25 19:21 24K 
[IMG]Dry_coolheatbalance_50kmx20km-Tsfc245_ExnerDev_00345600.png2011-07-25 15:22 24K 
[IMG]Dry_coolheatbalance_ExnerDev_00345600.png2011-07-25 15:22 24K 
[IMG]Dry_coolheatbalance_50kmx20km-Tsfc245_ExnerDev_00136800.png2011-07-25 15:16 24K 
[IMG]Dry_coolheatbalance_ExnerDev_00136800.png2011-07-25 15:16 24K 
[IMG]Dry_coolheatbalance_50kmx20km-Tsfc245_ExnerDev_00291600.png2011-07-25 15:21 24K 
[IMG]Dry_coolheatbalance_ExnerDev_00291600.png2011-07-25 15:21 24K 
[IMG]Dry_coolheatbalance_50kmx20km-Tsfc245_ExnerDev_00208800.png2011-07-25 15:18 24K 
[IMG]Dry_coolheatbalance_ExnerDev_00208800.png2011-07-25 15:18 24K 
[IMG]Dry_coolheatbalance_50kmx20km-Tsfc245_ExnerDev_00248400.png2011-07-25 15:20 24K 
[IMG]Dry_coolheatbalance_ExnerDev_00248400.png2011-07-25 15:20 24K 
[IMG]Dry_coolheatbalance_50kmx20km-Tsfc245_ExnerDev_00856800.png2011-07-25 19:30 24K 
[IMG]Dry_coolheatbalance_ExnerDev_00856800.png2011-07-25 19:30 24K 
[IMG]Dry_coolheatbalance_50kmx20km-Tsfc245_ExnerDev_00342000.png2011-07-25 15:22 24K 
[IMG]Dry_coolheatbalance_ExnerDev_00342000.png2011-07-25 15:22 24K 
[IMG]Dry_coolheatbalance_50kmx20km-Tsfc245_ExnerDev_00172800.png2011-07-25 15:17 24K 
[IMG]Dry_coolheatbalance_ExnerDev_00172800.png2011-07-25 15:17 24K 
[IMG]Dry_coolheatbalance_50kmx20km-Tsfc245_ExnerDev_00046800.png2011-07-25 15:14 24K 
[IMG]Dry_coolheatbalance_ExnerDev_00046800.png2011-07-25 15:14 24K 
[IMG]Dry_coolheatbalance_50kmx20km-Tsfc245_ExnerDev_00475200.png2011-07-25 19:20 24K 
[IMG]Dry_coolheatbalance_ExnerDev_00475200.png2011-07-25 19:20 24K 
[IMG]Dry_coolheatbalance_50kmx20km-Tsfc245_ExnerDev_00093600.png2011-07-25 15:15 24K 
[IMG]Dry_coolheatbalance_ExnerDev_00093600.png2011-07-25 15:15 24K 
[IMG]Dry_coolheatbalance_50kmx20km-Tsfc245_ExnerDev_00820800.png2011-07-25 19:29 24K 
[IMG]Dry_coolheatbalance_ExnerDev_00820800.png2011-07-25 19:29 24K 
[IMG]Dry_coolheatbalance_50kmx20km-Tsfc245_ExnerDev_00860400.png2011-07-25 19:30 24K 
[IMG]Dry_coolheatbalance_ExnerDev_00860400.png2011-07-25 19:30 24K 
[IMG]Dry_coolheatbalance_50kmx20km-Tsfc245_ExnerDev_00421200.png2011-07-25 15:24 24K 
[IMG]Dry_coolheatbalance_ExnerDev_00421200.png2011-07-25 15:24 24K 
[IMG]Dry_coolheatbalance_50kmx20km-Tsfc245_ExnerDev_00158400.png2011-07-25 15:17 24K 
[IMG]Dry_coolheatbalance_ExnerDev_00158400.png2011-07-25 15:17 24K 
[IMG]Dry_coolheatbalance_50kmx20km-Tsfc245_ExnerDev_00561600.png2011-07-25 19:22 24K 
[IMG]Dry_coolheatbalance_ExnerDev_00561600.png2011-07-25 19:22 24K 
[IMG]Dry_coolheatbalance_50kmx20km-Tsfc245_ExnerDev_00338400.png2011-07-25 15:22 24K 
[IMG]Dry_coolheatbalance_ExnerDev_00338400.png2011-07-25 15:22 24K 
[IMG]Dry_coolheatbalance_50kmx20km-Tsfc245_ExnerDev_00835200.png2011-07-25 19:29 24K 
[IMG]Dry_coolheatbalance_ExnerDev_00835200.png2011-07-25 19:29 24K 
[IMG]Dry_coolheatbalance_50kmx20km-Tsfc245_ExnerDev_00212400.png2011-07-25 15:19 24K 
[IMG]Dry_coolheatbalance_ExnerDev_00212400.png2011-07-25 15:19 24K 
[IMG]Dry_coolheatbalance_50kmx20km-Tsfc245_ExnerDev_00140400.png2011-07-25 15:17 24K 
[IMG]Dry_coolheatbalance_ExnerDev_00140400.png2011-07-25 15:17 24K 
[IMG]Dry_coolheatbalance_50kmx20km-Tsfc245_ExnerDev_00262800.png2011-07-25 15:20 24K 
[IMG]Dry_coolheatbalance_ExnerDev_00262800.png2011-07-25 15:20 24K 
[IMG]Dry_coolheatbalance_50kmx20km-Tsfc245_ExnerDev_00079200.png2011-07-25 15:15 24K 
[IMG]Dry_coolheatbalance_ExnerDev_00079200.png2011-07-25 15:15 24K 
[IMG]Dry_coolheatbalance_50kmx20km-Tsfc245_ExnerDev_00309600.png2011-07-25 15:21 24K 
[IMG]Dry_coolheatbalance_ExnerDev_00309600.png2011-07-25 15:21 24K 
[IMG]Dry_coolheatbalance_50kmx20km-Tsfc245_ExnerDev_00723600.png2011-07-25 19:26 24K 
[IMG]Dry_coolheatbalance_ExnerDev_00723600.png2011-07-25 19:26 24K 
[IMG]Dry_coolheatbalance_50kmx20km-Tsfc245_ExnerDev_00068400.png2011-07-25 15:15 24K 
[IMG]Dry_coolheatbalance_ExnerDev_00068400.png2011-07-25 15:15 24K 
[IMG]Dry_coolheatbalance_50kmx20km-Tsfc245_ExnerDev_00702000.png2011-07-25 19:26 24K 
[IMG]Dry_coolheatbalance_ExnerDev_00702000.png2011-07-25 19:26 24K 
[IMG]Dry_coolheatbalance_50kmx20km-Tsfc245_ExnerDev_00363600.png2011-07-25 15:23 24K 
[IMG]Dry_coolheatbalance_ExnerDev_00363600.png2011-07-25 15:23 24K 
[IMG]Dry_coolheatbalance_50kmx20km-Tsfc245_ExnerDev_00021600.png2011-07-25 15:13 24K 
[IMG]Dry_coolheatbalance_ExnerDev_00021600.png2011-07-25 15:13 24K 
[IMG]Dry_coolheatbalance_50kmx20km-Tsfc245_ExnerDev_00532800.png2011-07-25 19:21 24K 
[IMG]Dry_coolheatbalance_ExnerDev_00532800.png2011-07-25 19:21 24K 
[IMG]Dry_coolheatbalance_50kmx20km-Tsfc245_ExnerDev_00496800.png2011-07-25 19:20 24K 
[IMG]Dry_coolheatbalance_ExnerDev_00496800.png2011-07-25 19:20 24K 
[IMG]Dry_coolheatbalance_50kmx20km-Tsfc245_ExnerDev_00324000.png2011-07-25 15:22 24K 
[IMG]Dry_coolheatbalance_ExnerDev_00324000.png2011-07-25 15:22 24K 
[IMG]Dry_coolheatbalance_50kmx20km-Tsfc245_ExnerDev_00568800.png2011-07-25 19:22 24K 
[IMG]Dry_coolheatbalance_ExnerDev_00568800.png2011-07-25 19:22 24K 
[IMG]Dry_coolheatbalance_50kmx20km-Tsfc245_ExnerDev_00676800.png2011-07-25 19:25 24K 
[IMG]Dry_coolheatbalance_ExnerDev_00676800.png2011-07-25 19:25 24K 
[IMG]Dry_coolheatbalance_50kmx20km-Tsfc245_ExnerDev_00493200.png2011-07-25 19:20 24K 
[IMG]Dry_coolheatbalance_ExnerDev_00493200.png2011-07-25 19:20 24K 
[IMG]Dry_coolheatbalance_50kmx20km-Tsfc245_ExnerDev_00849600.png2011-07-25 19:30 24K 
[IMG]Dry_coolheatbalance_ExnerDev_00849600.png2011-07-25 19:30 24K 
[IMG]Dry_coolheatbalance_50kmx20km-Tsfc245_ExnerDev_00846000.png2011-07-25 19:30 24K 
[IMG]Dry_coolheatbalance_ExnerDev_00846000.png2011-07-25 19:30 24K 
[IMG]Dry_coolheatbalance_50kmx20km-Tsfc245_ExnerDev_00460800.png2011-07-25 19:19 24K 
[IMG]Dry_coolheatbalance_ExnerDev_00460800.png2011-07-25 19:19 24K 
[IMG]Dry_coolheatbalance_50kmx20km-Tsfc245_ExnerDev_00406800.png2011-07-25 15:24 24K 
[IMG]Dry_coolheatbalance_ExnerDev_00406800.png2011-07-25 15:24 24K 
[IMG]Dry_coolheatbalance_50kmx20km-Tsfc245_ExnerDev_00183600.png2011-07-25 15:18 24K 
[IMG]Dry_coolheatbalance_ExnerDev_00183600.png2011-07-25 15:18 24K 
[IMG]Dry_coolheatbalance_50kmx20km-Tsfc245_ExnerDev_00680400.png2011-07-25 19:25 24K 
[IMG]Dry_coolheatbalance_ExnerDev_00680400.png2011-07-25 19:25 24K 
[IMG]Dry_coolheatbalance_50kmx20km-Tsfc245_ExnerDev_00457200.png2011-07-25 19:19 24K 
[IMG]Dry_coolheatbalance_ExnerDev_00457200.png2011-07-25 19:19 24K 
[IMG]Dry_coolheatbalance_50kmx20km-Tsfc245_ExnerDev_00072000.png2011-07-25 15:15 24K 
[IMG]Dry_coolheatbalance_ExnerDev_00072000.png2011-07-25 15:15 24K 
[IMG]Dry_coolheatbalance_50kmx20km-Tsfc245_ExnerDev_00838800.png2011-07-25 19:30 24K 
[IMG]Dry_coolheatbalance_ExnerDev_00838800.png2011-07-25 19:30 24K 
[IMG]Dry_coolheatbalance_50kmx20km-Tsfc245_ExnerDev_00522000.png2011-07-25 19:21 24K 
[IMG]Dry_coolheatbalance_ExnerDev_00522000.png2011-07-25 19:21 24K 
[IMG]Dry_coolheatbalance_50kmx20km-Tsfc245_ExnerDev_00043200.png2011-07-25 15:14 24K 
[IMG]Dry_coolheatbalance_ExnerDev_00043200.png2011-07-25 15:14 24K 
[IMG]Dry_coolheatbalance_50kmx20km-Tsfc245_ExnerDev_00828000.png2011-07-25 19:29 24K 
[IMG]Dry_coolheatbalance_ExnerDev_00828000.png2011-07-25 19:29 24K 
[IMG]Dry_coolheatbalance_50kmx20km-Tsfc245_ExnerDev_00810000.png2011-07-25 19:29 24K 
[IMG]Dry_coolheatbalance_ExnerDev_00810000.png2011-07-25 19:29 24K 
[IMG]Dry_coolheatbalance_50kmx20km-Tsfc245_ExnerDev_00784800.png2011-07-25 19:28 24K 
[IMG]Dry_coolheatbalance_ExnerDev_00784800.png2011-07-25 19:28 24K 
[IMG]Dry_coolheatbalance_50kmx20km-Tsfc245_ExnerDev_00788400.png2011-07-25 19:28 24K 
[IMG]Dry_coolheatbalance_ExnerDev_00788400.png2011-07-25 19:28 24K 
[IMG]Dry_coolheatbalance_50kmx20km-Tsfc245_ExnerDev_00612000.png2011-07-25 19:23 24K 
[IMG]Dry_coolheatbalance_ExnerDev_00612000.png2011-07-25 19:23 24K 
[IMG]Dry_coolheatbalance_50kmx20km-Tsfc245_ExnerDev_00507600.png2011-07-25 19:21 24K 
[IMG]Dry_coolheatbalance_ExnerDev_00507600.png2011-07-25 19:21 24K 
[IMG]Dry_coolheatbalance_50kmx20km-Tsfc245_ExnerDev_00424800.png2011-07-25 15:24 24K 
[IMG]Dry_coolheatbalance_50kmx20km-Tsfc245_ExnerDev_00745200.png2011-07-25 19:27 24K 
[IMG]Dry_coolheatbalance_ExnerDev_00424800.png2011-07-25 15:24 24K 
[IMG]Dry_coolheatbalance_ExnerDev_00745200.png2011-07-25 19:27 24K 
[IMG]Dry_coolheatbalance_50kmx20km-Tsfc245_ExnerDev_00478800.png2011-07-25 19:20 24K 
[IMG]Dry_coolheatbalance_ExnerDev_00478800.png2011-07-25 19:20 24K 
[IMG]Dry_coolheatbalance_50kmx20km-Tsfc245_ExnerDev_00198000.png2011-07-25 15:18 24K 
[IMG]Dry_coolheatbalance_50kmx20km-Tsfc245_ExnerDev_00518400.png2011-07-25 19:21 24K 
[IMG]Dry_coolheatbalance_ExnerDev_00198000.png2011-07-25 15:18 24K 
[IMG]Dry_coolheatbalance_ExnerDev_00518400.png2011-07-25 19:21 24K 
[IMG]Dry_coolheatbalance_50kmx20km-Tsfc245_ExnerDev_00824400.png2011-07-25 19:29 24K 
[IMG]Dry_coolheatbalance_ExnerDev_00824400.png2011-07-25 19:29 24K 
[IMG]Dry_coolheatbalance_50kmx20km-Tsfc245_ExnerDev_00241200.png2011-07-25 15:19 24K 
[IMG]Dry_coolheatbalance_ExnerDev_00241200.png2011-07-25 15:19 24K 
[IMG]Dry_coolheatbalance_50kmx20km-Tsfc245_ExnerDev_00219600.png2011-07-25 15:19 24K 
[IMG]Dry_coolheatbalance_ExnerDev_00219600.png2011-07-25 15:19 24K 
[IMG]Dry_coolheatbalance_50kmx20km-Tsfc245_ExnerDev_00694800.png2011-07-25 19:26 24K 
[IMG]Dry_coolheatbalance_ExnerDev_00694800.png2011-07-25 19:26 24K 
[IMG]Dry_coolheatbalance_50kmx20km-Tsfc245_ExnerDev_00259200.png2011-07-25 15:20 24K 
[IMG]Dry_coolheatbalance_ExnerDev_00259200.png2011-07-25 15:20 24K 
[IMG]Dry_coolheatbalance_50kmx20km-Tsfc245_ExnerDev_00669600.png2011-07-25 19:25 24K 
[IMG]Dry_coolheatbalance_ExnerDev_00669600.png2011-07-25 19:25 24K 
[IMG]Dry_coolheatbalance_50kmx20km-Tsfc245_ExnerDev_00817200.png2011-07-25 19:29 24K 
[IMG]Dry_coolheatbalance_ExnerDev_00817200.png2011-07-25 19:29 24K 
[IMG]Dry_coolheatbalance_50kmx20km-Tsfc245_ExnerDev_00151200.png2011-07-25 15:17 24K 
[IMG]Dry_coolheatbalance_ExnerDev_00151200.png2011-07-25 15:17 24K 
[IMG]Dry_coolheatbalance_50kmx20km-Tsfc245_ExnerDev_00730800.png2011-07-25 19:27 24K 
[IMG]Dry_coolheatbalance_ExnerDev_00730800.png2011-07-25 19:27 24K 
[IMG]Dry_coolheatbalance_50kmx20km-Tsfc245_ExnerDev_00594000.png2011-07-25 19:23 24K 
[IMG]Dry_coolheatbalance_ExnerDev_00594000.png2011-07-25 19:23 24K 
[IMG]Dry_coolheatbalance_50kmx20km-Tsfc245_ExnerDev_00133200.png2011-07-25 15:16 24K 
[IMG]Dry_coolheatbalance_ExnerDev_00133200.png2011-07-25 15:16 24K 
[IMG]Dry_coolheatbalance_50kmx20km-Tsfc245_ExnerDev_00064800.png2011-07-25 15:14 24K 
[IMG]Dry_coolheatbalance_ExnerDev_00064800.png2011-07-25 15:14 24K 
[IMG]Dry_coolheatbalance_50kmx20km-Tsfc245_ExnerDev_00370800.png2011-07-25 15:23 24K 
[IMG]Dry_coolheatbalance_ExnerDev_00370800.png2011-07-25 15:23 24K 
[IMG]Dry_coolheatbalance_50kmx20km-Tsfc245_ExnerDev_00298800.png2011-07-25 15:21 24K 
[IMG]Dry_coolheatbalance_ExnerDev_00298800.png2011-07-25 15:21 24K 
[IMG]Dry_coolheatbalance_50kmx20km-Tsfc245_ExnerDev_00536400.png2011-07-25 19:21 24K 
[IMG]Dry_coolheatbalance_ExnerDev_00536400.png2011-07-25 19:21 24K 
[IMG]Dry_coolheatbalance_50kmx20km-Tsfc245_ExnerDev_00388800.png2011-07-25 15:23 24K 
[IMG]Dry_coolheatbalance_ExnerDev_00388800.png2011-07-25 15:23 24K 
[IMG]Dry_coolheatbalance_50kmx20km-Tsfc245_ExnerDev_00270000.png2011-07-25 15:20 24K 
[IMG]Dry_coolheatbalance_ExnerDev_00270000.png2011-07-25 15:20 24K 
[IMG]Dry_coolheatbalance_50kmx20km-Tsfc245_ExnerDev_00511200.png2011-07-25 19:21 24K 
[IMG]Dry_coolheatbalance_ExnerDev_00511200.png2011-07-25 19:21 24K 
[IMG]Dry_coolheatbalance_50kmx20km-Tsfc245_ExnerDev_00180000.png2011-07-25 15:18 24K 
[IMG]Dry_coolheatbalance_ExnerDev_00180000.png2011-07-25 15:18 24K 
[IMG]Dry_coolheatbalance_50kmx20km-Tsfc245_ExnerDev_00302400.png2011-07-25 15:21 24K 
[IMG]Dry_coolheatbalance_ExnerDev_00302400.png2011-07-25 15:21 24K 
[IMG]Dry_coolheatbalance_50kmx20km-Tsfc245_ExnerDev_00777600.png2011-07-25 19:28 25K 
[IMG]Dry_coolheatbalance_ExnerDev_00777600.png2011-07-25 19:28 25K 
[IMG]Dry_coolheatbalance_50kmx20km-Tsfc245_ExnerDev_00619200.png2011-07-25 19:24 25K 
[IMG]Dry_coolheatbalance_ExnerDev_00619200.png2011-07-25 19:24 25K 
[IMG]Dry_coolheatbalance_50kmx20km-Tsfc245_ExnerDev_00374400.png2011-07-25 15:23 25K 
[IMG]Dry_coolheatbalance_ExnerDev_00374400.png2011-07-25 15:23 25K 
[IMG]Dry_coolheatbalance_50kmx20km-Tsfc245_ExnerDev_00576000.png2011-07-25 19:22 25K 
[IMG]Dry_coolheatbalance_ExnerDev_00576000.png2011-07-25 19:22 25K 
[IMG]Dry_coolheatbalance_50kmx20km-Tsfc245_ExnerDev_00540000.png2011-07-25 19:21 25K 
[IMG]Dry_coolheatbalance_ExnerDev_00540000.png2011-07-25 19:21 25K 
[IMG]Dry_coolheatbalance_50kmx20km-Tsfc245_ExnerDev_00579600.png2011-07-25 19:22 25K 
[IMG]Dry_coolheatbalance_ExnerDev_00579600.png2011-07-25 19:22 25K 
[IMG]Dry_coolheatbalance_50kmx20km-Tsfc245_ExnerDev_00831600.png2011-07-25 19:29 25K 
[IMG]Dry_coolheatbalance_ExnerDev_00831600.png2011-07-25 19:29 25K 
[IMG]Dry_coolheatbalance_50kmx20km-Tsfc245_ExnerDev_00792000.png2011-07-25 19:28 25K 
[IMG]Dry_coolheatbalance_ExnerDev_00792000.png2011-07-25 19:28 25K 
[IMG]Dry_coolheatbalance_50kmx20km-Tsfc245_ExnerDev_00604800.png2011-07-25 19:23 25K 
[IMG]Dry_coolheatbalance_50kmx20km-Tsfc245_ExnerDev_00853200.png2011-07-25 19:30 25K 
[IMG]Dry_coolheatbalance_ExnerDev_00604800.png2011-07-25 19:23 25K 
[IMG]Dry_coolheatbalance_ExnerDev_00853200.png2011-07-25 19:30 25K 
[IMG]Dry_coolheatbalance_50kmx20km-Tsfc245_ExnerDev_00385200.png2011-07-25 15:23 25K 
[IMG]Dry_coolheatbalance_ExnerDev_00385200.png2011-07-25 15:23 25K 
[IMG]Dry_coolheatbalance_50kmx20km-Tsfc245_ExnerDev_00748800.png2011-07-25 19:27 25K 
[IMG]Dry_coolheatbalance_ExnerDev_00748800.png2011-07-25 19:27 25K 
[IMG]Dry_coolheatbalance_50kmx20km-Tsfc245_ExnerDev_00615600.png2011-07-25 19:23 25K 
[IMG]Dry_coolheatbalance_ExnerDev_00615600.png2011-07-25 19:23 25K 
[IMG]Dry_coolheatbalance_50kmx20km-Tsfc245_ExnerDev_00032400.png2011-07-25 15:14 25K 
[IMG]Dry_coolheatbalance_ExnerDev_00032400.png2011-07-25 15:14 25K 
[IMG]Dry_coolheatbalance_50kmx20km-Tsfc245_ExnerDev_00450000.png2011-07-25 19:19 25K 
[IMG]Dry_coolheatbalance_ExnerDev_00450000.png2011-07-25 19:19 25K 
[IMG]Dry_coolheatbalance_50kmx20km-Tsfc245_ExnerDev_00367200.png2011-07-25 15:23 25K 
[IMG]Dry_coolheatbalance_ExnerDev_00367200.png2011-07-25 15:23 25K 
[IMG]Dry_coolheatbalance_50kmx20km-Tsfc245_ExnerDev_00399600.png2011-07-25 15:24 25K 
[IMG]Dry_coolheatbalance_ExnerDev_00399600.png2011-07-25 15:24 25K 
[IMG]Dry_coolheatbalance_50kmx20km-Tsfc245_ExnerDev_00471600.png2011-07-25 19:20 25K 
[IMG]Dry_coolheatbalance_ExnerDev_00471600.png2011-07-25 19:20 25K 
[IMG]Dry_coolheatbalance_50kmx20km-Tsfc245_ExnerDev_00543600.png2011-07-25 19:22 25K 
[IMG]Dry_coolheatbalance_ExnerDev_00543600.png2011-07-25 19:22 25K 
[IMG]Dry_coolheatbalance_50kmx20km-Tsfc245_ExnerDev_00414000.png2011-07-25 15:24 25K 
[IMG]Dry_coolheatbalance_ExnerDev_00414000.png2011-07-25 15:24 25K 
[IMG]Dry_coolheatbalance_50kmx20km-Tsfc245_ExnerDev_00842400.png2011-07-25 19:30 25K 
[IMG]Dry_coolheatbalance_ExnerDev_00842400.png2011-07-25 19:30 25K 
[IMG]Dry_coolheatbalance_50kmx20km-Tsfc245_ExnerDev_00453600.png2011-07-25 19:19 25K 
[IMG]Dry_coolheatbalance_50kmx20km-Tsfc245_ExnerDev_00486000.png2011-07-25 19:20 25K 
[IMG]Dry_coolheatbalance_ExnerDev_00453600.png2011-07-25 19:19 25K 
[IMG]Dry_coolheatbalance_ExnerDev_00486000.png2011-07-25 19:20 25K 
[IMG]Dry_coolheatbalance_50kmx20km-Tsfc245_ExnerDev_00075600.png2011-07-25 15:15 25K 
[IMG]Dry_coolheatbalance_ExnerDev_00075600.png2011-07-25 15:15 25K 
[IMG]Dry_coolheatbalance_50kmx20km-Tsfc245_ExnerDev_00712800.png2011-07-25 19:26 25K 
[IMG]Dry_coolheatbalance_ExnerDev_00712800.png2011-07-25 19:26 25K 
[IMG]Dry_coolheatbalance_50kmx20km-Tsfc245_ExnerDev_00187200.png2011-07-25 15:18 25K 
[IMG]Dry_coolheatbalance_ExnerDev_00187200.png2011-07-25 15:18 25K 
[IMG]Dry_coolheatbalance_50kmx20km-Tsfc245_ExnerDev_00698400.png2011-07-25 19:26 25K 
[IMG]Dry_coolheatbalance_ExnerDev_00698400.png2011-07-25 19:26 25K 
[IMG]Dry_coolheatbalance_50kmx20km-Tsfc245_ExnerDev_00565200.png2011-07-25 19:22 25K 
[IMG]Dry_coolheatbalance_50kmx20km-Tsfc245_ExnerDev_00774000.png2011-07-25 19:28 25K 
[IMG]Dry_coolheatbalance_ExnerDev_00565200.png2011-07-25 19:22 25K 
[IMG]Dry_coolheatbalance_ExnerDev_00774000.png2011-07-25 19:28 25K 
[IMG]Dry_coolheatbalance_50kmx20km-Tsfc245_ExnerDev_00144000.png2011-07-25 15:17 25K 
[IMG]Dry_coolheatbalance_50kmx20km-Tsfc245_ExnerDev_00417600.png2011-07-25 15:24 25K 
[IMG]Dry_coolheatbalance_ExnerDev_00144000.png2011-07-25 15:17 25K 
[IMG]Dry_coolheatbalance_ExnerDev_00417600.png2011-07-25 15:24 25K 
[IMG]Dry_coolheatbalance_50kmx20km-Tsfc245_ExnerDev_00306000.png2011-07-25 15:21 25K 
[IMG]Dry_coolheatbalance_ExnerDev_00306000.png2011-07-25 15:21 25K 
[IMG]Dry_coolheatbalance_50kmx20km-Tsfc245_ExnerDev_00752400.png2011-07-25 19:27 25K 
[IMG]Dry_coolheatbalance_ExnerDev_00752400.png2011-07-25 19:27 25K 
[IMG]Dry_coolheatbalance_50kmx20km-Tsfc245_ExnerDev_00586800.png2011-07-25 19:23 25K 
[IMG]Dry_coolheatbalance_ExnerDev_00586800.png2011-07-25 19:23 25K 
[IMG]Dry_coolheatbalance_50kmx20km-Tsfc245_ExnerDev_00720000.png2011-07-25 19:26 25K 
[IMG]Dry_coolheatbalance_ExnerDev_00720000.png2011-07-25 19:26 25K 
[IMG]Dry_coolheatbalance_50kmx20km-Tsfc245_ExnerDev_00025200.png2011-07-25 15:13 25K 
[IMG]Dry_coolheatbalance_ExnerDev_00025200.png2011-07-25 15:13 25K 
[IMG]Dry_coolheatbalance_50kmx20km-Tsfc245_ExnerDev_00525600.png2011-07-25 19:21 25K 
[IMG]Dry_coolheatbalance_ExnerDev_00525600.png2011-07-25 19:21 25K 
[IMG]Dry_coolheatbalance_50kmx20km-Tsfc245_ExnerDev_00468000.png2011-07-25 19:19 25K 
[IMG]Dry_coolheatbalance_ExnerDev_00468000.png2011-07-25 19:19 25K 
[IMG]Dry_coolheatbalance_50kmx20km-Tsfc245_ExnerDev_00640800.png2011-07-25 19:24 25K 
[IMG]Dry_coolheatbalance_ExnerDev_00640800.png2011-07-25 19:24 25K 
[IMG]Dry_coolheatbalance_50kmx20km-Tsfc245_ExnerDev_00162000.png2011-07-25 15:17 25K 
[IMG]Dry_coolheatbalance_ExnerDev_00162000.png2011-07-25 15:17 25K 
[IMG]Dry_coolheatbalance_50kmx20km-Tsfc245_ExnerDev_00108000.png2011-07-25 15:16 25K 
[IMG]Dry_coolheatbalance_ExnerDev_00108000.png2011-07-25 15:16 25K 
[IMG]Dry_coolheatbalance_50kmx20km-Tsfc245_ExnerDev_00626400.png2011-07-25 19:24 25K 
[IMG]Dry_coolheatbalance_ExnerDev_00626400.png2011-07-25 19:24 25K 
[IMG]Dry_coolheatbalance_50kmx20km-Tsfc245_ExnerDev_00482400.png2011-07-25 19:20 25K 
[IMG]Dry_coolheatbalance_ExnerDev_00482400.png2011-07-25 19:20 25K 
[IMG]Dry_coolheatbalance_50kmx20km-Tsfc245_ExnerDev_00504000.png2011-07-25 19:20 25K 
[IMG]Dry_coolheatbalance_ExnerDev_00504000.png2011-07-25 19:20 25K 
[IMG]Dry_coolheatbalance_50kmx20km-Tsfc245_ExnerDev_00770400.png2011-07-25 19:28 25K 
[IMG]Dry_coolheatbalance_ExnerDev_00770400.png2011-07-25 19:28 25K 
[IMG]Dry_coolheatbalance_50kmx20km-Tsfc245_ExnerDev_00756000.png2011-07-25 19:27 25K 
[IMG]Dry_coolheatbalance_ExnerDev_00756000.png2011-07-25 19:27 25K 
[IMG]Dry_coolheatbalance_50kmx20km-Tsfc245_ExnerDev_00547200.png2011-07-25 19:22 25K 
[IMG]Dry_coolheatbalance_ExnerDev_00547200.png2011-07-25 19:22 25K 
[IMG]Dry_coolheatbalance_50kmx20km-Tsfc245_ExnerDev_00781200.png2011-07-25 19:28 25K 
[IMG]Dry_coolheatbalance_ExnerDev_00781200.png2011-07-25 19:28 25K 
[IMG]Dry_coolheatbalance_50kmx20km-Tsfc245_ExnerDev_00759600.png2011-07-25 19:27 25K 
[IMG]Dry_coolheatbalance_ExnerDev_00759600.png2011-07-25 19:27 25K 
[IMG]Dry_coolheatbalance_50kmx20km-Tsfc245_ExnerDev_00716400.png2011-07-25 19:26 25K 
[IMG]Dry_coolheatbalance_ExnerDev_00716400.png2011-07-25 19:26 25K 
[IMG]Dry_coolheatbalance_50kmx20km-Tsfc245_ExnerDev_00590400.png2011-07-25 19:23 25K 
[IMG]Dry_coolheatbalance_ExnerDev_00590400.png2011-07-25 19:23 25K 
[IMG]Dry_coolheatbalance_50kmx20km-Tsfc245_ExnerDev_00648000.png2011-07-25 19:24 25K 
[IMG]Dry_coolheatbalance_ExnerDev_00648000.png2011-07-25 19:24 25K 
[IMG]Dry_coolheatbalance_50kmx20km-Tsfc245_ExnerDev_00464400.png2011-07-25 19:19 25K 
[IMG]Dry_coolheatbalance_ExnerDev_00464400.png2011-07-25 19:19 25K 
[IMG]Dry_coolheatbalance_50kmx20km-Tsfc245_ExnerDev_00608400.png2011-07-25 19:23 25K 
[IMG]Dry_coolheatbalance_ExnerDev_00608400.png2011-07-25 19:23 25K 
[IMG]Dry_coolheatbalance_50kmx20km-Tsfc245_ExnerDev_00633600.png2011-07-25 19:24 25K 
[IMG]Dry_coolheatbalance_ExnerDev_00633600.png2011-07-25 19:24 25K 
[IMG]Dry_coolheatbalance_50kmx20km-Tsfc245_ExnerDev_00489600.png2011-07-25 19:20 25K 
[IMG]Dry_coolheatbalance_ExnerDev_00489600.png2011-07-25 19:20 25K 
[IMG]Dry_coolheatbalance_50kmx20km-Tsfc245_ExnerDev_00572400.png2011-07-25 19:22 25K 
[IMG]Dry_coolheatbalance_ExnerDev_00572400.png2011-07-25 19:22 25K 
[IMG]Dry_coolheatbalance_50kmx20km-Tsfc245_ExnerDev_00500400.png2011-07-25 19:20 25K 
[IMG]Dry_coolheatbalance_ExnerDev_00500400.png2011-07-25 19:20 25K 
[IMG]Dry_coolheatbalance_50kmx20km-Tsfc245_ExnerDev_00766800.png2011-07-25 19:28 25K 
[IMG]Dry_coolheatbalance_ExnerDev_00766800.png2011-07-25 19:28 25K 
[IMG]Dry_coolheatbalance_50kmx20km-Tsfc245_ExnerDev_00795600.png2011-07-25 19:28 25K 
[IMG]Dry_coolheatbalance_ExnerDev_00795600.png2011-07-25 19:28 25K 
[IMG]Dry_coolheatbalance_50kmx20km-Tsfc245_ExnerDev_00687600.png2011-07-25 19:25 25K 
[IMG]Dry_coolheatbalance_ExnerDev_00687600.png2011-07-25 19:25 25K 
[IMG]Dry_coolheatbalance_50kmx20km-Tsfc245_ExnerDev_00738000.png2011-07-25 19:27 25K 
[IMG]Dry_coolheatbalance_ExnerDev_00738000.png2011-07-25 19:27 25K 
[IMG]Dry_coolheatbalance_50kmx20km-Tsfc245_ExnerDev_00741600.png2011-07-25 19:27 25K 
[IMG]Dry_coolheatbalance_ExnerDev_00741600.png2011-07-25 19:27 25K 
[IMG]Dry_coolheatbalance_50kmx20km-Tsfc245_ExnerDev_00266400.png2011-07-25 15:20 25K 
[IMG]Dry_coolheatbalance_ExnerDev_00266400.png2011-07-25 15:20 25K 
[IMG]Dry_coolheatbalance_50kmx20km-Tsfc245_ExnerDev_00630000.png2011-07-25 19:24 25K 
[IMG]Dry_coolheatbalance_ExnerDev_00630000.png2011-07-25 19:24 25K 
[IMG]Dry_coolheatbalance_50kmx20km-Tsfc245_ExnerDev_00644400.png2011-07-25 19:24 26K 
[IMG]Dry_coolheatbalance_ExnerDev_00644400.png2011-07-25 19:24 26K 
[IMG]Dry_coolheatbalance_50kmx20km-Tsfc245_ExnerDev_00802800.png2011-07-25 19:29 26K 
[IMG]Dry_coolheatbalance_ExnerDev_00802800.png2011-07-25 19:29 26K 
[IMG]Dry_coolheatbalance_50kmx20km-Tsfc245_ExnerDev_00763200.png2011-07-25 19:28 26K 
[IMG]Dry_coolheatbalance_ExnerDev_00763200.png2011-07-25 19:28 26K 
[IMG]Dry_coolheatbalance_50kmx20km-Tsfc245_ExnerDev_00637200.png2011-07-25 19:24 26K 
[IMG]Dry_coolheatbalance_ExnerDev_00637200.png2011-07-25 19:24 26K 
[IMG]Dry_coolheatbalance_50kmx20km-Tsfc245_ExnerDev_00691200.png2011-07-25 19:26 26K 
[IMG]Dry_coolheatbalance_ExnerDev_00691200.png2011-07-25 19:26 26K 
[IMG]Dry_coolheatbalance_50kmx20km-Tsfc245_ExnerDev_00597600.png2011-07-25 19:23 26K 
[IMG]Dry_coolheatbalance_ExnerDev_00597600.png2011-07-25 19:23 26K 
[IMG]Dry_coolheatbalance_50kmx20km-Tsfc245_ExnerDev_00601200.png2011-07-25 19:23 26K 
[IMG]Dry_coolheatbalance_ExnerDev_00601200.png2011-07-25 19:23 26K 
[IMG]Dry_coolheatbalance_50kmx20km-Tsfc245_ExnerDev_00799200.png2011-07-25 19:29 26K 
[IMG]Dry_coolheatbalance_ExnerDev_00799200.png2011-07-25 19:29 26K 
[IMG]Dry_coolheatbalance_50kmx20km-Tsfc245_ExnerDev_00583200.png2011-07-25 19:23 26K 
[IMG]Dry_coolheatbalance_ExnerDev_00583200.png2011-07-25 19:23 26K 
[IMG]Dry_coolheatbalance_50kmx20km-Tsfc245_PotTempDev_00003600.png2011-07-25 15:13 30K 
[IMG]Dry_coolheatbalance_50kmx20km-Tsfc245_Km_00018000.png2011-07-25 15:13 37K 
[IMG]Dry_coolheatbalance_50kmx20km-Tsfc245_Km_00010800.png2011-07-25 15:13 37K 
[IMG]Dry_coolheatbalance_50kmx20km-Tsfc245_Km_00007200.png2011-07-25 15:13 38K 
[IMG]Dry_coolheatbalance_50kmx20km-Tsfc245_Km_00014400.png2011-07-25 15:13 38K 
[IMG]Dry_coolheatbalance_50kmx20km-Tsfc245_Km_00036000.png2011-07-25 15:14 38K 
[IMG]Dry_coolheatbalance_50kmx20km-Tsfc245_Km_00064800.png2011-07-25 15:14 38K 
[IMG]Dry_coolheatbalance_50kmx20km-Tsfc245_Km_00021600.png2011-07-25 15:13 38K 
[IMG]Dry_coolheatbalance_50kmx20km-Tsfc245_Km_00057600.png2011-07-25 15:14 39K 
[IMG]Dry_coolheatbalance_50kmx20km-Tsfc245_Km_00054000.png2011-07-25 15:14 39K 
[IMG]Dry_coolheatbalance_50kmx20km-Tsfc245_Km_00050400.png2011-07-25 15:14 39K 
[IMG]Dry_coolheatbalance_50kmx20km-Tsfc245_Km_00122400.png2011-07-25 15:16 39K 
[IMG]Dry_coolheatbalance_50kmx20km-Tsfc245_Km_00100800.png2011-07-25 15:16 40K 
[IMG]Dry_coolheatbalance_50kmx20km-Tsfc245_Km_00046800.png2011-07-25 15:14 40K 
[IMG]Dry_coolheatbalance_50kmx20km-Tsfc245_Km_00126000.png2011-07-25 15:16 40K 
[IMG]Dry_coolheatbalance_50kmx20km-Tsfc245_Km_00072000.png2011-07-25 15:15 40K 
[IMG]Dry_coolheatbalance_50kmx20km-Tsfc245_Km_00086400.png2011-07-25 15:15 40K 
[IMG]Dry_coolheatbalance_50kmx20km-Tsfc245_Km_00032400.png2011-07-25 15:14 40K 
[IMG]Dry_coolheatbalance_50kmx20km-Tsfc245_Km_00151200.png2011-07-25 15:17 40K 
[IMG]Dry_coolheatbalance_50kmx20km-Tsfc245_Km_00039600.png2011-07-25 15:14 40K 
[IMG]Dry_coolheatbalance_50kmx20km-Tsfc245_Km_00061200.png2011-07-25 15:14 40K 
[IMG]Dry_coolheatbalance_50kmx20km-Tsfc245_Km_00111600.png2011-07-25 15:16 40K 
[IMG]Dry_coolheatbalance_50kmx20km-Tsfc245_Km_00043200.png2011-07-25 15:14 40K 
[IMG]Dry_coolheatbalance_50kmx20km-Tsfc245_Km_00079200.png2011-07-25 15:15 41K 
[IMG]Dry_coolheatbalance_50kmx20km-Tsfc245_Km_00129600.png2011-07-25 15:16 41K 
[IMG]Dry_coolheatbalance_50kmx20km-Tsfc245_Km_00172800.png2011-07-25 15:17 41K 
[IMG]Dry_coolheatbalance_50kmx20km-Tsfc245_Km_00338400.png2011-07-25 15:22 41K 
[IMG]Dry_coolheatbalance_50kmx20km-Tsfc245_Km_00154800.png2011-07-25 15:17 41K 
[IMG]Dry_coolheatbalance_50kmx20km-Tsfc245_Km_00028800.png2011-07-25 15:13 41K 
[IMG]Dry_coolheatbalance_50kmx20km-Tsfc245_Km_00158400.png2011-07-25 15:17 41K 
[IMG]Dry_coolheatbalance_50kmx20km-Tsfc245_Km_00144000.png2011-07-25 15:17 41K 
[IMG]Dry_coolheatbalance_50kmx20km-Tsfc245_Km_00230400.png2011-07-25 15:19 41K 
[IMG]Dry_coolheatbalance_50kmx20km-Tsfc245_Km_00162000.png2011-07-25 15:17 41K 
[IMG]Dry_coolheatbalance_50kmx20km-Tsfc245_Km_00226800.png2011-07-25 15:19 41K 
[IMG]Dry_coolheatbalance_50kmx20km-Tsfc245_Km_00558000.png2011-07-25 19:22 41K 
[IMG]Dry_coolheatbalance_50kmx20km-Tsfc245_Km_00025200.png2011-07-25 15:13 41K 
[IMG]Dry_coolheatbalance_50kmx20km-Tsfc245_Km_00140400.png2011-07-25 15:17 41K 
[IMG]Dry_coolheatbalance_50kmx20km-Tsfc245_Km_00244800.png2011-07-25 15:19 41K 
[IMG]Dry_coolheatbalance_50kmx20km-Tsfc245_Km_00136800.png2011-07-25 15:17 42K 
[IMG]Dry_coolheatbalance_50kmx20km-Tsfc245_Km_00266400.png2011-07-25 15:20 42K 
[IMG]Dry_coolheatbalance_50kmx20km-Tsfc245_Km_00738000.png2011-07-25 19:27 42K 
[IMG]Dry_coolheatbalance_50kmx20km-Tsfc245_Km_00147600.png2011-07-25 15:17 42K 
[IMG]Dry_coolheatbalance_50kmx20km-Tsfc245_Km_00478800.png2011-07-25 19:20 42K 
[IMG]Dry_coolheatbalance_50kmx20km-Tsfc245_Km_00453600.png2011-07-25 19:19 42K 
[IMG]Dry_coolheatbalance_50kmx20km-Tsfc245_Km_00212400.png2011-07-25 15:19 42K 
[IMG]Dry_coolheatbalance_50kmx20km-Tsfc245_Km_00075600.png2011-07-25 15:15 42K 
[IMG]Dry_coolheatbalance_50kmx20km-Tsfc245_Km_00208800.png2011-07-25 15:18 42K 
[IMG]Dry_coolheatbalance_50kmx20km-Tsfc245_Km_00288000.png2011-07-25 15:21 42K 
[IMG]Dry_coolheatbalance_50kmx20km-Tsfc245_Km_00302400.png2011-07-25 15:21 42K 
[IMG]Dry_coolheatbalance_50kmx20km-Tsfc245_Km_00165600.png2011-07-25 15:17 42K 
[IMG]Dry_coolheatbalance_50kmx20km-Tsfc245_Km_00082800.png2011-07-25 15:15 42K 
[IMG]Dry_coolheatbalance_50kmx20km-Tsfc245_Km_00194400.png2011-07-25 15:18 42K 
[IMG]Dry_coolheatbalance_50kmx20km-Tsfc245_Km_00169200.png2011-07-25 15:17 42K 
[IMG]Dry_coolheatbalance_50kmx20km-Tsfc245_Km_00522000.png2011-07-25 19:21 42K 
[IMG]Dry_coolheatbalance_50kmx20km-Tsfc245_Km_00133200.png2011-07-25 15:16 42K 
[IMG]Dry_coolheatbalance_50kmx20km-Tsfc245_Km_00068400.png2011-07-25 15:15 42K 
[IMG]Dry_coolheatbalance_50kmx20km-Tsfc245_Km_00320400.png2011-07-25 15:22 42K 
[IMG]Dry_coolheatbalance_50kmx20km-Tsfc245_Km_00594000.png2011-07-25 19:23 42K 
[IMG]Dry_coolheatbalance_50kmx20km-Tsfc245_Km_00190800.png2011-07-25 15:18 42K 
[IMG]Dry_coolheatbalance_50kmx20km-Tsfc245_Km_00392400.png2011-07-25 15:24 42K 
[IMG]Dry_coolheatbalance_50kmx20km-Tsfc245_Km_00590400.png2011-07-25 19:23 43K 
[IMG]Dry_coolheatbalance_50kmx20km-Tsfc245_Km_00309600.png2011-07-25 15:21 43K 
[IMG]Dry_coolheatbalance_50kmx20km-Tsfc245_Km_00475200.png2011-07-25 19:20 43K 
[IMG]Dry_coolheatbalance_50kmx20km-Tsfc245_Km_00525600.png2011-07-25 19:21 43K 
[IMG]Dry_coolheatbalance_50kmx20km-Tsfc245_Km_00349200.png2011-07-25 15:22 43K 
[IMG]Dry_coolheatbalance_50kmx20km-Tsfc245_PotTempDev_00741600.png2011-07-25 19:27 43K 
[IMG]Dry_coolheatbalance_50kmx20km-Tsfc245_Km_00183600.png2011-07-25 15:18 43K 
[IMG]Dry_coolheatbalance_50kmx20km-Tsfc245_Km_00684000.png2011-07-25 19:25 43K 
[IMG]Dry_coolheatbalance_50kmx20km-Tsfc245_Km_00104400.png2011-07-25 15:16 43K 
[IMG]Dry_coolheatbalance_50kmx20km-Tsfc245_Km_00612000.png2011-07-25 19:23 43K 
[IMG]Dry_coolheatbalance_50kmx20km-Tsfc245_Km_00723600.png2011-07-25 19:26 43K 
[IMG]Dry_coolheatbalance_50kmx20km-Tsfc245_Km_00381600.png2011-07-25 15:23 43K 
[IMG]Dry_coolheatbalance_50kmx20km-Tsfc245_Km_00205200.png2011-07-25 15:18 43K 
[IMG]Dry_coolheatbalance_50kmx20km-Tsfc245_Km_00176400.png2011-07-25 15:18 43K 
[IMG]Dry_coolheatbalance_50kmx20km-Tsfc245_Km_00457200.png2011-07-25 19:19 43K 
[IMG]Dry_coolheatbalance_50kmx20km-Tsfc245_Km_00216000.png2011-07-25 15:19 43K 
[IMG]Dry_coolheatbalance_50kmx20km-Tsfc245_Km_00180000.png2011-07-25 15:18 43K 
[IMG]Dry_coolheatbalance_50kmx20km-Tsfc245_Km_00118800.png2011-07-25 15:16 43K 
[IMG]Dry_coolheatbalance_50kmx20km-Tsfc245_PotTempDev_00810000.png2011-07-25 19:29 43K 
[IMG]Dry_coolheatbalance_50kmx20km-Tsfc245_Km_00442800.png2011-07-25 19:19 43K 
[IMG]Dry_coolheatbalance_50kmx20km-Tsfc245_Km_00439200.png2011-07-25 19:19 43K 
[IMG]Dry_coolheatbalance_50kmx20km-Tsfc245_Km_00410400.png2011-07-25 15:24 43K 
[IMG]Dry_coolheatbalance_50kmx20km-Tsfc245_Km_00234000.png2011-07-25 15:19 43K 
[IMG]Dry_coolheatbalance_50kmx20km-Tsfc245_Km_00637200.png2011-07-25 19:24 43K 
[IMG]Dry_coolheatbalance_50kmx20km-Tsfc245_Km_00356400.png2011-07-25 15:23 43K 
[IMG]Dry_coolheatbalance_50kmx20km-Tsfc245_Km_00277200.png2011-07-25 15:20 43K 
[IMG]Dry_coolheatbalance_50kmx20km-Tsfc245_Km_00345600.png2011-07-25 15:22 43K 
[IMG]Dry_coolheatbalance_50kmx20km-Tsfc245_Km_00378000.png2011-07-25 15:23 43K 
[IMG]Dry_coolheatbalance_50kmx20km-Tsfc245_Km_00316800.png2011-07-25 15:21 43K 
[IMG]Dry_coolheatbalance_50kmx20km-Tsfc245_Km_00403200.png2011-07-25 15:24 43K 
[IMG]Dry_coolheatbalance_50kmx20km-Tsfc245_Km_00709200.png2011-07-25 19:26 43K 
[IMG]Dry_coolheatbalance_50kmx20km-Tsfc245_Km_00306000.png2011-07-25 15:21 43K 
[IMG]Dry_coolheatbalance_50kmx20km-Tsfc245_Km_00248400.png2011-07-25 15:20 43K 
[IMG]Dry_coolheatbalance_50kmx20km-Tsfc245_Km_00097200.png2011-07-25 15:15 43K 
[IMG]Dry_coolheatbalance_50kmx20km-Tsfc245_Km_00262800.png2011-07-25 15:20 43K 
[IMG]Dry_coolheatbalance_50kmx20km-Tsfc245_Km_00388800.png2011-07-25 15:24 43K 
[IMG]Dry_coolheatbalance_50kmx20km-Tsfc245_Km_00414000.png2011-07-25 15:24 43K 
[IMG]Dry_coolheatbalance_50kmx20km-Tsfc245_Km_00518400.png2011-07-25 19:21 43K 
[IMG]Dry_coolheatbalance_50kmx20km-Tsfc245_Km_00324000.png2011-07-25 15:22 43K 
[IMG]Dry_coolheatbalance_50kmx20km-Tsfc245_Km_00115200.png2011-07-25 15:16 43K 
[IMG]Dry_coolheatbalance_50kmx20km-Tsfc245_Km_00270000.png2011-07-25 15:20 43K 
[IMG]Dry_coolheatbalance_50kmx20km-Tsfc245_Km_00237600.png2011-07-25 15:19 44K 
[IMG]Dry_coolheatbalance_50kmx20km-Tsfc245_Km_00295200.png2011-07-25 15:21 44K 
[IMG]Dry_coolheatbalance_50kmx20km-Tsfc245_Km_00363600.png2011-07-25 15:23 44K 
[IMG]Dry_coolheatbalance_50kmx20km-Tsfc245_Km_00273600.png2011-07-25 15:20 44K 
[IMG]Dry_coolheatbalance_50kmx20km-Tsfc245_Km_00334800.png2011-07-25 15:22 44K 
[IMG]Dry_coolheatbalance_50kmx20km-Tsfc245_Km_00597600.png2011-07-25 19:23 44K 
[IMG]Dry_coolheatbalance_50kmx20km-Tsfc245_Km_00651600.png2011-07-25 19:25 44K 
[IMG]Dry_coolheatbalance_50kmx20km-Tsfc245_Km_00291600.png2011-07-25 15:21 44K 
[IMG]Dry_coolheatbalance_50kmx20km-Tsfc245_Km_00496800.png2011-07-25 19:20 44K 
[IMG]Dry_coolheatbalance_50kmx20km-Tsfc245_Km_00460800.png2011-07-25 19:19 44K 
[IMG]Dry_coolheatbalance_50kmx20km-Tsfc245_Km_00108000.png2011-07-25 15:16 44K 
[IMG]Dry_coolheatbalance_50kmx20km-Tsfc245_Km_00734400.png2011-07-25 19:27 44K 
[IMG]Dry_coolheatbalance_50kmx20km-Tsfc245_Km_00835200.png2011-07-25 19:30 44K 
[IMG]Dry_coolheatbalance_50kmx20km-Tsfc245_Km_00370800.png2011-07-25 15:23 44K 
[IMG]Dry_coolheatbalance_50kmx20km-Tsfc245_Km_00298800.png2011-07-25 15:21 44K 
[IMG]Dry_coolheatbalance_50kmx20km-Tsfc245_Km_00432000.png2011-07-25 19:19 44K 
[IMG]Dry_coolheatbalance_50kmx20km-Tsfc245_Km_00540000.png2011-07-25 19:21 44K 
[IMG]Dry_coolheatbalance_50kmx20km-Tsfc245_Km_00399600.png2011-07-25 15:24 44K 
[IMG]Dry_coolheatbalance_50kmx20km-Tsfc245_Km_00673200.png2011-07-25 19:25 44K 
[IMG]Dry_coolheatbalance_50kmx20km-Tsfc245_Km_00428400.png2011-07-25 15:25 44K 
[IMG]Dry_coolheatbalance_50kmx20km-Tsfc245_Km_00543600.png2011-07-25 19:22 44K 
[IMG]Dry_coolheatbalance_50kmx20km-Tsfc245_Km_00090000.png2011-07-25 15:15 44K 
[IMG]Dry_coolheatbalance_50kmx20km-Tsfc245_Km_00626400.png2011-07-25 19:24 44K 
[IMG]Dry_coolheatbalance_50kmx20km-Tsfc245_Km_00640800.png2011-07-25 19:24 44K 
[IMG]Dry_coolheatbalance_50kmx20km-Tsfc245_Km_00255600.png2011-07-25 15:20 44K 
[IMG]Dry_coolheatbalance_50kmx20km-Tsfc245_Km_00352800.png2011-07-25 15:23 44K 
[IMG]Dry_coolheatbalance_50kmx20km-Tsfc245_Km_00187200.png2011-07-25 15:18 44K 
[IMG]Dry_coolheatbalance_50kmx20km-Tsfc245_Km_00493200.png2011-07-25 19:20 44K 
[IMG]Dry_coolheatbalance_50kmx20km-Tsfc245_PotTempDev_00752400.png2011-07-25 19:27 44K 
[IMG]Dry_coolheatbalance_50kmx20km-Tsfc245_Km_00284400.png2011-07-25 15:21 44K 
[IMG]Dry_coolheatbalance_50kmx20km-Tsfc245_Km_00093600.png2011-07-25 15:15 44K 
[IMG]Dry_coolheatbalance_50kmx20km-Tsfc245_Km_00680400.png2011-07-25 19:25 44K 
[IMG]Dry_coolheatbalance_50kmx20km-Tsfc245_Km_00572400.png2011-07-25 19:22 44K 
[IMG]Dry_coolheatbalance_50kmx20km-Tsfc245_Km_00730800.png2011-07-25 19:27 44K 
[IMG]Dry_coolheatbalance_50kmx20km-Tsfc245_Km_00694800.png2011-07-25 19:26 44K 
[IMG]Dry_coolheatbalance_50kmx20km-Tsfc245_PotTempDev_00748800.png2011-07-25 19:27 44K 
[IMG]Dry_coolheatbalance_50kmx20km-Tsfc245_Km_00313200.png2011-07-25 15:21 44K 
[IMG]Dry_coolheatbalance_50kmx20km-Tsfc245_Km_00777600.png2011-07-25 19:28 44K 
[IMG]Dry_coolheatbalance_50kmx20km-Tsfc245_Km_00586800.png2011-07-25 19:23 44K 
[IMG]Dry_coolheatbalance_50kmx20km-Tsfc245_Km_00536400.png2011-07-25 19:21 44K 
[IMG]Dry_coolheatbalance_50kmx20km-Tsfc245_PotTempDev_00626400.png2011-07-25 19:24 44K 
[IMG]Dry_coolheatbalance_50kmx20km-Tsfc245_Km_00280800.png2011-07-25 15:20 44K 
[IMG]Dry_coolheatbalance_50kmx20km-Tsfc245_Km_00435600.png2011-07-25 19:19 44K 
[IMG]Dry_coolheatbalance_50kmx20km-Tsfc245_Km_00342000.png2011-07-25 15:22 44K 
[IMG]Dry_coolheatbalance_50kmx20km-Tsfc245_Km_00784800.png2011-07-25 19:28 44K 
[IMG]Dry_coolheatbalance_50kmx20km-Tsfc245_Km_00565200.png2011-07-25 19:22 45K 
[IMG]Dry_coolheatbalance_50kmx20km-Tsfc245_PotTempDev_00284400.png2011-07-25 15:21 45K 
[IMG]Dry_coolheatbalance_50kmx20km-Tsfc245_Km_00579600.png2011-07-25 19:23 45K 
[IMG]Dry_coolheatbalance_50kmx20km-Tsfc245_PotTempDev_00277200.png2011-07-25 15:20 45K 
[IMG]Dry_coolheatbalance_50kmx20km-Tsfc245_Km_00259200.png2011-07-25 15:20 45K 
[IMG]Dry_coolheatbalance_50kmx20km-Tsfc245_Km_00482400.png2011-07-25 19:20 45K 
[IMG]Dry_coolheatbalance_50kmx20km-Tsfc245_Km_00489600.png2011-07-25 19:20 45K 
[IMG]Dry_coolheatbalance_50kmx20km-Tsfc245_PotTempDev_00687600.png2011-07-25 19:25 45K 
[IMG]Dry_coolheatbalance_50kmx20km-Tsfc245_Km_00561600.png2011-07-25 19:22 45K 
[IMG]Dry_coolheatbalance_50kmx20km-Tsfc245_Km_00756000.png2011-07-25 19:27 45K 
[IMG]Dry_coolheatbalance_50kmx20km-Tsfc245_Km_00716400.png2011-07-25 19:26 45K 
[IMG]Dry_coolheatbalance_50kmx20km-Tsfc245_Km_00360000.png2011-07-25 15:23 45K 
[IMG]Dry_coolheatbalance_50kmx20km-Tsfc245_Km_00241200.png2011-07-25 15:19 45K 
[IMG]Dry_coolheatbalance_50kmx20km-Tsfc245_Km_00554400.png2011-07-25 19:22 45K 
[IMG]Dry_coolheatbalance_50kmx20km-Tsfc245_Km_00655200.png2011-07-25 19:25 45K 
[IMG]Dry_coolheatbalance_50kmx20km-Tsfc245_PotTempDev_00208800.png2011-07-25 15:18 45K 
[IMG]Dry_coolheatbalance_50kmx20km-Tsfc245_Km_00583200.png2011-07-25 19:23 45K 
[IMG]Dry_coolheatbalance_50kmx20km-Tsfc245_PotTempDev_00316800.png2011-07-25 15:21 45K 
[IMG]Dry_coolheatbalance_50kmx20km-Tsfc245_PotTempDev_00720000.png2011-07-25 19:26 45K 
[IMG]Dry_coolheatbalance_50kmx20km-Tsfc245_Km_00648000.png2011-07-25 19:24 45K 
[IMG]Dry_coolheatbalance_50kmx20km-Tsfc245_Km_00547200.png2011-07-25 19:22 45K 
[IMG]Dry_coolheatbalance_50kmx20km-Tsfc245_PotTempDev_00273600.png2011-07-25 15:20 45K 
[IMG]Dry_coolheatbalance_50kmx20km-Tsfc245_Km_00471600.png2011-07-25 19:20 45K 
[IMG]Dry_coolheatbalance_50kmx20km-Tsfc245_PotTempDev_00684000.png2011-07-25 19:25 45K 
[IMG]Dry_coolheatbalance_50kmx20km-Tsfc245_Km_00327600.png2011-07-25 15:22 45K 
[IMG]Dry_coolheatbalance_50kmx20km-Tsfc245_Km_00705600.png2011-07-25 19:26 45K 
[IMG]Dry_coolheatbalance_50kmx20km-Tsfc245_Km_00417600.png2011-07-25 15:24 45K 
[IMG]Dry_coolheatbalance_50kmx20km-Tsfc245_Km_00198000.png2011-07-25 15:18 45K 
[IMG]Dry_coolheatbalance_50kmx20km-Tsfc245_Km_00788400.png2011-07-25 19:28 45K 
[IMG]Dry_coolheatbalance_50kmx20km-Tsfc245_Km_00615600.png2011-07-25 19:24 45K 
[IMG]Dry_coolheatbalance_50kmx20km-Tsfc245_Km_00424800.png2011-07-25 15:25 45K 
[IMG]Dry_coolheatbalance_50kmx20km-Tsfc245_Km_00817200.png2011-07-25 19:29 45K 
[IMG]Dry_coolheatbalance_50kmx20km-Tsfc245_Km_00838800.png2011-07-25 19:30 45K 
[IMG]Dry_coolheatbalance_50kmx20km-Tsfc245_Km_00514800.png2011-07-25 19:21 45K 
[IMG]Dry_coolheatbalance_50kmx20km-Tsfc245_Km_00252000.png2011-07-25 15:20 45K 
[IMG]Dry_coolheatbalance_50kmx20km-Tsfc245_Km_00446400.png2011-07-25 19:19 45K 
[IMG]Dry_coolheatbalance_50kmx20km-Tsfc245_PotTempDev_00612000.png2011-07-25 19:23 45K 
[IMG]Dry_coolheatbalance_50kmx20km-Tsfc245_Km_00223200.png2011-07-25 15:19 45K 
[IMG]Dry_coolheatbalance_50kmx20km-Tsfc245_Km_00752400.png2011-07-25 19:27 45K 
[IMG]Dry_coolheatbalance_50kmx20km-Tsfc245_Km_00748800.png2011-07-25 19:27 45K 
[IMG]Dry_coolheatbalance_50kmx20km-Tsfc245_Km_00766800.png2011-07-25 19:28 45K 
[IMG]Dry_coolheatbalance_50kmx20km-Tsfc245_Km_00745200.png2011-07-25 19:27 45K 
[IMG]Dry_coolheatbalance_50kmx20km-Tsfc245_Km_00374400.png2011-07-25 15:23 45K 
[IMG]Dry_coolheatbalance_50kmx20km-Tsfc245_PotTempDev_00558000.png2011-07-25 19:22 45K 
[IMG]Dry_coolheatbalance_50kmx20km-Tsfc245_PotTempDev_00655200.png2011-07-25 19:25 45K 
[IMG]Dry_coolheatbalance_50kmx20km-Tsfc245_PotTempDev_00586800.png2011-07-25 19:23 45K 
[IMG]Dry_coolheatbalance_50kmx20km-Tsfc245_Km_00406800.png2011-07-25 15:24 45K 
[IMG]Dry_coolheatbalance_50kmx20km-Tsfc245_Km_00702000.png2011-07-25 19:26 45K 
[IMG]Dry_coolheatbalance_50kmx20km-Tsfc245_Km_00464400.png2011-07-25 19:19 45K 
[IMG]Dry_coolheatbalance_50kmx20km-Tsfc245_Km_00763200.png2011-07-25 19:28 45K 
[IMG]Dry_coolheatbalance_50kmx20km-Tsfc245_Km_00676800.png2011-07-25 19:25 45K 
[IMG]Dry_coolheatbalance_50kmx20km-Tsfc245_Km_00511200.png2011-07-25 19:21 45K 
[IMG]Dry_coolheatbalance_50kmx20km-Tsfc245_Km_00831600.png2011-07-25 19:29 45K 
[IMG]Dry_coolheatbalance_50kmx20km-Tsfc245_PotTempDev_00280800.png2011-07-25 15:20 45K 
[IMG]Dry_coolheatbalance_50kmx20km-Tsfc245_PotTempDev_00738000.png2011-07-25 19:27 45K 
[IMG]Dry_coolheatbalance_50kmx20km-Tsfc245_Km_00219600.png2011-07-25 15:19 45K 
[IMG]Dry_coolheatbalance_50kmx20km-Tsfc245_Km_00813600.png2011-07-25 19:29 45K 
[IMG]Dry_coolheatbalance_50kmx20km-Tsfc245_Km_00450000.png2011-07-25 19:19 45K 
[IMG]Dry_coolheatbalance_50kmx20km-Tsfc245_PotTempDev_00698400.png2011-07-25 19:26 45K 
[IMG]Dry_coolheatbalance_50kmx20km-Tsfc245_Km_00820800.png2011-07-25 19:29 45K 
[IMG]Dry_coolheatbalance_50kmx20km-Tsfc245_PotTempDev_00216000.png2011-07-25 15:19 45K 
[IMG]Dry_coolheatbalance_50kmx20km-Tsfc245_Km_00846000.png2011-07-25 19:30 45K 
[IMG]Dry_coolheatbalance_50kmx20km-Tsfc245_Km_00860400.png2011-07-25 19:30 46K 
[IMG]Dry_coolheatbalance_50kmx20km-Tsfc245_Km_00727200.png2011-07-25 19:27 46K 
[IMG]Dry_coolheatbalance_50kmx20km-Tsfc245_Km_00532800.png2011-07-25 19:21 46K 
[IMG]Dry_coolheatbalance_50kmx20km-Tsfc245_PotTempDev_00313200.png2011-07-25 15:21 46K 
[IMG]Dry_coolheatbalance_50kmx20km-Tsfc245_PotTempDev_00205200.png2011-07-25 15:18 46K 
[IMG]Dry_coolheatbalance_50kmx20km-Tsfc245_Km_00201600.png2011-07-25 15:18 46K 
[IMG]Dry_coolheatbalance_50kmx20km-Tsfc245_PotTempDev_00126000.png2011-07-25 15:16 46K 
[IMG]Dry_coolheatbalance_50kmx20km-Tsfc245_Km_00741600.png2011-07-25 19:27 46K 
[IMG]Dry_coolheatbalance_50kmx20km-Tsfc245_Km_00849600.png2011-07-25 19:30 46K 
[IMG]Dry_coolheatbalance_50kmx20km-Tsfc245_PotTempDev_00288000.png2011-07-25 15:21 46K 
[IMG]Dry_coolheatbalance_50kmx20km-Tsfc245_PotTempDev_00262800.png2011-07-25 15:20 46K 
[IMG]Dry_coolheatbalance_50kmx20km-Tsfc245_PotTempDev_00730800.png2011-07-25 19:27 46K 
[IMG]Dry_coolheatbalance_50kmx20km-Tsfc245_PotTempDev_00597600.png2011-07-25 19:23 46K 
[IMG]Dry_coolheatbalance_50kmx20km-Tsfc245_Km_00644400.png2011-07-25 19:24 46K 
[IMG]Dry_coolheatbalance_50kmx20km-Tsfc245_Km_00666000.png2011-07-25 19:25 46K 
[IMG]Dry_coolheatbalance_50kmx20km-Tsfc245_PotTempDev_00320400.png2011-07-25 15:22 46K 
[IMG]Dry_coolheatbalance_50kmx20km-Tsfc245_PotTempDev_00619200.png2011-07-25 19:24 46K 
[IMG]Dry_coolheatbalance_50kmx20km-Tsfc245_PotTempDev_00864000.png2011-07-25 19:30 46K 
[IMG]Dry_coolheatbalance_50kmx20km-Tsfc245_Km_00486000.png2011-07-25 19:20 46K 
[IMG]Dry_coolheatbalance_50kmx20km-Tsfc245_Km_00468000.png2011-07-25 19:20 46K 
[IMG]Dry_coolheatbalance_50kmx20km-Tsfc245_PotTempDev_00774000.png2011-07-25 19:28 46K 
[IMG]Dry_coolheatbalance_50kmx20km-Tsfc245_PotTempDev_00745200.png2011-07-25 19:27 46K 
[IMG]Dry_coolheatbalance_50kmx20km-Tsfc245_Km_00619200.png2011-07-25 19:24 46K 
[IMG]Dry_coolheatbalance_50kmx20km-Tsfc245_Km_00759600.png2011-07-25 19:27 46K 
[IMG]Dry_coolheatbalance_50kmx20km-Tsfc245_PotTempDev_00266400.png2011-07-25 15:20 46K 
[IMG]Dry_coolheatbalance_50kmx20km-Tsfc245_Km_00792000.png2011-07-25 19:28 46K 
[IMG]Dry_coolheatbalance_50kmx20km-Tsfc245_Km_00507600.png2011-07-25 19:21 46K 
[IMG]Dry_coolheatbalance_50kmx20km-Tsfc245_Km_00864000.png2011-07-25 19:30 46K 
[IMG]Dry_coolheatbalance_50kmx20km-Tsfc245_PotTempDev_00676800.png2011-07-25 19:25 46K 
[IMG]Dry_coolheatbalance_50kmx20km-Tsfc245_Km_00856800.png2011-07-25 19:30 46K 
[IMG]Dry_coolheatbalance_50kmx20km-Tsfc245_Km_00367200.png2011-07-25 15:23 46K 
[IMG]Dry_coolheatbalance_50kmx20km-Tsfc245_PotTempDev_00770400.png2011-07-25 19:28 46K 
[IMG]Dry_coolheatbalance_50kmx20km-Tsfc245_Km_00576000.png2011-07-25 19:22 46K 
[IMG]Dry_coolheatbalance_50kmx20km-Tsfc245_Km_00633600.png2011-07-25 19:24 46K 
[IMG]Dry_coolheatbalance_50kmx20km-Tsfc245_Km_00781200.png2011-07-25 19:28 46K 
[IMG]Dry_coolheatbalance_50kmx20km-Tsfc245_PotTempDev_00806400.png2011-07-25 19:29 46K 
[IMG]Dry_coolheatbalance_50kmx20km-Tsfc245_PotTempDev_00291600.png2011-07-25 15:21 46K 
[IMG]Dry_coolheatbalance_50kmx20km-Tsfc245_PotTempDev_00788400.png2011-07-25 19:28 46K 
[IMG]Dry_coolheatbalance_50kmx20km-Tsfc245_Km_00601200.png2011-07-25 19:23 46K 
[IMG]Dry_coolheatbalance_50kmx20km-Tsfc245_Km_00608400.png2011-07-25 19:23 46K 
[IMG]Dry_coolheatbalance_50kmx20km-Tsfc245_PotTempDev_00828000.png2011-07-25 19:29 46K 
[IMG]Dry_coolheatbalance_50kmx20km-Tsfc245_PotTempDev_00813600.png2011-07-25 19:29 47K 
[IMG]Dry_coolheatbalance_50kmx20km-Tsfc245_PotTempDev_00723600.png2011-07-25 19:26 47K 
[IMG]Dry_coolheatbalance_50kmx20km-Tsfc245_PotTempDev_00716400.png2011-07-25 19:26 47K 
[IMG]Dry_coolheatbalance_50kmx20km-Tsfc245_PotTempDev_00230400.png2011-07-25 15:19 47K 
[IMG]Dry_coolheatbalance_50kmx20km-Tsfc245_PotTempDev_00680400.png2011-07-25 19:25 47K 
[IMG]Dry_coolheatbalance_50kmx20km-Tsfc245_Km_00720000.png2011-07-25 19:26 47K 
[IMG]Dry_coolheatbalance_50kmx20km-Tsfc245_PotTempDev_00302400.png2011-07-25 15:21 47K 
[IMG]Dry_coolheatbalance_50kmx20km-Tsfc245_PotTempDev_00637200.png2011-07-25 19:24 47K 
[IMG]Dry_coolheatbalance_50kmx20km-Tsfc245_PotTempDev_00590400.png2011-07-25 19:23 47K 
[IMG]Dry_coolheatbalance_50kmx20km-Tsfc245_Km_00687600.png2011-07-25 19:26 47K 
[IMG]Dry_coolheatbalance_50kmx20km-Tsfc245_PotTempDev_00298800.png2011-07-25 15:21 47K 
[IMG]Dry_coolheatbalance_50kmx20km-Tsfc245_Km_00500400.png2011-07-25 19:20 47K 
[IMG]Dry_coolheatbalance_50kmx20km-Tsfc245_Km_00003600.png2011-07-25 15:13 47K 
[IMG]Dry_coolheatbalance_50kmx20km-Tsfc245_Km_00396000.png2011-07-25 15:24 47K 
[IMG]Dry_coolheatbalance_50kmx20km-Tsfc245_PotTempDev_00694800.png2011-07-25 19:26 47K 
[IMG]Dry_coolheatbalance_50kmx20km-Tsfc245_Km_00604800.png2011-07-25 19:23 47K 
[IMG]Dry_coolheatbalance_50kmx20km-Tsfc245_PotTempDev_00630000.png2011-07-25 19:24 47K 
[IMG]Dry_coolheatbalance_50kmx20km-Tsfc245_Km_00568800.png2011-07-25 19:22 47K 
[IMG]Dry_coolheatbalance_50kmx20km-Tsfc245_Km_00853200.png2011-07-25 19:30 47K 
[IMG]Dry_coolheatbalance_50kmx20km-Tsfc245_PotTempDev_00007200.png2011-07-25 15:13 47K 
[IMG]Dry_coolheatbalance_50kmx20km-Tsfc245_Km_00622800.png2011-07-25 19:24 47K 
[IMG]Dry_coolheatbalance_50kmx20km-Tsfc245_Km_00331200.png2011-07-25 15:22 47K 
[IMG]Dry_coolheatbalance_50kmx20km-Tsfc245_PotTempDev_00756000.png2011-07-25 19:27 47K 
[IMG]Dry_coolheatbalance_50kmx20km-Tsfc245_Km_00842400.png2011-07-25 19:30 47K 
[IMG]Dry_coolheatbalance_50kmx20km-Tsfc245_Km_00802800.png2011-07-25 19:29 47K 
[IMG]Dry_coolheatbalance_50kmx20km-Tsfc245_PotTempDev_00860400.png2011-07-25 19:30 47K 
[IMG]Dry_coolheatbalance_50kmx20km-Tsfc245_PotTempDev_00615600.png2011-07-25 19:23 47K 
[IMG]Dry_coolheatbalance_50kmx20km-Tsfc245_PotTempDev_00709200.png2011-07-25 19:26 47K 
[IMG]Dry_coolheatbalance_50kmx20km-Tsfc245_PotTempDev_00604800.png2011-07-25 19:23 47K 
[IMG]Dry_coolheatbalance_50kmx20km-Tsfc245_Km_00658800.png2011-07-25 19:25 47K 
[IMG]Dry_coolheatbalance_50kmx20km-Tsfc245_PotTempDev_00705600.png2011-07-25 19:26 47K 
[IMG]Dry_coolheatbalance_50kmx20km-Tsfc245_Km_00529200.png2011-07-25 19:21 47K 
[IMG]Dry_coolheatbalance_50kmx20km-Tsfc245_Km_00828000.png2011-07-25 19:29 47K 
[IMG]Dry_coolheatbalance_50kmx20km-Tsfc245_Km_00691200.png2011-07-25 19:26 47K 
[IMG]Dry_coolheatbalance_50kmx20km-Tsfc245_PotTempDev_00194400.png2011-07-25 15:18 47K 
[IMG]Dry_coolheatbalance_50kmx20km-Tsfc245_PotTempDev_00295200.png2011-07-25 15:21 47K 
[IMG]Dry_coolheatbalance_50kmx20km-Tsfc245_PotTempDev_00180000.png2011-07-25 15:18 47K 
[IMG]Dry_coolheatbalance_50kmx20km-Tsfc245_Km_00712800.png2011-07-25 19:26 47K 
[IMG]Dry_coolheatbalance_50kmx20km-Tsfc245_Km_00385200.png2011-07-25 15:23 47K 
[IMG]Dry_coolheatbalance_50kmx20km-Tsfc245_Km_00799200.png2011-07-25 19:29 47K 
[IMG]Dry_coolheatbalance_50kmx20km-Tsfc245_PotTempDev_00349200.png2011-07-25 15:22 47K 
[IMG]Dry_coolheatbalance_50kmx20km-Tsfc245_PotTempDev_00712800.png2011-07-25 19:26 47K 
[IMG]Dry_coolheatbalance_50kmx20km-Tsfc245_Km_00824400.png2011-07-25 19:29 47K 
[IMG]Dry_coolheatbalance_50kmx20km-Tsfc245_PotTempDev_00594000.png2011-07-25 19:23 47K 
[IMG]Dry_coolheatbalance_50kmx20km-Tsfc245_Km_00810000.png2011-07-25 19:29 47K 
[IMG]Dry_coolheatbalance_50kmx20km-Tsfc245_Km_00698400.png2011-07-25 19:26 47K 
[IMG]Dry_coolheatbalance_50kmx20km-Tsfc245_PotTempDev_00234000.png2011-07-25 15:19 47K 
[IMG]Dry_coolheatbalance_50kmx20km-Tsfc245_PotTempDev_00633600.png2011-07-25 19:24 47K 
[IMG]Dry_coolheatbalance_50kmx20km-Tsfc245_PotTempDev_00583200.png2011-07-25 19:23 47K 
[IMG]Dry_coolheatbalance_50kmx20km-Tsfc245_PotTempDev_00835200.png2011-07-25 19:29 47K 
[IMG]Dry_coolheatbalance_50kmx20km-Tsfc245_Km_00770400.png2011-07-25 19:28 48K 
[IMG]Dry_coolheatbalance_50kmx20km-Tsfc245_Km_00630000.png2011-07-25 19:24 48K 
[IMG]Dry_coolheatbalance_50kmx20km-Tsfc245_PotTempDev_00352800.png2011-07-25 15:22 48K 
[IMG]Dry_coolheatbalance_50kmx20km-Tsfc245_Km_00504000.png2011-07-25 19:20 48K 
[IMG]Dry_coolheatbalance_50kmx20km-Tsfc245_PotTempDev_00838800.png2011-07-25 19:30 48K 
[IMG]Dry_coolheatbalance_50kmx20km-Tsfc245_PotTempDev_00763200.png2011-07-25 19:27 48K 
[IMG]Dry_coolheatbalance_50kmx20km-Tsfc245_Km_00421200.png2011-07-25 15:24 48K 
[IMG]Dry_coolheatbalance_50kmx20km-Tsfc245_PotTempDev_00187200.png2011-07-25 15:18 48K 
[IMG]Dry_coolheatbalance_50kmx20km-Tsfc245_PotTempDev_00608400.png2011-07-25 19:23 48K 
[IMG]Dry_coolheatbalance_50kmx20km-Tsfc245_PotTempDev_00237600.png2011-07-25 15:19 48K 
[IMG]Dry_coolheatbalance_50kmx20km-Tsfc245_PotTempDev_00777600.png2011-07-25 19:28 48K 
[IMG]Dry_coolheatbalance_50kmx20km-Tsfc245_PotTempDev_00648000.png2011-07-25 19:24 48K 
[IMG]Dry_coolheatbalance_50kmx20km-Tsfc245_PotTempDev_00784800.png2011-07-25 19:28 48K 
[IMG]Dry_coolheatbalance_50kmx20km-Tsfc245_PotTempDev_00356400.png2011-07-25 15:23 48K 
[IMG]Dry_coolheatbalance_50kmx20km-Tsfc245_PotTempDev_00270000.png2011-07-25 15:20 48K 
[IMG]Dry_coolheatbalance_50kmx20km-Tsfc245_PotTempDev_00734400.png2011-07-25 19:27 48K 
[IMG]Dry_coolheatbalance_50kmx20km-Tsfc245_Km_00806400.png2011-07-25 19:29 48K 
[IMG]Dry_coolheatbalance_50kmx20km-Tsfc245_PotTempDev_00522000.png2011-07-25 19:21 48K 
[IMG]Dry_coolheatbalance_50kmx20km-Tsfc245_PotTempDev_00241200.png2011-07-25 15:19 48K 
[IMG]Dry_coolheatbalance_50kmx20km-Tsfc245_PotTempDev_00640800.png2011-07-25 19:24 48K 
[IMG]Dry_coolheatbalance_50kmx20km-Tsfc245_PotTempDev_00666000.png2011-07-25 19:25 48K 
[IMG]Dry_coolheatbalance_50kmx20km-Tsfc245_PotTempDev_00190800.png2011-07-25 15:18 48K 
[IMG]Dry_coolheatbalance_50kmx20km-Tsfc245_Km_00550800.png2011-07-25 19:22 48K 
[IMG]Dry_coolheatbalance_50kmx20km-Tsfc245_PotTempDev_00817200.png2011-07-25 19:29 48K 
[IMG]Dry_coolheatbalance_50kmx20km-Tsfc245_PotTempDev_00259200.png2011-07-25 15:20 48K 
[IMG]Dry_coolheatbalance_50kmx20km-Tsfc245_Km_00669600.png2011-07-25 19:25 48K 
[IMG]Dry_coolheatbalance_50kmx20km-Tsfc245_PotTempDev_00442800.png2011-07-25 19:19 48K 
[IMG]Dry_coolheatbalance_50kmx20km-Tsfc245_PotTempDev_00601200.png2011-07-25 19:23 48K 
[IMG]Dry_coolheatbalance_50kmx20km-Tsfc245_PotTempDev_00226800.png2011-07-25 15:19 48K 
[IMG]Dry_coolheatbalance_50kmx20km-Tsfc245_PotTempDev_00831600.png2011-07-25 19:29 48K 
[IMG]Dry_coolheatbalance_50kmx20km-Tsfc245_PotTempDev_00158400.png2011-07-25 15:17 48K 
[IMG]Dry_coolheatbalance_50kmx20km-Tsfc245_PotTempDev_00306000.png2011-07-25 15:21 48K 
[IMG]Dry_coolheatbalance_50kmx20km-Tsfc245_PotTempDev_00154800.png2011-07-25 15:17 48K 
[IMG]Dry_coolheatbalance_50kmx20km-Tsfc245_PotTempDev_00658800.png2011-07-25 19:25 48K 
[IMG]Dry_coolheatbalance_50kmx20km-Tsfc245_PotTempDev_00702000.png2011-07-25 19:26 48K 
[IMG]Dry_coolheatbalance_50kmx20km-Tsfc245_PotTempDev_00651600.png2011-07-25 19:24 48K 
[IMG]Dry_coolheatbalance_50kmx20km-Tsfc245_PotTempDev_00212400.png2011-07-25 15:19 48K 
[IMG]Dry_coolheatbalance_50kmx20km-Tsfc245_PotTempDev_00111600.png2011-07-25 15:16 48K 
[IMG]Dry_coolheatbalance_50kmx20km-Tsfc245_PotTempDev_00673200.png2011-07-25 19:25 48K 
[IMG]Dry_coolheatbalance_50kmx20km-Tsfc245_PotTempDev_00122400.png2011-07-25 15:16 48K 
[IMG]Dry_coolheatbalance_50kmx20km-Tsfc245_Km_00774000.png2011-07-25 19:28 48K 
[IMG]Dry_coolheatbalance_50kmx20km-Tsfc245_PotTempDev_00309600.png2011-07-25 15:21 48K 
[IMG]Dry_coolheatbalance_50kmx20km-Tsfc245_PotTempDev_00345600.png2011-07-25 15:22 48K 
[IMG]Dry_coolheatbalance_50kmx20km-Tsfc245_PotTempDev_00100800.png2011-07-25 15:15 48K 
[IMG]Dry_coolheatbalance_50kmx20km-Tsfc245_PotTempDev_00097200.png2011-07-25 15:15 49K 
[IMG]Dry_coolheatbalance_50kmx20km-Tsfc245_PotTempDev_00691200.png2011-07-25 19:26 49K 
[IMG]Dry_coolheatbalance_50kmx20km-Tsfc245_PotTempDev_00324000.png2011-07-25 15:22 49K 
[IMG]Dry_coolheatbalance_50kmx20km-Tsfc245_PotTempDev_00799200.png2011-07-25 19:28 49K 
[IMG]Dry_coolheatbalance_50kmx20km-Tsfc245_PotTempDev_00579600.png2011-07-25 19:22 49K 
[IMG]Dry_coolheatbalance_50kmx20km-Tsfc245_PotTempDev_00820800.png2011-07-25 19:29 49K 
[IMG]Dry_coolheatbalance_50kmx20km-Tsfc245_PotTempDev_00547200.png2011-07-25 19:22 49K 
[IMG]Dry_coolheatbalance_50kmx20km-Tsfc245_PotTempDev_00622800.png2011-07-25 19:24 49K 
[IMG]Dry_coolheatbalance_50kmx20km-Tsfc245_PotTempDev_00561600.png2011-07-25 19:22 49K 
[IMG]Dry_coolheatbalance_50kmx20km-Tsfc245_PotTempDev_00802800.png2011-07-25 19:29 49K 
[IMG]Dry_coolheatbalance_50kmx20km-Tsfc245_PotTempDev_00414000.png2011-07-25 15:24 49K 
[IMG]Dry_coolheatbalance_50kmx20km-Tsfc245_PotTempDev_00536400.png2011-07-25 19:21 49K 
[IMG]Dry_coolheatbalance_50kmx20km-Tsfc245_PotTempDev_00363600.png2011-07-25 15:23 49K 
[IMG]Dry_coolheatbalance_50kmx20km-Tsfc245_PotTempDev_00248400.png2011-07-25 15:20 49K 
[IMG]Dry_coolheatbalance_50kmx20km-Tsfc245_PotTempDev_00410400.png2011-07-25 15:24 49K 
[IMG]Dry_coolheatbalance_50kmx20km-Tsfc245_PotTempDev_00759600.png2011-07-25 19:27 49K 
[IMG]Dry_coolheatbalance_50kmx20km-Tsfc245_PotTempDev_00781200.png2011-07-25 19:28 49K 
[IMG]Dry_coolheatbalance_50kmx20km-Tsfc245_PotTempDev_00856800.png2011-07-25 19:30 49K 
[IMG]Dry_coolheatbalance_50kmx20km-Tsfc245_PotTempDev_00766800.png2011-07-25 19:28 49K 
[IMG]Dry_coolheatbalance_50kmx20km-Tsfc245_PotTempDev_00255600.png2011-07-25 15:20 49K 
[IMG]Dry_coolheatbalance_50kmx20km-Tsfc245_PotTempDev_00727200.png2011-07-25 19:27 49K 
[IMG]Dry_coolheatbalance_50kmx20km-Tsfc245_PotTempDev_00525600.png2011-07-25 19:21 49K 
[IMG]Dry_coolheatbalance_50kmx20km-Tsfc245_PotTempDev_00176400.png2011-07-25 15:18 49K 
[IMG]Dry_coolheatbalance_50kmx20km-Tsfc245_PotTempDev_00360000.png2011-07-25 15:23 49K 
[IMG]Dry_coolheatbalance_50kmx20km-Tsfc245_Km_00795600.png2011-07-25 19:28 49K 
[IMG]Dry_coolheatbalance_50kmx20km-Tsfc245_PotTempDev_00792000.png2011-07-25 19:28 49K 
[IMG]Dry_coolheatbalance_50kmx20km-Tsfc245_PotTempDev_00446400.png2011-07-25 19:19 49K 
[IMG]Dry_coolheatbalance_50kmx20km-Tsfc245_PotTempDev_00846000.png2011-07-25 19:30 50K 
[IMG]Dry_coolheatbalance_50kmx20km-Tsfc245_PotTempDev_00244800.png2011-07-25 15:19 50K 
[IMG]Dry_coolheatbalance_50kmx20km-Tsfc245_PotTempDev_00457200.png2011-07-25 19:19 50K 
[IMG]Dry_coolheatbalance_50kmx20km-Tsfc245_PotTempDev_00378000.png2011-07-25 15:23 50K 
[IMG]Dry_coolheatbalance_50kmx20km-Tsfc245_PotTempDev_00532800.png2011-07-25 19:21 50K 
[IMG]Dry_coolheatbalance_50kmx20km-Tsfc245_PotTempDev_00853200.png2011-07-25 19:30 50K 
[IMG]Dry_coolheatbalance_50kmx20km-Tsfc245_PotTempDev_00435600.png2011-07-25 19:19 50K 
[IMG]Dry_coolheatbalance_50kmx20km-Tsfc245_PotTempDev_00338400.png2011-07-25 15:22 50K 
[IMG]Dry_coolheatbalance_50kmx20km-Tsfc245_PotTempDev_00475200.png2011-07-25 19:20 50K 
[IMG]Dry_coolheatbalance_50kmx20km-Tsfc245_PotTempDev_00669600.png2011-07-25 19:25 50K 
[IMG]Dry_coolheatbalance_50kmx20km-Tsfc245_PotTempDev_00219600.png2011-07-25 15:19 50K 
[IMG]Dry_coolheatbalance_50kmx20km-Tsfc245_PotTempDev_00162000.png2011-07-25 15:17 50K 
[IMG]Dry_coolheatbalance_50kmx20km-Tsfc245_PotTempDev_00421200.png2011-07-25 15:24 50K 
[IMG]Dry_coolheatbalance_50kmx20km-Tsfc245_PotTempDev_00406800.png2011-07-25 15:24 50K 
[IMG]Dry_coolheatbalance_50kmx20km-Tsfc245_PotTempDev_00568800.png2011-07-25 19:22 50K 
[IMG]Dry_coolheatbalance_50kmx20km-Tsfc245_PotTempDev_00334800.png2011-07-25 15:22 50K 
[IMG]Dry_coolheatbalance_50kmx20km-Tsfc245_PotTempDev_00529200.png2011-07-25 19:21 50K 
[IMG]Dry_coolheatbalance_50kmx20km-Tsfc245_PotTempDev_00478800.png2011-07-25 19:20 50K 
[IMG]Dry_coolheatbalance_50kmx20km-Tsfc245_PotTempDev_00165600.png2011-07-25 15:17 50K 
[IMG]Dry_coolheatbalance_50kmx20km-Tsfc245_PotTempDev_00342000.png2011-07-25 15:22 50K 
[IMG]Dry_coolheatbalance_50kmx20km-Tsfc245_PotTempDev_00403200.png2011-07-25 15:24 50K 
[IMG]Dry_coolheatbalance_50kmx20km-Tsfc245_PotTempDev_00554400.png2011-07-25 19:22 50K 
[IMG]Dry_coolheatbalance_50kmx20km-Tsfc245_PotTempDev_00565200.png2011-07-25 19:22 50K 
[IMG]Dry_coolheatbalance_50kmx20km-Tsfc245_PotTempDev_00450000.png2011-07-25 19:19 50K 
[IMG]Dry_coolheatbalance_50kmx20km-Tsfc245_PotTempDev_00201600.png2011-07-25 15:18 50K 
[IMG]Dry_coolheatbalance_50kmx20km-Tsfc245_PotTempDev_00417600.png2011-07-25 15:24 50K 
[IMG]Dry_coolheatbalance_50kmx20km-Tsfc245_PotTempDev_00129600.png2011-07-25 15:16 50K 
[IMG]Dry_coolheatbalance_50kmx20km-Tsfc245_PotTempDev_00453600.png2011-07-25 19:19 50K 
[IMG]Dry_coolheatbalance_50kmx20km-Tsfc245_PotTempDev_00374400.png2011-07-25 15:23 50K 
[IMG]Dry_coolheatbalance_50kmx20km-Tsfc245_PotTempDev_00370800.png2011-07-25 15:23 50K 
[IMG]Dry_coolheatbalance_50kmx20km-Tsfc245_PotTempDev_00172800.png2011-07-25 15:17 50K 
[IMG]Dry_coolheatbalance_50kmx20km-Tsfc245_PotTempDev_00471600.png2011-07-25 19:20 50K 
[IMG]Dry_coolheatbalance_50kmx20km-Tsfc245_PotTempDev_00504000.png2011-07-25 19:20 50K 
[IMG]Dry_coolheatbalance_50kmx20km-Tsfc245_PotTempDev_00849600.png2011-07-25 19:30 50K 
[IMG]Dry_coolheatbalance_50kmx20km-Tsfc245_PotTempDev_00327600.png2011-07-25 15:22 50K 
[IMG]Dry_coolheatbalance_50kmx20km-Tsfc245_PotTempDev_00385200.png2011-07-25 15:23 51K 
[IMG]Dry_coolheatbalance_50kmx20km-Tsfc245_PotTempDev_00198000.png2011-07-25 15:18 51K 
[IMG]Dry_coolheatbalance_50kmx20km-Tsfc245_PotTempDev_00824400.png2011-07-25 19:29 51K 
[IMG]Dry_coolheatbalance_50kmx20km-Tsfc245_PotTempDev_00550800.png2011-07-25 19:22 51K 
[IMG]Dry_coolheatbalance_50kmx20km-Tsfc245_Km_00662400.png2011-07-25 19:25 51K 
[IMG]Dry_coolheatbalance_50kmx20km-Tsfc245_PotTempDev_00514800.png2011-07-25 19:21 51K 
[IMG]Dry_coolheatbalance_50kmx20km-Tsfc245_PotTempDev_00540000.png2011-07-25 19:21 51K 
[IMG]Dry_coolheatbalance_50kmx20km-Tsfc245_PotTempDev_00183600.png2011-07-25 15:18 51K 
[IMG]Dry_coolheatbalance_50kmx20km-Tsfc245_PotTempDev_00428400.png2011-07-25 15:25 51K 
[IMG]Dry_coolheatbalance_50kmx20km-Tsfc245_PotTempDev_00252000.png2011-07-25 15:20 51K 
[IMG]Dry_coolheatbalance_50kmx20km-Tsfc245_PotTempDev_00151200.png2011-07-25 15:17 51K 
[IMG]Dry_coolheatbalance_50kmx20km-Tsfc245_PotTempDev_00482400.png2011-07-25 19:20 51K 
[IMG]Dry_coolheatbalance_50kmx20km-Tsfc245_PotTempDev_00576000.png2011-07-25 19:22 51K 
[IMG]Dry_coolheatbalance_50kmx20km-Tsfc245_PotTempDev_00367200.png2011-07-25 15:23 51K 
[IMG]Dry_coolheatbalance_50kmx20km-Tsfc245_PotTempDev_00518400.png2011-07-25 19:21 51K 
[IMG]Dry_coolheatbalance_50kmx20km-Tsfc245_PotTempDev_00432000.png2011-07-25 19:18 51K 
[IMG]Dry_coolheatbalance_50kmx20km-Tsfc245_PotTempDev_00072000.png2011-07-25 15:15 51K 
[IMG]Dry_coolheatbalance_50kmx20km-Tsfc245_PotTempDev_00093600.png2011-07-25 15:15 51K 
[IMG]Dry_coolheatbalance_50kmx20km-Tsfc245_PotTempDev_00644400.png2011-07-25 19:24 51K 
[IMG]Dry_coolheatbalance_50kmx20km-Tsfc245_PotTempDev_00118800.png2011-07-25 15:16 51K 
[IMG]Dry_coolheatbalance_50kmx20km-Tsfc245_PotTempDev_00795600.png2011-07-25 19:28 51K 
[IMG]Dry_coolheatbalance_50kmx20km-Tsfc245_PotTempDev_00381600.png2011-07-25 15:23 51K 
[IMG]Dry_coolheatbalance_50kmx20km-Tsfc245_PotTempDev_00439200.png2011-07-25 19:19 51K 
[IMG]Dry_coolheatbalance_50kmx20km-Tsfc245_PotTempDev_00144000.png2011-07-25 15:17 51K 
[IMG]Dry_coolheatbalance_50kmx20km-Tsfc245_PotTempDev_00460800.png2011-07-25 19:19 51K 
[IMG]Dry_coolheatbalance_50kmx20km-Tsfc245_PotTempDev_00104400.png2011-07-25 15:16 51K 
[IMG]Dry_coolheatbalance_50kmx20km-Tsfc245_PotTempDev_00486000.png2011-07-25 19:20 51K 
[IMG]Dry_coolheatbalance_50kmx20km-Tsfc245_PotTempDev_00496800.png2011-07-25 19:20 51K 
[IMG]Dry_coolheatbalance_50kmx20km-Tsfc245_PotTempDev_00572400.png2011-07-25 19:22 52K 
[IMG]Dry_coolheatbalance_50kmx20km-Tsfc245_PotTempDev_00136800.png2011-07-25 15:16 52K 
[IMG]Dry_coolheatbalance_50kmx20km-Tsfc245_PotTempDev_00169200.png2011-07-25 15:17 52K 
[IMG]Dry_coolheatbalance_50kmx20km-Tsfc245_PotTempDev_00399600.png2011-07-25 15:24 52K 
[IMG]Dry_coolheatbalance_50kmx20km-Tsfc245_PotTempDev_00223200.png2011-07-25 15:19 52K 
[IMG]Dry_coolheatbalance_50kmx20km-Tsfc245_PotTempDev_00493200.png2011-07-25 19:20 52K 
[IMG]Dry_coolheatbalance_50kmx20km-Tsfc245_PotTempDev_00489600.png2011-07-25 19:20 52K 
[IMG]Dry_coolheatbalance_50kmx20km-Tsfc245_PotTempDev_00331200.png2011-07-25 15:22 52K 
[IMG]Dry_coolheatbalance_50kmx20km-Tsfc245_PotTempDev_00842400.png2011-07-25 19:30 52K 
[IMG]Dry_coolheatbalance_50kmx20km-Tsfc245_PotTempDev_00464400.png2011-07-25 19:19 52K 
[IMG]Dry_coolheatbalance_50kmx20km-Tsfc245_PotTempDev_00424800.png2011-07-25 15:24 52K 
[IMG]Dry_coolheatbalance_50kmx20km-Tsfc245_PotTempDev_00511200.png2011-07-25 19:21 52K 
[IMG]Dry_coolheatbalance_50kmx20km-Tsfc245_PotTempDev_00140400.png2011-07-25 15:17 52K 
[IMG]Dry_coolheatbalance_50kmx20km-Tsfc245_PotTempDev_00068400.png2011-07-25 15:15 52K 
[IMG]Dry_coolheatbalance_50kmx20km-Tsfc245_PotTempDev_00468000.png2011-07-25 19:19 52K 
[IMG]Dry_coolheatbalance_50kmx20km-Tsfc245_PotTempDev_00662400.png2011-07-25 19:25 52K 
[IMG]Dry_coolheatbalance_50kmx20km-Tsfc245_PotTempDev_00500400.png2011-07-25 19:20 52K 
[IMG]Dry_coolheatbalance_50kmx20km-Tsfc245_PotTempDev_00090000.png2011-07-25 15:15 53K 
[IMG]Dry_coolheatbalance_50kmx20km-Tsfc245_PotTempDev_00543600.png2011-07-25 19:21 53K 
[IMG]Dry_coolheatbalance_50kmx20km-Tsfc245_PotTempDev_00392400.png2011-07-25 15:24 53K 
[IMG]Dry_coolheatbalance_50kmx20km-Tsfc245_PotTempDev_00507600.png2011-07-25 19:21 53K 
[IMG]Dry_coolheatbalance_50kmx20km-Tsfc245_PotTempDev_00064800.png2011-07-25 15:14 53K 
[IMG]Dry_coolheatbalance_50kmx20km-Tsfc245_PotTempDev_00075600.png2011-07-25 15:15 53K 
[IMG]Dry_coolheatbalance_50kmx20km-Tsfc245_PotTempDev_00147600.png2011-07-25 15:17 53K 
[IMG]Dry_coolheatbalance_50kmx20km-Tsfc245_PotTempDev_00108000.png2011-07-25 15:16 53K 
[IMG]Dry_coolheatbalance_50kmx20km-Tsfc245_PotTempDev_00086400.png2011-07-25 15:15 53K 
[IMG]Dry_coolheatbalance_50kmx20km-Tsfc245_PotTempDev_00133200.png2011-07-25 15:16 54K 
[IMG]Dry_coolheatbalance_50kmx20km-Tsfc245_PotTempDev_00396000.png2011-07-25 15:24 54K 
[IMG]Dry_coolheatbalance_50kmx20km-Tsfc245_PotTempDev_00115200.png2011-07-25 15:16 54K 
[IMG]Dry_coolheatbalance_50kmx20km-Tsfc245_PotTempDev_00388800.png2011-07-25 15:23 54K 
[IMG]Dry_coolheatbalance_50kmx20km-Tsfc245_PotTempDev_00010800.png2011-07-25 15:13 54K 
[IMG]Dry_coolheatbalance_50kmx20km-Tsfc245_PotTempDev_00082800.png2011-07-25 15:15 55K 
[IMG]Dry_coolheatbalance_50kmx20km-Tsfc245_PotTempDev_00036000.png2011-07-25 15:14 55K 
[IMG]Dry_coolheatbalance_50kmx20km-Tsfc245_PotTempDev_00061200.png2011-07-25 15:14 55K 
[IMG]Dry_coolheatbalance_50kmx20km-Tsfc245_PotTempDev_00057600.png2011-07-25 15:14 55K 
[IMG]Dry_coolheatbalance_50kmx20km-Tsfc245_PotTempDev_00018000.png2011-07-25 15:13 55K 
[IMG]Dry_coolheatbalance_50kmx20km-Tsfc245_PotTempDev_00079200.png2011-07-25 15:15 56K 
[IMG]Dry_coolheatbalance_50kmx20km-Tsfc245_PotTempDev_00032400.png2011-07-25 15:13 56K 
[IMG]Dry_coolheatbalance_50kmx20km-Tsfc245_PotTempDev_00014400.png2011-07-25 15:13 56K 
[IMG]Dry_coolheatbalance_50kmx20km-Tsfc245_PotTempDev_00054000.png2011-07-25 15:14 56K 
[IMG]Dry_coolheatbalance_50kmx20km-Tsfc245_PotTempDev_00046800.png2011-07-25 15:14 56K 
[IMG]Dry_coolheatbalance_50kmx20km-Tsfc245_PotTempDev_00021600.png2011-07-25 15:13 56K 
[IMG]Dry_coolheatbalance_50kmx20km-Tsfc245_PotTempDev_00043200.png2011-07-25 15:14 56K 
[IMG]Dry_coolheatbalance_50kmx20km-Tsfc245_PotTempDev_00050400.png2011-07-25 15:14 56K 
[IMG]Dry_coolheatbalance_50kmx20km-Tsfc245_PotTempDev_00039600.png2011-07-25 15:14 57K 
[IMG]Dry_coolheatbalance_50kmx20km-Tsfc245_PotTempDev_00028800.png2011-07-25 15:13 57K 
[IMG]Dry_coolheatbalance_50kmx20km-Tsfc245_PotTempDev_00025200.png2011-07-25 15:13 58K 

Apache/2.4.56 (Debian) Phusion_Passenger/5.0.30 OpenSSL/1.1.1w Server at dennou-k.gaia.h.kyoto-u.ac.jp Port 443